[[{"header":{"parameterUnit":"m.s-1","parameterCategory":1,"la1":30.6,"la2":28.766,"lo1":-90.7593,"lo2":-88.6598,"dx":0.0162,"dy":0.0183,"nx":116,"ny":114,"refTime":"2022-12-31T06:00:00:Z","depth":0,"parameterNumber":2,"parameterNumberName":"U-component_of_WINDS"},"data":[0.0,0.0,0.0,0.0,0.0,0.0,0.0,0.0,0.0,0.0,0.0,0.0,0.0,0.0,0.0,0.0,0.0,0.0,0.0,0.0,0.0,0.0,0.0,0.0,0.0,0.0,0.0,0.0,0.0,0.0,0.0,0.0,0.0,0.0,0.0,0.0,0.0,0.0,0.0,0.0,0.0,0.0,0.0,0.0,0.0,0.0,0.0,0.0,0.0,0.0,0.0,0.0,0.0,0.0,0.0,0.0,0.0,0.0,0.0,0.0,0.0,0.0,0.0,0.0,0.0,0.0,0.0,0.0,0.0,0.0,0.0,0.0,0.0,0.0,0.0,0.0,0.0,0.0,0.0,0.0,0.0,0.0,0.0,0.0,0.0,0.0,0.0,0.0,0.0,0.0,0.0,0.0,0.0,0.0,0.0,0.0,0.0,0.0,0.0,0.0,0.0,0.0,0.0,0.0,0.0,0.0,0.0,0.0,0.0,0.0,0.0,0.0,0.0,0.0,0.0,0.0,0.0,0.0,0.0,0.0,0.0,0.0,0.0,0.0,0.0,0.0,0.0,0.0,0.0,0.0,0.0,0.0,0.0,0.0,0.0,0.0,0.0,0.0,0.0,0.0,0.0,0.0,0.0,0.0,0.0,0.0,0.0,0.0,0.0,0.0,0.0,0.0,0.0,0.0,0.0,0.0,0.0,0.0,0.0,0.0,0.0,0.0,0.0,0.0,0.0,0.0,0.0,0.0,0.0,0.0,0.0,0.0,0.0,0.0,0.0,0.0,0.0,0.0,0.0,0.0,0.0,0.0,0.0,0.0,0.0,0.0,0.0,0.0,0.0,0.0,0.0,0.0,0.0,0.0,0.0,0.0,0.0,0.0,0.0,0.0,0.0,0.0,0.0,0.0,0.0,0.0,0.0,0.0,0.0,0.0,0.0,0.0,0.0,0.0,0.0,0.0,0.0,0.0,0.0,0.0,0.0,0.0,0.0,0.0,0.0,0.0,0.0,0.0,0.0,0.0,0.0,0.0,0.0,0.0,0.0,0.0,0.0,0.0,0.0,0.0,0.0,0.0,0.0,0.0,0.0,0.0,0.0,0.0,0.0,0.0,0.0,0.0,0.0,0.0,0.0,0.0,0.0,0.0,0.0,0.0,0.0,0.0,0.0,0.0,0.0,0.0,0.0,0.0,0.0,0.0,0.0,0.0,0.0,0.0,0.0,0.0,0.0,0.0,0.0,0.0,0.0,0.0,0.0,0.0,0.0,0.0,0.0,0.0,0.0,0.0,0.0,0.0,0.0,0.0,0.0,0.0,0.0,0.0,0.0,0.0,0.0,0.0,0.0,0.0,0.0,0.0,0.0,0.0,0.0,0.0,0.0,0.0,0.0,0.0,0.0,0.0,0.0,0.0,0.0,0.0,0.0,0.0,0.0,0.0,0.0,0.0,0.0,0.0,0.0,0.0,0.0,0.0,0.0,0.0,0.0,0.0,0.0,0.0,0.0,0.0,0.0,0.0,0.0,0.0,0.0,0.0,0.0,0.0,0.0,0.0,0.0,0.0,0.0,0.0,0.0,0.0,0.0,0.0,0.0,0.0,0.0,0.0,0.0,0.0,0.0,0.0,0.0,0.0,0.0,0.0,0.0,0.0,0.0,0.0,0.0,0.0,0.0,0.0,0.0,0.0,0.0,0.0,0.0,0.0,0.0,0.0,0.0,0.0,0.0,0.0,0.0,0.0,0.0,0.0,0.0,0.0,0.0,0.0,0.0,0.0,0.0,0.0,0.0,0.0,0.0,0.0,0.0,0.0,0.0,0.0,0.0,0.0,0.0,0.0,0.0,0.0,0.0,0.0,0.0,0.0,0.0,0.0,0.0,0.0,0.0,0.0,0.0,0.0,0.0,0.0,0.0,0.0,0.0,0.0,0.0,0.0,0.0,0.0,0.0,0.0,0.0,0.0,0.0,0.0,0.0,0.0,0.0,0.0,0.0,0.0,0.0,0.0,0.0,0.0,0.0,0.0,0.0,0.0,0.0,0.0,0.0,0.0,0.0,0.0,0.0,0.0,0.0,0.0,0.0,0.0,0.0,0.0,0.0,0.0,0.0,0.0,0.0,0.0,0.0,0.0,0.0,0.0,0.0,0.0,0.0,0.0,0.0,0.0,0.0,0.0,0.0,0.0,0.0,0.0,0.0,0.0,0.0,0.0,0.0,0.0,0.0,0.0,0.0,0.0,0.0,0.0,0.0,0.0,0.0,0.0,0.0,0.0,0.0,0.0,0.0,0.0,0.0,0.0,0.0,0.0,0.0,0.0,0.0,0.0,0.0,0.0,0.0,0.0,0.0,0.0,0.0,0.0,0.0,0.0,0.0,0.0,0.0,0.0,0.0,0.0,0.0,0.0,0.0,0.0,0.0,0.0,0.0,0.0,0.0,0.0,0.0,0.0,0.0,0.0,0.0,0.0,0.0,0.0,0.0,0.0,0.0,0.0,0.0,0.0,0.0,0.0,0.0,0.0,0.0,0.0,0.0,0.0,0.0,0.0,0.0,0.0,0.0,0.0,0.0,0.0,0.0,0.0,0.0,0.0,0.0,0.0,0.0,0.0,0.0,0.0,0.0,0.0,0.0,0.0,0.0,0.0,0.0,0.0,0.0,0.0,0.0,0.0,0.0,0.0,0.0,0.0,0.0,0.0,0.0,0.0,0.0,0.0,0.0,0.0,0.0,0.0,0.0,0.0,0.0,0.0,0.0,0.0,0.0,0.0,0.0,0.0,0.0,0.0,0.0,0.0,0.0,0.0,0.0,0.0,0.0,0.0,0.0,0.0,0.0,0.0,0.0,0.0,0.0,0.0,0.0,0.0,0.0,0.0,0.0,0.0,0.0,0.0,0.0,0.0,0.0,0.0,0.0,0.0,0.0,0.0,0.0,0.0,0.0,0.0,0.0,0.0,0.0,0.0,0.0,0.0,0.0,0.0,0.0,0.0,0.0,0.0,0.0,0.0,0.0,0.0,0.0,0.0,0.0,0.0,0.0,0.0,0.0,0.0,0.0,0.0,0.0,0.0,0.0,0.0,0.0,0.0,0.0,0.0,0.0,0.0,0.0,0.0,0.0,0.0,0.0,0.0,0.0,0.0,0.0,0.0,0.0,0.0,0.0,0.0,0.0,0.0,0.0,0.0,0.0,0.0,0.0,0.0,0.0,0.0,0.0,0.0,0.0,0.0,0.0,0.0,0.0,0.0,0.0,0.0,0.0,0.0,0.0,0.0,0.0,0.0,0.0,0.0,0.0,0.0,0.0,0.0,0.0,0.0,0.0,0.0,0.0,0.0,0.0,0.0,0.0,0.0,0.0,0.0,0.0,0.0,0.0,0.0,0.0,0.0,0.0,0.0,0.0,0.0,0.0,0.0,0.0,0.0,0.0,0.0,0.0,0.0,0.0,0.0,0.0,0.0,0.0,0.0,0.0,0.0,0.0,0.0,0.0,0.0,0.0,0.0,0.0,0.0,0.0,0.0,0.0,0.0,0.0,0.0,0.0,0.0,0.0,0.0,0.0,0.0,0.0,0.0,0.0,0.0,0.0,0.0,0.0,0.0,0.0,0.0,0.0,0.0,0.0,0.0,0.0,0.0,0.0,0.0,0.0,0.0,0.0,0.0,0.0,0.0,0.0,0.0,0.0,0.0,0.0,0.0,0.0,0.0,0.0,0.0,0.0,0.0,0.0,0.0,0.0,0.0,0.0,0.0,0.0,0.0,0.0,0.0,0.0,0.0,0.0,0.0,0.0,0.0,0.0,0.0,0.0,0.0,0.0,0.0,0.0,0.0,0.0,0.0,0.0,0.0,0.0,0.0,0.0,0.0,0.0,0.0,0.0,0.0,0.0,0.0,0.0,0.0,0.0,0.0,0.0,0.0,0.0,0.0,0.0,0.0,0.0,0.0,0.0,0.0,0.0,0.0,0.0,0.0,0.0,0.0,0.0,0.0,0.0,0.0,0.0,0.0,0.0,0.0,0.0,0.0,0.0,0.0,0.0,0.0,0.0,0.0,0.0,0.0,0.0,0.0,0.0,0.0,0.0,0.0,0.0,0.0,0.0,0.0,0.0,0.0,0.0,0.0,0.0,0.0,0.0,0.0,0.0,0.0,0.0,0.0,0.0,0.0,0.0,0.0,0.0,0.0,0.0,0.0,0.0,0.0,0.0,0.0,0.0,0.0,0.0,0.0,0.0,0.0,0.0,0.0,0.0,0.0,0.0,0.0,0.0,0.0,0.0,0.0,0.0,0.0,0.0,0.0,0.0,0.0,0.0,0.0,0.0,0.0,0.0,0.0,0.0,0.0,0.0,0.0,0.0,0.0,0.0,0.0,0.0,0.0,0.0,0.0,0.0,0.0,0.0,0.0,0.0,0.0,0.0,0.0,0.0,0.0,0.0,0.0,0.0,0.0,0.0,0.0,0.0,0.0,0.0,0.0,0.0,0.0,0.0,0.0,0.0,0.0,0.0,0.0,0.0,0.0,0.0,0.0,0.0,0.0,0.0,0.0,0.0,0.0,0.0,0.0,0.0,0.0,0.0,0.0,0.0,0.0,0.0,0.0,0.0,0.0,0.0,0.0,0.0,0.0,0.0,0.0,0.0,0.0,0.0,0.0,0.0,0.0,0.0,0.0,0.0,0.0,0.0,0.0,0.0,0.0,0.0,0.0,0.0,0.0,0.0,0.0,0.0,0.0,0.0,0.0,0.0,0.0,0.0,0.0,0.0,0.0,0.0,0.0,0.0,0.0,0.0,0.0,0.0,0.0,0.0,0.0,0.0,0.0,0.0,0.0,0.0,0.0,0.0,0.0,0.0,0.0,0.0,0.0,0.0,0.0,0.0,0.0,0.0,0.0,0.0,0.0,0.0,0.0,0.0,0.0,0.0,0.0,0.0,0.0,0.0,0.0,0.0,0.0,0.0,0.0,0.0,0.0,0.0,0.0,0.0,0.0,0.0,0.0,0.0,0.0,0.0,0.0,0.0,0.0,0.0,0.0,0.0,0.0,0.0,0.0,0.0,0.0,0.0,0.0,0.0,0.0,0.0,0.0,0.0,0.0,0.0,0.0,0.0,0.0,0.0,0.0,0.0,0.0,0.0,0.0,0.0,0.0,0.0,0.0,0.0,0.0,0.0,0.0,0.0,0.0,0.0,0.0,0.0,0.0,0.0,0.0,0.0,0.0,0.0,0.0,0.0,0.0,0.0,0.0,0.0,0.0,0.0,0.0,0.0,0.0,0.0,0.0,0.0,0.0,0.0,0.0,0.0,0.0,0.0,0.0,0.0,0.0,0.0,0.0,0.0,0.0,0.0,0.0,0.0,0.0,0.0,0.0,0.0,0.0,0.0,0.0,0.0,0.0,0.0,0.0,0.0,0.0,0.0,0.0,0.0,0.0,0.0,0.0,0.0,0.0,0.0,0.0,0.0,0.0,0.0,0.0,0.0,0.0,0.0,0.0,0.0,0.0,0.0,0.0,0.0,0.0,0.0,0.0,0.0,0.0,0.0,0.0,0.0,0.0,0.0,0.0,0.0,0.0,0.0,0.0,0.0,0.0,0.0,0.0,0.0,0.0,0.0,0.0,0.0,0.0,0.0,0.0,0.0,0.0,0.0,0.0,0.0,0.0,0.0,0.0,0.0,0.0,0.0,0.0,0.0,0.0,0.0,0.0,0.0,0.0,0.0,0.0,0.0,0.0,0.0,0.0,0.0,0.0,0.0,0.0,0.0,0.0,0.0,0.0,0.0,0.0,0.0,0.0,0.0,0.0,0.0,0.0,0.0,0.0,0.0,0.0,0.0,0.0,0.0,0.0,0.0,0.0,0.0,0.0,0.0,0.0,0.0,0.0,0.0,0.0,0.0,0.0,0.0,0.0,0.0,0.0,0.0,0.0,0.0,0.0,0.0,0.0,0.0,0.0,0.0,0.0,0.0,0.0,0.0,0.0,0.0,0.0,0.0,0.0,0.0,0.0,0.0,0.0,0.0,0.0,0.0,0.0,0.0,0.0,0.0,0.0,0.0,0.0,0.0,0.0,0.0,0.0,0.0,0.0,0.0,0.0,0.0,0.0,0.0,0.0,3.8341,0.0,0.0,0.0,0.0,0.0,0.0,0.0,0.0,0.0,0.0,0.0,0.0,0.0,0.0,0.0,0.0,0.0,0.0,0.0,0.0,0.0,0.0,0.0,0.0,2.6203,2.6203,2.6203,2.5872,0.0,0.0,0.0,0.0,0.0,0.0,0.0,0.0,0.0,2.5773,2.7263,2.7632,2.8677,3.0189,2.9676,2.9264,2.8965,0.0,0.0,0.0,0.0,0.0,0.0,0.0,0.0,0.0,0.0,0.0,0.0,0.0,0.0,0.0,0.0,0.0,0.0,0.0,0.0,0.0,0.0,0.0,0.0,0.0,0.0,0.0,0.0,0.0,0.0,0.0,0.0,0.0,0.0,0.0,0.0,0.0,0.0,0.0,0.0,0.0,0.0,0.0,0.0,0.0,0.0,0.0,0.0,0.0,0.0,0.0,0.0,0.0,0.0,0.0,0.0,0.0,0.0,0.0,0.0,0.0,0.0,0.0,0.0,0.0,0.0,0.0,0.0,0.0,0.0,0.0,3.8597,0.0,0.0,0.0,0.0,0.0,0.0,0.0,0.0,0.0,0.0,0.0,0.0,0.0,0.0,0.0,0.0,0.0,0.0,0.0,0.0,0.0,2.6137,2.6369,2.6402,2.6435,2.6568,2.6601,2.6336,2.5706,2.627,0.0,0.0,0.0,0.0,2.5673,2.627,2.7296,2.8793,2.9876,3.0757,3.1515,3.2593,3.215,3.0309,2.953,0.0,0.0,0.0,0.0,0.0,0.0,0.0,0.0,0.0,0.0,0.0,0.0,0.0,0.0,0.0,0.0,0.0,0.0,0.0,0.0,0.0,0.0,0.0,0.0,0.0,0.0,0.0,0.0,0.0,0.0,0.0,0.0,0.0,0.0,0.0,0.0,0.0,0.0,0.0,0.0,0.0,0.0,0.0,0.0,0.0,0.0,0.0,0.0,0.0,0.0,0.0,0.0,0.0,0.0,0.0,0.0,0.0,0.0,0.0,0.0,0.0,0.0,0.0,4.1762,4.2268,4.2631,4.3186,4.3656,4.3834,4.1001,3.9729,3.9654,3.8986,0.0,0.0,0.0,0.0,0.0,0.0,0.0,0.0,0.0,0.0,0.0,0.0,0.0,0.0,0.0,0.0,0.0,0.0,0.0,2.574,2.7035,2.7168,2.7433,2.8025,2.8092,2.8058,2.7959,2.8063,0.0,0.0,0.0,2.7959,2.7959,2.8058,2.8865,3.0409,3.257,3.365,3.3795,3.3829,3.3673,3.3373,3.2552,3.1404,3.0245,0.0,0.0,0.0,0.0,0.0,0.0,0.0,0.0,0.0,0.0,0.0,0.0,0.0,0.0,0.0,0.0,0.0,0.0,0.0,0.0,0.0,0.0,0.0,0.0,0.0,0.0,0.0,0.0,0.0,0.0,0.0,0.0,0.0,0.0,0.0,0.0,0.0,0.0,0.0,0.0,0.0,3.5489,3.6148,0.0,0.0,0.0,0.0,0.0,0.0,0.0,0.0,0.0,0.0,0.0,0.0,0.0,4.0047,4.1163,4.169,4.2222,4.2698,4.3367,4.3745,4.3833,4.392,4.3921,4.395,4.2621,0.0,4.1657,4.0989,0.0,0.0,0.0,0.0,0.0,0.0,0.0,0.0,0.0,0.0,0.0,0.0,0.0,0.0,0.0,0.0,0.0,0.0,0.0,0.0,0.0,2.7703,2.8139,2.8548,2.8581,2.8543,2.8434,2.8467,0.0,0.0,2.8953,2.8953,2.8953,2.9463,3.0475,3.2026,3.4354,3.5191,3.4789,3.5085,3.5005,3.4605,3.4565,3.3491,3.1735,3.1473,0.0,0.0,0.0,0.0,0.0,0.0,0.0,0.0,0.0,0.0,0.0,0.0,0.0,0.0,0.0,0.0,0.0,0.0,0.0,0.0,0.0,0.0,0.0,0.0,0.0,0.0,0.0,0.0,0.0,0.0,0.0,0.0,0.0,0.0,0.0,0.0,0.0,0.0,0.0,3.537,3.5998,3.7375,3.7225,3.7105,0.0,0.0,0.0,0.0,0.0,0.0,0.0,0.0,0.0,4.1499,4.1695,4.2099,4.2898,4.316,4.3367,4.3573,4.3863,4.4182,4.4501,4.3945,4.3849,4.4072,4.2675,4.2021,4.1854,4.1267,4.0681,4.0065,0.0,0.0,0.0,0.0,3.8082,3.8532,0.0,0.0,0.0,0.0,0.0,0.0,0.0,0.0,0.0,0.0,0.0,0.0,2.7911,2.8477,2.8953,2.9231,2.9269,2.9293,2.9343,2.9343,2.9596,3.0212,3.0245,3.0179,2.998,3.0833,3.2017,3.3606,3.5445,3.6148,3.5733,3.6204,3.6155,3.5623,3.6091,3.5148,3.3259,3.2892,3.2476,3.1913,0.0,0.0,0.0,0.0,0.0,0.0,0.0,0.0,0.0,0.0,0.0,0.0,0.0,0.0,0.0,0.0,0.0,0.0,0.0,0.0,0.0,0.0,0.0,0.0,0.0,0.0,0.0,0.0,0.0,0.0,0.0,0.0,0.0,0.0,0.0,0.0,0.0,3.6357,3.6896,3.8691,3.8332,3.8063,0.0,0.0,0.0,0.0,0.0,0.0,4.104,4.1288,4.1942,4.3107,4.3357,4.3656,4.3979,4.4153,4.4211,4.4211,4.456,4.4937,4.5372,4.4624,4.4478,4.4639,4.2958,4.222,4.2011,4.141,4.1071,4.0881,4.0329,4.0329,4.0491,3.9355,3.9108,3.9336,0.0,0.0,0.0,0.0,0.0,0.0,0.0,0.0,0.0,0.0,0.0,2.7944,2.9343,2.966,3.0001,3.0744,3.0811,3.1031,3.1608,3.1641,3.1898,3.2497,3.2531,3.2199,3.1494,3.233,3.3551,3.4971,3.5804,3.6537,3.7203,3.7086,3.7036,3.7003,3.7036,3.6208,3.4783,3.4783,3.4808,3.46,3.1437,0.0,0.0,0.0,0.0,0.0,0.0,0.0,0.0,0.0,0.0,0.0,0.0,0.0,0.0,0.0,0.0,0.0,0.0,0.0,0.0,0.0,0.0,0.0,0.0,0.0,0.0,0.0,0.0,0.0,0.0,0.0,0.0,0.0,0.0,0.0,0.0,0.0,0.0,4.0127,3.9709,0.0,0.0,0.0,0.0,4.1235,4.1265,4.1756,4.2832,4.268,4.3137,4.4177,4.4093,4.395,4.3979,4.456,4.485,4.485,4.6098,4.6708,4.6737,4.6645,4.6375,4.5929,4.4217,4.3232,4.2813,4.2065,4.1423,4.0935,4.0908,4.0437,3.986,3.8912,3.8903,3.9258,0.0,0.0,0.0,2.6203,2.5607,2.5276,2.574,2.5806,2.6071,2.68,2.804,2.9048,2.9694,3.0644,3.1395,3.1657,3.2176,3.2337,3.1807,3.236,3.2684,3.2707,3.3127,3.3537,3.386,3.4172,3.4805,3.5804,3.7003,3.7719,3.7882,3.8791,3.9222,3.9222,3.9686,3.9056,3.7665,3.6704,3.6075,3.553,3.3953,3.2647,0.0,0.0,0.0,0.0,0.0,0.0,0.0,0.0,0.0,0.0,0.0,0.0,0.0,0.0,0.0,0.0,0.0,0.0,0.0,0.0,0.0,0.0,0.0,0.0,0.0,0.0,0.0,0.0,0.0,0.0,0.0,0.0,0.0,0.0,0.0,0.0,0.0,4.0876,4.0816,0.0,4.1324,4.1773,4.2192,4.2611,4.2455,4.2971,4.4228,4.3956,4.391,4.4294,4.4851,4.4841,4.4152,4.4776,4.4884,4.4581,4.5025,4.5246,4.5246,4.4556,4.4165,4.3948,4.2632,4.2057,4.1788,4.1595,4.1312,4.1158,4.1158,4.1029,4.0721,4.0466,4.0259,4.0253,0.0,0.0,0.0,2.6203,2.5806,2.574,2.6468,2.6568,2.6899,2.7935,2.901,2.9895,3.0509,3.1537,3.2251,3.2521,3.3077,3.3195,3.266,3.3172,3.3451,3.3425,3.3889,3.4565,3.539,3.5424,3.5922,3.6837,3.8118,3.8797,3.8957,4.015,4.0746,4.0746,4.121,4.0878,3.9918,3.899,3.7864,3.6654,3.5589,3.4401,3.308,0.0,0.0,0.0,0.0,0.0,0.0,0.0,0.0,0.0,0.0,0.0,0.0,0.0,0.0,0.0,0.0,0.0,0.0,0.0,0.0,0.0,0.0,0.0,0.0,0.0,0.0,0.0,0.0,0.0,0.0,0.0,0.0,0.0,0.0,0.0,4.0487,4.1564,4.1713,4.1803,4.2013,4.2432,4.2772,4.2871,4.2981,4.3375,4.4053,4.418,4.4153,4.4296,4.4989,4.5053,4.4263,4.4678,4.4771,4.4354,4.4672,4.4753,4.4753,4.4063,4.3677,4.344,4.2516,4.203,4.1882,4.1882,4.1882,4.1856,4.148,4.1329,4.1329,4.1329,4.1222,4.1006,0.0,0.0,2.6277,2.6203,2.6203,2.6435,2.7201,2.7334,2.7902,2.9376,2.9761,3.0409,3.1941,3.2266,3.2611,3.3389,3.3457,3.3667,3.4186,3.4208,3.4485,3.4949,3.4949,3.5313,3.6042,3.6108,3.6804,3.8295,3.899,3.9719,4.0415,4.111,4.1442,4.1442,4.1475,4.1475,4.1442,4.1442,4.0216,3.8143,3.6214,3.5389,3.5091,0.0,0.0,0.0,0.0,0.0,0.0,0.0,0.0,0.0,0.0,0.0,0.0,0.0,0.0,0.0,0.0,0.0,0.0,0.0,0.0,0.0,0.0,0.0,0.0,0.0,0.0,0.0,0.0,0.0,0.0,0.0,0.0,0.0,4.0457,4.0995,4.1654,4.2312,4.2402,4.2641,4.319,4.325,4.293,4.2005,4.2769,4.3012,4.2424,4.3304,4.3969,4.4125,4.4327,4.4354,4.4354,4.4381,4.4408,4.4361,4.5029,4.5403,4.543,4.543,4.5128,4.4696,4.404,4.3496,4.3037,4.3037,4.3037,4.2911,4.1831,4.1379,4.1379,4.1379,4.1272,4.1297,2.6589,2.652,2.6382,2.6277,2.6277,2.6474,2.7201,2.7802,2.8505,2.9476,3.0202,3.1026,3.2008,3.2705,3.3347,3.4004,3.4631,3.4745,3.4096,3.5144,3.5985,3.6473,3.6506,3.6837,3.7599,3.8096,3.8825,3.9785,4.0481,4.0945,4.1143,4.1872,4.2204,4.2237,4.2767,4.2734,4.2204,4.2204,4.1574,4.0415,3.8851,3.7281,3.5837,0.0,0.0,0.0,0.0,0.0,0.0,0.0,0.0,0.0,0.0,0.0,0.0,0.0,0.0,0.0,0.0,0.0,0.0,0.0,0.0,0.0,0.0,0.0,0.0,0.0,0.0,0.0,0.0,0.0,0.0,0.0,4.0524,4.1077,4.1727,4.1983,4.2079,4.2063,4.2663,4.2613,4.142,4.1976,4.2179,4.1767,4.1682,4.21,4.3101,4.3238,4.3396,4.3709,4.4176,4.4077,4.3282,4.3677,4.3883,4.3976,4.413,4.4412,4.4796,4.4796,4.4786,4.4599,4.4446,4.4244,4.4166,4.4166,4.4166,4.4066,4.2961,4.2424,4.2202,4.2202,4.209,4.1755,2.6623,2.6589,2.652,2.6382,2.6382,2.6714,2.7711,2.8281,2.8953,3.0028,3.065,3.1402,3.2529,3.3111,3.3786,3.479,3.5296,3.5542,3.5465,3.6552,3.7153,3.7102,3.74,3.793,3.8626,3.9355,4.0083,4.0812,4.1541,4.1872,4.1905,4.2634,4.2965,4.2999,4.3429,4.3396,4.2965,4.2965,4.2568,4.1806,4.0978,3.9556,3.7883,3.7297,3.6476,3.5518,3.4581,3.4013,3.3583,3.3339,0.0,0.0,0.0,0.0,0.0,0.0,0.0,0.0,0.0,0.0,0.0,0.0,0.0,0.0,0.0,0.0,0.0,0.0,0.0,0.0,0.0,0.0,0.0,0.0,4.1105,4.1424,4.1587,4.2019,4.2056,4.1504,4.2222,4.2222,4.0774,4.1284,4.1596,4.0974,4.1224,4.1763,4.2453,4.2706,4.2851,4.3238,4.3782,4.3828,4.3208,4.3771,4.4051,4.4141,4.4141,4.4317,4.4618,4.4618,4.4618,4.4618,4.4618,4.4618,4.4618,4.4618,4.4618,4.4568,0.0,0.0,0.0,0.0,4.297,4.2569,2.6623,2.6623,2.6589,2.652,2.6587,2.7123,2.8498,2.88,2.9374,3.079,3.1032,3.1611,3.3254,3.3423,3.3998,3.5487,3.5633,3.6202,3.7568,3.8018,3.7963,3.7367,3.8063,3.8758,3.9388,4.0216,4.0912,4.1541,4.227,4.2634,4.2667,4.333,4.3628,4.3628,4.3628,4.3628,4.3628,4.3628,4.323,4.2634,4.2634,4.1773,4.0426,3.9797,3.8756,3.7487,3.6366,3.581,3.5647,3.5019,0.0,0.0,0.0,0.0,0.0,0.0,0.0,0.0,0.0,0.0,0.0,0.0,0.0,0.0,0.0,0.0,0.0,0.0,0.0,0.0,0.0,0.0,0.0,0.0,4.1488,4.1478,4.0603,4.1198,4.1451,4.0518,4.1367,4.148,4.0457,4.1016,4.1052,4.015,4.1178,4.1677,4.1285,0.0,0.0,0.0,0.0,4.389,4.389,4.4367,4.4644,4.4719,4.4719,4.4744,4.4819,4.4819,4.4819,4.4819,4.4819,4.4819,4.4819,4.4819,4.4819,4.4794,4.4669,4.4502,4.4502,4.4294,4.3763,4.3342,2.6657,2.6657,2.6657,2.6589,2.7059,2.7765,2.8565,2.924,2.9984,3.0897,3.1112,3.1725,3.3254,3.3423,3.3998,3.5487,3.6197,3.7118,3.8454,3.8438,3.855,3.9016,3.9607,4.0017,4.015,4.1442,4.217,4.2303,4.3065,4.3396,4.3429,4.3562,4.3628,4.3628,4.3628,4.3628,4.3628,4.3628,4.3529,4.3396,4.3396,4.2535,4.1153,4.0489,4.0033,3.9715,3.8901,3.8182,3.7679,3.7652,3.6875,3.586,3.5389,3.4838,0.0,0.0,0.0,0.0,0.0,0.0,0.0,0.0,0.0,0.0,0.0,0.0,0.0,0.0,0.0,0.0,0.0,0.0,0.0,4.1105,4.0881,4.0518,3.9651,4.009,4.0199,3.953,4.0705,4.0924,3.9241,4.0329,4.068,3.9796,4.0746,4.1603,4.1853,4.296,4.3713,4.4282,4.4407,4.4468,4.4468,4.4568,4.4844,4.5321,0.0,0.0,4.5974,4.5974,4.5974,4.5974,4.5974,4.5974,4.5974,4.5974,4.5974,4.5899,4.4761,4.4294,4.4178,4.3919,4.361,4.3159,2.6691,2.6691,2.6691,2.6657,2.7265,2.8007,2.8747,2.9488,3.0268,3.101,3.1455,3.2036,3.2747,3.3491,3.4404,3.552,3.73,3.8284,3.8136,3.9075,3.9773,4.0141,4.0454,4.0933,4.1554,4.2285,4.2759,4.3065,4.3462,4.3628,4.3628,4.3628,4.3628,4.3628,4.3628,4.3429,4.3098,4.3462,4.3396,4.3098,4.3462,4.3197,4.2444,4.215,4.1743,4.1298,4.0259,3.9658,3.9211,3.8583,3.792,3.7302,3.701,3.6471,3.5878,0.0,0.0,0.0,0.0,0.0,0.0,0.0,0.0,0.0,0.0,0.0,0.0,0.0,0.0,4.1185,4.1214,0.0,4.1028,4.0182,4.0229,4.0028,3.9039,3.9822,4.0167,3.9028,4.0305,4.0686,3.9249,4.0129,4.0579,4.0435,4.123,4.2033,4.2951,4.3492,4.3992,4.4593,4.4895,4.5045,4.5045,4.5321,4.5623,4.5899,4.5899,4.605,4.6301,4.6301,4.6301,4.6301,4.6301,4.6301,4.6276,4.6024,4.5723,4.5447,4.5053,4.501,4.5235,4.4734,4.4203,4.3839,2.6825,2.686,2.6928,2.6928,2.7537,2.8315,2.9093,2.9837,3.0548,3.1123,3.1698,3.2104,3.2273,3.3491,3.4709,3.5757,3.8096,3.9009,3.7868,3.9428,4.0534,4.0836,4.0916,4.1598,4.2822,4.2989,4.3265,4.3687,4.3687,4.3628,4.3628,4.3628,4.3628,4.3628,4.3628,4.3297,4.2767,4.3363,4.3297,4.28,4.3396,4.3529,4.3396,4.3396,4.2954,4.2168,4.0769,4.0229,4.0039,3.8948,3.858,3.8549,3.8427,3.8061,3.7584,3.7584,3.7494,0.0,0.0,0.0,0.0,0.0,0.0,0.0,0.0,4.1085,4.1564,4.1335,4.1685,4.1863,4.1302,4.0801,4.034,3.9727,4.0006,3.9957,3.8961,4.0,4.0522,3.9354,4.016,4.0615,4.0009,4.0435,4.1063,4.1768,4.2241,4.3003,4.413,4.4156,4.4367,4.4945,4.5397,4.5648,4.5648,4.6075,4.6301,4.6301,4.6301,4.6301,4.6301,4.6301,4.6301,4.6301,4.6301,4.6301,4.6276,4.5723,4.5221,4.4819,4.5171,4.5598,4.588,4.5622,4.5157,4.4522,2.7223,2.7436,2.7706,2.7706,2.8349,2.9127,2.9871,3.0615,3.1089,3.119,3.1258,3.1562,3.2246,3.3017,3.437,3.6468,3.7584,3.8314,3.8787,3.8958,3.9597,4.0927,4.1473,4.2155,4.2959,4.3628,4.3972,4.4039,4.3956,4.3898,4.3839,4.3687,4.3628,4.3628,4.3628,4.3562,4.3495,4.3595,4.3562,4.3495,4.3595,4.323,4.2634,4.2634,4.2215,4.1399,4.0039,3.9516,3.9526,3.9313,3.9272,3.9152,3.8592,3.8342,3.8272,3.8272,3.7853,3.7524,3.8123,3.8721,3.9499,4.0726,4.1115,4.1175,0.0,4.1773,4.2067,4.1171,4.0904,4.0999,4.1778,4.0938,4.0384,4.1095,4.1086,4.0575,3.959,4.0062,4.0586,4.0958,4.069,4.0638,4.1063,4.1638,4.2422,4.352,4.3877,4.4377,4.5283,4.5552,4.5759,4.61,4.6175,4.6225,4.6225,4.6276,4.6301,4.6301,4.6301,4.6301,4.6301,4.6301,4.6301,4.6301,4.6301,4.6301,4.6276,4.5723,4.5447,4.5347,4.4895,4.4769,4.4945,4.583,4.5768,4.5232,2.8625,2.8664,2.8869,2.9096,2.9431,2.9736,3.0074,3.0717,3.119,3.119,3.1562,3.1765,3.1664,3.3085,3.4404,3.5385,3.6975,3.8024,3.8328,3.8719,3.975,4.1692,4.1991,4.2644,4.3709,4.4044,4.4212,4.4097,4.3956,4.3898,4.3898,4.3687,4.3628,4.3628,4.3628,4.3396,4.2999,4.3429,4.3363,4.3032,4.3462,4.3429,4.3105,4.2714,4.2388,4.1917,4.0458,4.0276,0.0,3.9696,3.9409,3.9379,3.908,3.899,3.899,3.899,3.908,3.929,3.9948,4.0337,4.0786,4.1713,4.1953,4.2043,4.2432,4.2731,4.2951,4.2909,4.2324,4.1938,4.2252,4.1363,4.0556,0.0,4.0535,4.0658,4.0638,4.1089,4.1664,4.2239,4.2082,4.203,4.2291,4.2814,4.3493,4.4304,4.4889,4.5546,4.6001,4.6239,4.6433,4.6301,4.6301,4.6301,4.6301,4.6301,4.6301,4.6301,4.6301,4.6301,4.6301,4.6301,4.6301,4.6301,4.6301,4.6125,4.5824,4.5573,4.5296,4.4995,4.5095,4.5121,4.5146,4.506,4.4873,4.4635,2.9725,2.9729,2.9867,3.0082,3.0277,3.0412,3.0412,3.0852,3.119,3.119,3.1664,3.1867,3.1529,3.3119,3.4269,3.4472,3.6197,3.7449,3.7889,3.8396,3.9681,4.188,4.2185,4.2841,4.4013,4.4249,4.4327,4.4212,4.4131,4.4015,4.3956,4.3747,4.3628,4.3628,4.3628,4.333,4.2866,4.3396,4.3297,4.2866,4.3396,4.3495,4.3238,4.2757,4.248,4.2104,4.0893,4.0755,4.1091,4.002,3.9559,3.9439,3.9619,3.9679,3.9738,3.9918,4.0546,4.1265,4.1564,4.1803,4.2043,4.2521,4.2641,4.2761,4.324,4.3329,4.3429,4.3842,4.3353,4.2768,4.2523,4.1782,4.0992,4.0288,4.0605,4.1063,4.1481,4.1899,4.25,4.3389,4.3363,4.3441,4.3938,4.4068,4.4487,4.5375,4.5875,4.6372,4.659,4.6696,4.6686,4.6301,4.6301,4.6301,4.6301,4.6301,4.6301,4.6301,4.6301,4.6301,4.6301,4.6301,4.6301,4.6301,4.6301,4.6075,4.5698,4.5547,4.5321,4.5121,4.5372,4.5573,4.5673,4.5035,4.4867,4.4754,3.0124,3.0315,3.0451,3.0149,3.0683,3.1157,3.1157,3.119,3.119,3.119,3.1224,3.1495,3.2171,3.2949,3.3728,3.4438,3.5216,3.6332,3.7821,3.7922,3.8937,4.1136,4.1914,4.2658,4.3436,4.4181,4.4587,4.4587,4.4384,4.4212,4.4097,4.3956,4.378,4.3628,4.3628,4.3628,4.3595,4.3628,4.3628,4.3595,4.3628,4.3197,4.2535,4.2477,4.2124,4.1429,4.0743,4.0516,4.0501,4.042,3.9948,3.9529,4.0157,4.0367,4.0487,4.1145,4.2252,4.312,4.2491,4.2821,4.3329,4.3299,4.3299,4.3299,4.3329,4.3329,4.3269,4.3069,4.3018,4.2882,4.2552,4.2141,4.1869,4.1802,4.1921,4.2108,4.2134,4.216,4.2788,4.4487,4.4173,4.4513,0.0,4.5349,4.5401,4.7127,4.6965,4.6966,4.7154,4.6874,4.6686,4.6301,4.6301,4.6301,4.6301,4.6301,4.6301,4.6301,4.6301,4.6301,4.6301,4.6301,4.6301,4.6301,4.6301,4.6301,4.625,4.5698,4.5799,4.62,4.5698,4.5824,4.6276,4.6276,4.6359,4.6563,3.1955,3.1804,3.1603,3.1205,3.1181,3.119,3.119,3.119,3.119,3.119,3.119,0.0,0.0,0.0,0.0,0.0,3.4438,3.552,3.7077,3.7618,3.8667,4.0392,4.117,4.2151,4.3403,4.3673,4.4079,4.4587,4.4384,4.4236,4.427,4.4097,4.3956,4.3839,4.3839,4.3687,4.3628,4.3628,4.3628,4.3628,4.3628,4.3462,4.3238,4.3215,4.2837,4.2171,0.0,4.1494,4.1014,4.0601,4.0546,4.0696,4.0457,4.0995,4.1833,4.2491,4.3,4.3299,4.306,4.318,4.3359,4.3329,4.3329,4.3329,4.3329,4.3329,4.3549,4.4377,4.435,4.4238,4.4301,4.3629,4.3057,4.2664,4.2023,4.2004,4.3154,4.331,4.3807,4.5166,4.548,0.0,0.0,0.0,0.0,4.7283,4.756,4.7639,4.7205,4.7087,4.6874,4.6301,4.6301,4.6301,4.6301,4.6301,4.6301,4.6301,4.6301,4.6301,4.6301,4.6301,4.6301,4.6301,4.6301,4.6527,4.6853,4.6652,4.6903,4.7355,4.7154,4.7205,4.738,4.738,4.7608,4.7808,0.0,3.2535,3.2162,3.1768,3.1428,0.0,0.0,0.0,0.0,0.0,0.0,0.0,0.0,0.0,0.0,0.0,0.0,3.4878,3.6671,3.7483,3.8464,3.9648,4.0663,4.1644,4.2591,4.2895,4.3403,4.4181,4.4035,4.4114,4.4293,4.4212,4.4097,4.3956,4.3956,4.3864,4.3805,4.3747,4.3853,4.4052,4.3727,4.3581,4.36,4.3327,4.2655,0.0,4.1992,4.1617,4.1055,4.1055,4.1235,4.1354,4.1145,4.1683,4.2551,4.3419,4.3688,4.3629,4.3389,4.3509,4.3629,4.3389,4.3329,4.3389,4.3629,4.3688,4.4137,4.5693,4.5809,4.5665,4.5514,4.4997,4.433,4.3415,4.2892,4.2997,4.4304,4.4487,4.4931,4.6107,4.6369,4.6787,0.0,0.0,0.0,4.7623,4.7989,4.7938,4.7442,4.7324,4.7112,4.6566,4.6446,4.6421,4.6301,4.6301,4.6301,4.6301,4.6301,4.6301,4.6301,4.6301,4.6301,4.6301,4.6301,4.6627,4.7129,4.7129,4.7556,4.8209,4.8209,4.8335,4.8535,4.8736,4.9038,4.9138,0.0,0.0,3.2162,0.0,0.0,0.0,0.0,0.0,0.0,0.0,0.0,0.0,0.0,0.0,0.0,0.0,0.0,0.0,3.6569,3.7415,3.8159,3.8903,4.0324,4.1136,4.1204,4.188,4.2625,4.3369,4.3369,4.363,4.4259,4.4259,4.4236,4.4097,4.4097,4.4097,4.4039,4.3956,4.4264,4.477,4.3893,4.36,4.3524,4.2781,4.1656,4.0509,4.1115,4.0891,4.0546,4.1833,4.1893,4.1564,4.2252,4.2491,4.2761,4.3958,4.4317,4.4167,4.3509,4.3778,4.4107,4.3539,4.3389,4.3569,4.4227,4.4377,4.4915,4.6774,4.7193,4.6963,4.6203,4.6041,4.5575,4.4256,4.4382,4.4905,4.5584,4.5663,4.6081,4.7205,4.6891,4.6996,4.8068,4.8172,0.0,4.8172,0.0,4.8055,4.7703,4.7703,4.7468,4.6806,4.6806,4.6686,4.6301,4.6301,4.6301,4.6301,4.6301,4.6326,4.6351,4.6326,4.6351,4.6401,4.6351,4.6677,4.723,4.723,4.7857,4.8862,4.8862,4.9188,4.9741,5.0268,5.0469,5.0318,0.0,0.0,0.0,0.0,0.0,0.0,0.0,0.0,0.0,0.0,0.0,0.0,0.0,0.0,0.0,0.0,0.0,0.0,3.5825,3.6637,3.7415,3.8159,3.9073,4.0087,4.117,4.1373,4.1847,4.2591,4.2591,4.2963,4.3652,4.3652,4.3788,4.4097,4.4097,4.3981,4.3747,4.3687,4.3787,4.3893,4.3178,4.2902,4.2781,4.1522,4.0479,3.9825,4.0455,4.0214,3.9798,4.0636,4.1444,4.2312,4.3449,4.4167,4.4526,4.4347,4.4317,4.4167,4.3509,4.3449,4.3658,4.3988,4.4077,4.4227,4.4885,4.5035,4.5138,4.5346,4.5815,4.5883,4.5035,4.4957,4.5071,4.5148,4.4565,4.4591,4.6055,4.6264,4.6525,4.7257,4.7571,4.7858,4.8146,4.8172,0.0,0.0,4.8172,4.8055,4.7703,4.7703,4.7468,4.6806,4.6806,4.6686,4.6301,4.6301,4.6301,4.6301,4.6301,4.6527,4.6903,4.6502,4.6753,4.7481,4.7104,4.7481,4.836,4.836,4.9012,4.9992,4.9992,5.0343,5.087,5.0996,5.1071,5.1021,0.0,0.0,0.0,0.0,0.0,0.0,0.0,0.0,0.0,0.0,0.0,0.0,0.0,0.0,0.0,0.0,0.0,0.0,0.0,3.6332,3.6975,3.7381,3.843,3.9546,4.0696,4.1035,4.1711,4.2794,4.2794,4.3166,4.3944,4.3944,4.3867,4.3765,4.3709,4.3595,4.3423,4.3281,4.3588,0.0,0.0,4.271,4.2013,4.0915,3.9905,3.9039,3.9373,3.9649,4.0008,4.0935,4.2132,4.3359,4.4077,4.4556,4.4796,4.4436,4.4107,4.3808,4.3419,4.3539,4.3838,4.4227,4.4526,4.4915,4.5603,4.5753,4.5824,4.6226,4.6609,4.6774,4.6377,4.594,4.5758,4.6195,4.5573,4.5454,4.6682,4.7074,4.7336,4.7675,4.7989,4.8172,4.8172,4.8172,4.8172,0.0,4.8172,4.8055,4.7938,4.7938,4.7703,4.7257,4.7138,4.7019,4.6541,4.6301,4.6301,4.6301,4.6301,4.6476,4.6778,4.6702,4.7004,4.7556,4.7506,4.8109,4.9138,4.9138,4.9791,5.0795,5.0795,5.0996,5.1322,5.1548,5.1649,5.1674,0.0,0.0,0.0,0.0,0.0,0.0,0.0,0.0,0.0,0.0,3.2144,3.2442,3.2442,3.3017,0.0,0.0,0.0,0.0,0.0,0.0,3.6671,3.6772,3.8024,3.9073,3.9918,4.0663,4.1745,4.3132,4.3234,4.3673,4.4418,4.4418,4.4113,4.3517,4.3305,4.3182,4.316,4.2779,4.3365,4.4404,4.3443,4.2418,4.1341,0.0,3.9451,3.8521,3.8572,3.9391,4.0696,4.1863,4.315,4.4317,4.4407,4.4496,4.4556,4.4466,4.4047,4.3599,4.3688,4.4077,4.4496,4.4676,4.5065,4.5603,4.6292,4.6441,4.6685,4.7732,4.797,4.803,4.8159,4.7458,4.6946,4.7261,4.6997,4.6882,4.746,4.7922,4.8172,4.8172,4.8172,4.8172,4.8172,4.8172,4.8172,4.8172,4.8172,4.8172,4.8172,4.8172,4.8055,4.7703,4.7586,4.7349,4.6806,4.6446,4.6301,4.6301,4.6301,4.6351,4.6426,4.6903,4.7255,4.7481,4.7857,4.8711,4.9816,4.9741,5.0368,5.1398,5.1398,5.1448,5.1548,5.2026,5.2226,5.2277,0.0,0.0,0.0,0.0,0.0,0.0,0.0,0.0,0.0,0.0,3.3609,3.322,0.0,0.0,0.0,0.0,0.0,0.0,0.0,0.0,0.0,3.6738,3.7043,3.7787,3.914,3.9884,4.0696,4.1576,4.2185,4.2861,4.3606,4.3606,4.3821,4.4148,4.3485,4.316,4.3015,4.2222,4.2066,4.2152,4.0655,4.0318,4.0437,3.8591,0.0,0.0,3.9247,4.0163,4.1235,4.1474,4.2791,4.4407,4.4945,4.5514,4.5873,4.5304,4.5035,4.5065,4.5663,4.5484,4.5394,4.6501,4.6471,4.6322,4.698,4.713,4.6929,4.6372,4.6223,4.6185,4.5884,4.6067,4.6602,4.7559,4.7752,4.8053,4.8673,4.8382,4.8172,4.8172,4.8172,4.8172,4.8172,4.8172,0.0,0.0,4.8172,4.8172,4.8172,4.8172,4.8055,4.7703,4.7257,4.6925,4.6806,4.6446,4.6301,4.6301,4.6301,4.6552,4.7004,4.7104,4.7883,4.9138,4.8786,0.0,5.0946,5.0469,5.0946,5.1975,5.1975,5.2251,5.2653,5.2754,5.2779,5.2804,0.0,0.0,0.0,0.0,0.0,0.0,0.0,3.4768,3.5111,3.631,3.6185,3.563,3.4857,3.4703,3.4796,0.0,0.0,0.0,0.0,0.0,0.0,3.6163,3.6569,3.7483,3.8971,3.9715,4.0663,4.1779,0.0,4.2489,4.2828,4.2828,4.2774,4.2686,4.226,4.2017,4.193,4.1321,4.1366,4.1587,4.0802,4.0221,3.9806,3.8826,0.0,0.0,3.9751,4.0385,4.0965,4.1654,4.297,4.4377,4.4676,4.5484,4.6202,4.5514,4.5304,4.5454,4.6142,4.6082,4.6082,4.707,4.707,4.692,4.7249,4.7309,4.7106,4.6638,4.655,4.6638,4.6832,4.6627,4.6852,4.8109,4.807,4.8075,4.8463,4.8584,4.8524,4.8262,4.8172,4.8172,4.8172,4.8172,4.8172,4.8172,4.8172,4.8172,4.8172,4.8172,4.8172,4.7938,4.7468,4.7257,4.7257,4.678,4.6566,4.6566,4.6421,4.6602,4.7154,4.7732,4.841,4.9213,4.9816,5.0544,5.1272,5.1297,5.1774,5.2528,5.2528,5.2703,5.2929,5.2929,5.2929,5.2929,0.0,0.0,0.0,0.0,0.0,0.0,0.0,3.6429,3.6717,3.8206,3.8504,3.8105,3.6918,3.6331,3.6004,0.0,0.0,0.0,0.0,0.0,0.0,0.0,0.0,0.0,3.8734,0.0,0.0,4.2049,4.2219,0.0,0.0,0.0,0.0,0.0,4.1167,4.1047,4.0995,4.0648,4.0754,0.0,0.0,4.0301,3.9527,0.0,0.0,0.0,0.0,4.0751,4.0756,4.188,4.3289,4.4526,4.4526,4.5454,4.6441,4.5873,4.5723,4.5873,4.6561,4.6651,4.6681,4.7369,4.7429,4.7309,4.7309,4.7309,4.7309,4.7309,4.7309,4.7459,4.7967,4.7524,4.742,4.853,4.8505,4.8341,4.8807,4.9118,4.9193,4.8673,4.8611,4.8521,4.8172,4.8172,0.0,4.8172,4.8172,4.8172,4.8172,4.8172,4.8172,4.8172,4.7821,4.7703,4.7703,4.7138,4.6806,4.6806,4.6547,4.6778,4.733,4.8435,4.9088,4.9389,5.0695,5.1423,5.1649,5.1975,5.2427,5.2929,5.2929,5.2929,5.2929,5.2929,5.2929,5.2929,0.0,0.0,0.0,0.0,0.0,0.0,0.0,3.7165,3.7905,3.9132,3.9431,3.9422,3.9376,3.79,3.6582,0.0,0.0,0.0,0.0,0.0,0.0,0.0,0.0,0.0,0.0,0.0,0.0,4.1305,4.1982,0.0,0.0,0.0,0.0,0.0,0.0,4.1204,4.1118,4.0288,0.0,0.0,0.0,0.0,0.0,0.0,0.0,0.0,0.0,4.1488,4.137,4.1671,4.3307,4.5214,4.5214,4.6142,4.7219,4.713,4.713,4.7249,4.7938,4.7668,4.7369,4.8027,4.7758,4.7309,4.7309,4.7309,4.7309,4.7309,4.7309,4.7339,4.7369,4.779,4.8417,4.9134,4.9303,4.975,5.102,5.0804,5.0351,4.9847,4.9702,4.9388,4.8289,4.8172,4.8172,4.8172,4.8172,4.8172,4.8172,4.8172,4.8172,4.8172,4.7821,4.7703,4.7703,4.7138,4.6806,4.6806,4.695,4.733,4.7883,4.9012,5.0067,5.1046,5.1222,5.185,0.0,5.2302,5.2427,5.2929,5.2929,5.2929,5.2929,5.2929,5.2929,5.2929,0.0,0.0,0.0,0.0,0.0,0.0,3.8148,3.8461,3.9103,4.0645,4.122,4.136,4.1125,3.9959,3.8504,3.674,0.0,0.0,0.0,0.0,0.0,0.0,0.0,0.0,0.0,0.0,3.9783,4.0527,4.0832,0.0,0.0,0.0,0.0,0.0,0.0,4.0527,4.0493,4.007,0.0,0.0,0.0,0.0,0.0,0.0,0.0,0.0,0.0,0.0,4.0528,4.1445,4.2767,4.4257,4.5035,4.6232,4.7309,4.7309,4.7309,4.7459,4.8117,4.7818,4.7459,4.8117,4.7788,4.7309,4.7309,4.7309,4.7309,4.7309,4.7309,4.7309,4.7309,4.7519,4.7908,4.8566,4.907,4.9757,5.0714,5.1062,5.1108,5.1016,5.035,4.9702,0.0,0.0,4.8172,4.8172,4.8512,4.8721,4.8721,4.8381,4.8172,4.8172,4.8055,4.8055,4.8055,4.7586,4.7529,4.7889,4.7758,4.8252,4.9216,4.9999,5.065,5.1322,5.1975,5.2327,0.0,5.2553,5.2729,5.2929,5.2929,5.2929,5.2929,5.2929,5.2929,5.2929,0.0,0.0,0.0,0.0,0.0,3.7112,3.9349,3.9545,4.0039,4.165,4.2358,4.259,4.2263,4.1319,4.0062,3.8311,3.6956,0.0,0.0,0.0,0.0,0.0,0.0,0.0,0.0,0.0,3.958,4.0087,4.029,4.0426,0.0,0.0,4.0527,4.0696,0.0,0.0,0.0,0.0,0.0,0.0,0.0,0.0,0.0,0.0,0.0,0.0,0.0,0.0,0.0,0.0,0.0,4.3728,4.5049,4.6251,4.7242,4.7249,4.7309,4.7399,4.7878,4.7668,4.7429,4.7878,4.7638,4.7309,4.7309,4.7309,4.7309,4.7309,4.7309,4.7309,4.7309,4.7309,4.7519,4.8177,4.8835,4.9608,5.0535,5.1403,5.2093,5.2181,5.1294,5.0512,0.0,4.9107,4.846,4.846,4.8982,4.9322,4.9322,4.893,4.8695,4.8695,4.8695,4.8695,4.8695,4.8314,4.8402,4.8816,4.8788,4.9439,5.0383,5.1119,5.1488,5.18,5.2578,5.2703,0.0,5.2779,5.2929,5.2929,5.2929,5.2929,5.2929,5.2929,5.2929,5.2929,0.0,0.0,0.0,0.0,0.0,0.0,3.9805,4.0201,4.0702,4.1843,4.2423,4.2682,4.2682,4.1603,4.0823,4.068,3.8448,0.0,0.0,0.0,0.0,0.0,0.0,0.0,0.0,0.0,4.0054,4.0087,4.0832,4.1204,4.1204,4.1204,4.1576,4.2185,0.0,0.0,0.0,0.0,0.0,0.0,0.0,0.0,0.0,0.0,0.0,0.0,0.0,0.0,0.0,0.0,0.0,0.0,0.0,4.6477,4.7061,4.7216,4.7309,4.7309,4.7309,4.7309,4.7309,4.7309,4.7309,4.7309,4.7309,4.7309,4.7309,4.7309,4.7309,4.7309,4.7309,4.7309,4.7519,4.8177,4.8835,4.9733,5.105,5.2366,5.3258,5.3373,5.2864,5.2044,5.1026,4.9834,4.9087,4.9087,4.9584,0.0,4.9871,4.9871,4.9871,4.9871,4.9871,4.9871,4.9871,4.9507,4.936,4.9386,5.0301,5.0768,5.0966,5.2083,5.2624,5.2904,5.2929,5.2929,0.0,5.2929,5.2929,5.2929,5.2929,5.2929,5.2929,5.2929,5.2929,5.2929,0.0,0.0,0.0,0.0,0.0,0.0,0.0,4.0058,4.0852,4.1925,4.269,4.3182,4.343,4.2367,4.1581,4.1435,3.9294,0.0,0.0,0.0,0.0,0.0,0.0,0.0,0.0,4.0934,4.1494,4.2547,4.2785,4.2867,4.2726,4.3267,4.3335,4.3031,4.2016,4.2016,0.0,0.0,0.0,0.0,0.0,0.0,0.0,0.0,0.0,0.0,0.0,0.0,0.0,0.0,0.0,0.0,0.0,0.0,0.0,4.7613,4.7624,4.7482,4.7309,4.7309,4.7309,4.7309,4.7309,4.7309,4.7309,4.7309,4.7309,4.7309,4.7309,4.7309,4.7309,4.7309,4.7369,4.7578,4.8536,4.9733,5.102,5.2336,5.3258,5.3373,5.1843,5.0476,0.0,0.0,4.9244,4.961,5.0185,5.0498,5.0498,5.0864,5.0707,4.9923,4.9897,4.9897,4.9897,5.0167,5.0558,5.0923,5.1606,5.2233,5.277,5.313,5.335,5.3341,5.3341,5.3204,5.2929,5.2929,5.2929,5.2929,5.2929,5.2929,5.2929,5.2929,5.2929,5.2929,0.0,0.0,0.0,0.0,0.0,0.0,0.0,3.9938,4.0742,4.2008,4.2342,4.2725,4.3562,4.2405,4.1664,4.1877,4.0328,0.0,0.0,0.0,0.0,0.0,0.0,0.0,4.2023,4.2245,4.2618,4.3246,4.3824,4.3905,4.3436,4.391,4.4181,4.4248,4.32,4.3301,0.0,0.0,0.0,0.0,0.0,0.0,4.435,0.0,0.0,0.0,0.0,0.0,0.0,0.0,0.0,0.0,0.0,0.0,0.0,0.0,4.7964,4.7794,4.7482,4.7396,4.7309,4.7309,4.7309,4.7309,4.7309,4.7309,4.7309,4.7309,4.7309,4.7309,4.7309,4.7309,4.7459,4.7967,4.8745,4.9823,5.1379,5.2516,5.3118,5.3029,5.1461,0.0,0.0,4.9401,4.961,5.0185,5.076,5.11,5.11,5.1413,5.1256,5.0551,5.0524,5.0655,5.0864,5.1256,5.1727,5.2276,5.2877,5.34,5.3708,5.3915,5.3932,5.3751,5.3614,5.3341,0.0,5.2929,5.2929,5.2929,5.2929,5.2929,5.2929,5.2929,5.2929,5.2929,0.0,0.0,0.0,0.0,0.0,0.0,0.0,3.9863,4.0414,4.1886,4.1395,4.1462,4.2917,4.1705,4.1078,4.1836,0.0,0.0,0.0,0.0,0.0,0.0,0.0,0.0,4.2997,4.3681,4.361,4.2925,4.4388,4.4584,4.3741,4.3775,4.4519,4.5737,4.4282,4.4418,4.5568,4.3504,4.3842,4.5602,4.347,4.3842,0.0,0.0,0.0,0.0,0.0,0.0,0.0,0.0,0.0,0.0,0.0,0.0,0.0,0.0,0.0,0.0,0.0,4.7452,4.7396,4.7396,4.7309,4.7309,4.7309,4.7309,0.0,4.7309,4.7309,4.7309,4.7309,4.7339,4.7788,4.9075,4.9344,5.0062,5.2007,5.2778,5.3053,5.2541,5.1567,0.0,4.9939,4.9923,5.0211,5.0812,5.1309,5.1622,5.1648,5.1622,5.1622,5.1727,5.1675,5.1936,5.2485,5.2537,5.2851,5.3452,5.4001,5.4131,5.3786,5.4278,5.4376,0.0,5.3725,5.3614,5.3478,5.3067,5.2929,5.2929,5.2929,5.2929,5.2929,5.2929,5.2929,5.2929,0.0,0.0,0.0,0.0,0.0,0.0,0.0,0.0,0.0,0.0,4.002,4.0348,4.1011,4.0408,4.0284,0.0,0.0,0.0,0.0,0.0,0.0,0.0,0.0,0.0,4.4767,4.4833,4.5637,4.7158,4.7421,4.7374,4.6995,4.7488,4.7293,4.6515,4.6143,4.5906,4.5703,4.5737,4.6041,4.6481,4.594,4.5737,0.0,0.0,0.0,0.0,4.487,4.5396,0.0,0.0,0.0,0.0,0.0,0.0,0.0,0.0,4.8469,4.8301,4.8218,0.0,4.7794,4.7794,4.7709,4.7538,0.0,4.7396,4.7309,4.7309,4.7309,4.7309,4.7309,4.7728,4.8327,4.9134,5.0122,5.1259,5.2755,5.3195,5.3019,5.1952,5.1233,5.0632,4.9939,5.0315,5.0812,5.1361,5.1518,5.1805,5.225,5.1858,5.2014,5.2955,5.2537,5.2354,5.2485,5.2955,5.3478,5.4027,5.4602,5.4889,5.4782,5.4887,5.4805,5.4376,5.4241,5.4106,5.3861,5.3725,5.3589,5.3341,5.3341,5.3204,5.2929,5.2929,5.2929,5.2929,0.0,0.0,0.0,0.0,0.0,0.0,0.0,0.0,0.0,0.0,0.0,3.9689,0.0,0.0,0.0,0.0,0.0,0.0,0.0,0.0,0.0,0.0,0.0,4.3751,4.5389,4.6315,4.7052,4.7545,4.8209,4.8172,4.7597,4.7886,4.7793,4.7327,4.7665,4.7394,4.6718,4.6786,4.7192,4.7699,4.6346,0.0,0.0,0.0,0.0,0.0,4.5689,4.6354,0.0,4.6899,4.6976,4.7441,0.0,0.0,0.0,0.0,4.8521,4.8469,4.8469,4.8218,4.7964,4.7964,4.788,4.7794,4.7794,4.7624,4.7542,4.7842,4.7845,4.7848,4.8323,4.8835,4.9404,5.0245,5.1113,5.2127,5.3473,5.3789,5.3395,5.2205,5.1536,5.1035,0.0,5.0603,5.1021,5.1544,5.1858,5.2145,5.2485,5.2459,5.272,5.3373,5.3086,5.3034,5.3269,5.3609,5.4053,5.4628,5.4942,5.5099,5.5099,5.5099,5.4965,5.4805,5.4645,5.4376,5.4241,5.4132,5.3861,5.3478,5.3478,5.3204,5.2929,5.3067,5.3067,5.2929,0.0,0.0,0.0,0.0,0.0,0.0,0.0,0.0,0.0,0.0,0.0,0.0,0.0,0.0,0.0,0.0,0.0,0.0,0.0,0.0,0.0,0.0,4.394,4.4768,4.5768,4.7665,4.8058,4.688,4.8129,4.8265,4.7418,4.7325,4.7513,4.7936,4.8545,4.8477,4.7902,4.7361,4.7868,4.8748,4.6007,0.0,0.0,0.0,0.0,0.0,0.0,0.0,0.0,4.7699,4.7838,4.7968,4.8329,0.0,0.0,0.0,0.0,0.0,4.8573,4.8446,4.8255,4.8164,4.8049,4.8049,4.8049,4.797,4.7925,4.8498,4.8711,4.8923,4.9643,5.0125,5.0816,5.1783,5.2347,5.3054,5.4192,5.4422,5.4149,5.2933,5.2373,0.0,5.1197,5.0987,5.1152,5.1701,5.2197,5.2563,5.2746,5.3164,5.3478,5.3635,5.3556,5.3792,5.4341,5.4262,5.4497,5.5099,5.5099,5.5099,5.5099,5.5099,5.5099,5.5099,5.4805,5.4645,5.4511,5.4267,5.3997,5.3614,5.3614,5.3478,5.3067,5.3478,5.3341,5.3067,0.0,0.0,0.0,0.0,0.0,0.0,0.0,0.0,0.0,0.0,0.0,0.0,0.0,0.0,0.0,0.0,0.0,0.0,0.0,0.0,0.0,4.4078,4.4216,4.5251,4.732,4.77,4.839,4.9401,4.9492,4.935,4.9129,4.895,4.8497,4.7936,4.8124,4.809,4.7936,4.8443,4.8781,4.8849,4.7158,0.0,0.0,0.0,0.0,0.0,0.0,0.0,0.0,4.6752,4.7402,4.7838,4.7202,0.0,0.0,0.0,0.0,0.0,4.8615,4.8982,4.9289,4.8675,4.8355,4.8301,4.8301,4.856,4.8845,4.8936,4.9877,5.0577,5.0427,5.1182,5.2029,5.3079,5.4315,5.509,5.4999,5.5108,5.4864,5.4178,0.0,5.2982,5.2323,5.1768,5.1727,5.2328,5.2433,5.2929,5.3896,5.3583,5.3844,5.4811,5.4341,5.4367,5.4968,5.4445,5.4497,5.5099,5.5099,5.5099,5.5099,5.5099,5.5099,5.5099,5.5099,5.4965,5.4965,5.4965,5.4671,5.4376,5.4376,5.4106,5.3861,5.3861,5.3861,5.3861,0.0,0.0,0.0,0.0,0.0,0.0,0.0,0.0,0.0,0.0,0.0,0.0,0.0,0.0,0.0,0.0,0.0,0.0,0.0,0.0,4.4495,4.5297,4.5442,4.6044,4.7079,4.8321,4.9079,4.9355,4.9711,4.9801,4.959,4.9411,4.8916,4.7988,4.8048,4.781,4.7446,4.7725,4.8098,4.8429,0.0,0.0,0.0,0.0,0.0,0.0,0.0,0.0,0.0,0.0,4.6684,4.7315,4.7276,0.0,0.0,0.0,0.0,0.0,4.8759,4.885,4.9035,4.8696,4.9105,4.9573,4.9573,4.9616,4.9778,5.0144,5.0634,5.1182,5.1819,5.2423,5.3205,5.4269,5.469,5.489,5.5149,5.5777,5.5902,0.0,0.0,5.4074,5.3196,5.2156,5.1858,5.2459,5.2798,5.3347,5.4158,5.4288,5.455,5.5072,5.4837,5.4811,5.5099,5.4811,5.4837,5.5099,5.5099,5.5099,5.5099,5.5099,5.5099,5.5099,5.5099,5.5099,5.5099,5.5099,5.4805,5.4511,5.4511,5.4241,5.3997,5.3997,5.4106,5.4241,0.0,0.0,0.0,0.0,0.0,0.0,0.0,0.0,0.0,0.0,0.0,0.0,0.0,0.0,0.0,0.0,0.0,0.0,0.0,4.514,4.5607,4.6414,4.6569,4.67,4.6872,4.8734,4.9597,4.9355,4.9804,4.9918,4.9708,4.959,4.9001,4.8073,4.8167,4.7758,4.6986,4.6903,4.7242,4.7776,0.0,0.0,0.0,0.0,0.0,0.0,0.0,0.0,0.0,0.0,0.0,0.0,0.0,0.0,0.0,4.8254,4.8903,4.9504,4.8759,4.8727,4.8912,4.9066,4.9774,5.0451,5.0451,5.0524,5.0774,5.1294,5.1635,5.2185,5.3128,5.3789,5.4345,5.499,5.477,5.477,5.5329,5.6256,5.666,5.5996,5.5508,5.4921,5.4156,5.2748,5.2119,5.2825,5.3321,5.3818,5.4393,5.4863,5.5099,5.5099,5.5099,5.5099,5.5099,5.5099,5.5099,5.5099,5.5099,5.5099,5.5099,5.5099,5.5099,5.5099,5.5099,5.5099,5.5099,5.5099,5.4939,5.4645,5.4645,5.4511,5.4267,5.4267,5.4402,5.4645,0.0,0.0,0.0,0.0,0.0,0.0,0.0,0.0,0.0,0.0,0.0,0.0,0.0,0.0,0.0,0.0,0.0,0.0,0.0,4.5541,4.6449,4.7187,4.6794,4.6941,4.7631,4.8459,4.9562,5.0942,5.0321,4.9918,4.9708,4.9708,4.912,4.8107,4.8401,4.7991,4.702,4.702,4.702,4.7087,4.6878,0.0,0.0,0.0,0.0,0.0,0.0,0.0,0.0,0.0,0.0,0.0,0.0,0.0,4.7814,4.7037,4.7786,4.8839,4.8643,4.9097,4.9743,5.0389,5.0143,4.9743,4.9743,5.0728,5.1652,5.1682,5.31,5.4359,5.4232,5.514,5.5645,5.5001,5.5228,5.5631,5.6119,0.0,5.6675,5.7796,5.5843,5.4846,5.5849,5.3858,5.2877,5.4001,5.4131,5.4419,5.4994,5.5072,5.5099,5.5099,5.5099,5.5099,5.5099,5.5099,5.5099,5.5099,5.5099,5.5099,5.5099,5.5099,5.5099,5.5099,5.5099,5.5099,5.5099,5.5099,5.5099,5.5099,5.5099,5.5099,5.4965,5.4965,5.5099,5.5099,0.0,0.0,0.0,0.0,0.0,0.0,0.0,0.0,0.0,0.0,0.0,0.0,0.0,0.0,0.0,0.0,0.0,0.0,0.0,4.6284,4.6968,4.77,4.7457,4.7631,4.839,4.8665,4.9562,5.1114,5.1287,5.0848,4.9894,5.0341,5.0017,4.9051,4.8277,4.7695,4.7273,4.6147,4.5954,4.6419,4.6282,4.6607,0.0,0.0,0.0,0.0,0.0,0.0,0.0,0.0,4.479,4.5105,4.5749,4.7181,4.8601,4.8682,5.0079,5.141,5.0342,5.0548,5.109,5.0777,5.082,5.1036,5.1467,5.2298,5.2944,5.2944,5.3899,5.4759,5.4844,5.5341,5.569,5.5417,5.5661,5.5999,5.6137,5.6885,5.7573,5.8052,5.6618,5.5749,5.6108,5.4262,5.3373,5.4158,5.421,5.4471,5.5072,5.5099,5.5099,5.5099,5.5099,5.5099,5.5099,5.5099,5.5099,5.5099,5.5099,5.5099,5.5099,5.5099,5.5099,5.5099,5.5099,5.5099,5.5099,5.5099,5.5099,5.5099,5.5099,5.5099,5.5099,5.5099,5.5099,5.5099,0.0,0.0,0.0,0.0,0.0,0.0,0.0,0.0,0.0,0.0,0.0,0.0,0.0,0.0,0.0,0.0,0.0,0.0,4.6561,4.6773,4.7247,4.7986,4.7352,4.7458,4.8459,4.8459,4.9355,5.1114,5.1632,5.1218,5.0011,5.0528,5.0341,4.9639,4.8461,4.7773,4.7408,4.5828,4.5452,4.5836,4.583,4.6123,0.0,0.0,0.0,0.0,0.0,0.0,0.0,0.0,4.4587,4.479,4.6041,4.7462,4.8793,4.946,5.1069,5.2408,5.1248,5.1442,5.1715,5.1178,5.1528,5.2206,5.2883,5.3375,5.3775,5.3991,5.476,5.5404,5.5739,5.5925,5.5983,5.5983,5.6173,5.6316,5.6735,5.7573,5.8201,5.8411,5.7536,5.6722,5.6535,5.5095,5.4364,5.4445,5.4497,5.4654,5.5072,5.5099,5.5099,5.5099,5.5099,5.5099,5.5099,5.5099,5.5099,5.5099,5.5099,5.5099,5.5099,5.5099,5.5099,5.5099,5.5099,5.5099,5.5099,5.5099,5.5099,5.5099,5.5099,5.5099,5.5099,5.5099,5.5099,5.5099,0.0,0.0,0.0,0.0,0.0,0.0,0.0,0.0,4.1405,4.2213,4.302,0.0,0.0,0.0,0.0,0.0,0.0,0.0,4.7058,4.6945,4.7247,4.7986,4.6339,4.6148,4.77,4.7734,4.8838,5.1114,5.1114,5.0735,5.0011,5.0011,4.986,4.9674,4.9034,4.8311,4.7477,4.6486,4.5754,4.528,4.5535,4.5727,4.5909,0.0,0.0,0.0,0.0,0.0,0.0,0.0,4.4587,4.4722,4.5466,4.6752,4.8023,4.8696,4.9889,5.1037,5.0962,5.1318,5.1713,5.1713,5.2236,5.2914,5.3591,5.3745,5.3929,5.4607,5.5838,5.6761,5.6761,5.6922,5.695,5.692,5.6576,5.6645,5.7962,5.8141,5.8411,5.9039,5.8532,5.7858,5.7182,5.6569,5.5929,5.518,5.5099,5.5099,5.5099,5.5099,5.5099,5.5099,5.5099,5.5099,5.5099,5.5099,5.5099,5.5099,5.5099,5.5099,5.5099,5.5099,5.5099,5.5099,5.5099,5.5099,5.5099,5.5099,5.5099,5.5099,5.5099,5.5099,5.5099,5.5099,5.5099,5.5099,0.0,0.0,0.0,0.0,0.0,0.0,0.0,0.0,4.2029,4.2286,4.3975,0.0,0.0,0.0,0.0,0.0,0.0,0.0,4.625,4.6657,4.7247,4.7986,4.7387,4.7493,4.8459,4.8493,4.9114,5.0321,5.139,5.1252,5.0011,5.0528,5.0435,4.9884,4.9126,4.8643,4.8311,4.6859,4.6172,4.5932,4.5439,4.5171,4.515,0.0,0.0,0.0,0.0,0.0,0.0,0.0,0.0,0.0,4.6244,4.7834,4.9565,5.0318,5.1888,5.3236,5.2584,5.3248,5.3715,5.2692,5.3283,5.4176,5.4391,5.4422,5.476,5.593,5.6484,5.6761,5.6761,5.7021,5.7251,5.7251,5.7928,5.867,5.9061,5.9717,6.0296,6.0505,5.9161,5.8383,5.918,5.6949,5.5787,5.6444,5.5604,5.5099,5.5099,5.5099,5.5099,5.5099,5.5099,5.5099,5.5099,5.5099,5.5099,5.5099,5.5099,5.5099,5.5099,5.5099,5.5099,5.5099,5.5099,5.5099,5.5099,5.5099,5.5099,5.5099,5.5099,5.5099,5.5099,5.5099,5.5099,5.5099,0.0,0.0,0.0,0.0,0.0,0.0,4.0524,4.2103,4.3497,4.4121,4.5773,4.6728,0.0,0.0,0.0,4.5186,4.5626,4.603,4.6361,4.6902,4.7286,4.7568,4.7277,4.7503,4.8355,4.8114,4.8459,4.9528,5.0424,5.0562,5.0011,5.0769,5.0562,4.9528,4.9666,4.9079,4.7907,4.7086,4.6467,4.5883,4.5583,4.5179,4.492,0.0,0.0,0.0,0.0,0.0,0.0,0.0,0.0,0.0,4.6989,4.8545,5.0207,5.0926,5.2445,5.3738,5.3134,5.3745,5.4282,5.3281,5.3929,5.4791,5.5068,5.5315,5.5776,5.6607,5.6977,5.7161,5.7161,5.7518,5.787,5.8115,5.8984,5.9834,6.0106,6.0746,6.1327,6.1327,6.0325,5.9616,5.9377,5.7729,5.6601,5.634,5.5604,5.5099,5.5099,5.5099,5.5099,5.5099,5.5099,5.5099,5.5099,5.5099,5.5099,5.5099,5.5099,5.5099,5.5099,5.5099,5.5099,5.5099,5.5099,5.5099,5.5099,5.5099,5.5099,5.5099,5.5099,5.5099,5.5099,5.5099,5.5099,5.5099,0.0,0.0,0.0,0.0,0.0,0.0,4.3167,4.4195,4.5333,4.6801,4.7755,4.8012,0.0,0.0,0.0,4.581,4.5847,4.6214,4.6948,4.7365,4.7378,4.689,4.653,4.6723,4.7596,4.6995,4.7306,4.8631,4.87,4.9079,4.9804,5.0562,5.0149,4.8872,5.0287,4.939,4.6837,4.7223,4.6639,4.5543,4.5912,4.5631,4.5118,4.5712,0.0,0.0,0.0,0.0,0.0,0.0,0.0,0.0,4.7699,4.8917,5.0244,5.0923,5.1983,5.3036,5.2994,5.3377,5.3806,5.3745,5.4268,5.4976,5.5653,5.63,5.6761,5.6761,5.7315,5.7777,5.7777,5.8162,5.8797,5.9471,5.9862,6.0487,6.1156,6.1498,6.17,6.17,6.1905,6.1056,5.8588,5.8727,5.7961,5.5472,5.5232,5.5099,5.5099,5.5099,5.5099,5.5099,5.5099,5.5099,5.5099,5.5099,5.5099,5.5099,5.5099,5.5099,5.5099,5.5099,5.5099,5.5099,5.5099,5.5099,5.5099,5.5099,5.5099,5.5099,5.5099,5.5099,5.5099,5.5099,5.5099,5.5099,0.0,0.0,0.0,0.0,0.0,0.0,4.2506,4.4305,4.5773,4.6104,4.7425,4.8012,4.7205,4.6397,0.0,4.5002,4.5553,4.5957,4.614,4.7074,4.7378,4.689,4.6976,4.7003,4.6837,4.7056,4.7126,4.7079,4.7665,4.8045,4.8217,4.8976,4.9148,4.8838,4.9183,4.8941,4.8286,4.7231,4.6611,4.632,4.5677,4.526,4.5157,4.522,4.5234,0.0,0.0,0.0,0.0,0.0,0.0,0.0,4.8014,4.9006,5.0371,5.1663,5.2164,5.2501,5.36,5.4246,5.4391,5.3868,5.4607,5.5653,5.6361,5.6669,5.6761,5.6761,5.7315,5.7777,5.7777,5.8762,5.9707,6.0383,6.1278,6.2072,6.2744,6.3224,6.3425,6.3425,6.2344,6.1439,6.0816,5.8856,5.7322,5.6704,5.5736,5.5099,5.5099,5.5099,5.5099,5.5099,5.5099,5.5099,5.5099,5.5099,5.5099,5.5099,5.5099,5.5099,5.5099,5.5099,5.5099,5.5099,5.5099,5.5099,5.5099,5.5099,5.5099,5.5099,5.5099,5.5099,5.5099,5.5099,5.5099,5.5099,0.0,0.0,0.0,0.0,0.0,0.0,0.0,0.0,4.6177,4.6948,4.7792,4.7865,4.6654,4.614,0.0,0.0,4.4856,4.548,4.5883,4.6832,4.7316,4.7248,4.6667,4.6569,4.6899,4.6604,4.6447,4.6596,4.6631,4.701,4.7734,4.8459,4.8424,4.7803,4.8493,4.8217,4.7182,4.6769,4.6389,4.6044,4.5903,4.578,4.576,4.6138,4.646,4.6816,4.7603,0.0,0.0,0.0,0.0,0.0,0.0,0.0,5.0536,5.2067,5.235,5.2454,5.3858,5.4261,5.4414,5.4607,5.5438,5.63,5.6669,5.7008,5.7254,5.7254,5.7531,5.7962,5.8608,5.9316,6.0116,6.1132,6.2042,6.2825,6.35,6.3984,6.4188,6.3993,6.3134,6.188,6.0537,5.894,5.7578,5.6209,5.5472,5.5099,5.5099,5.5099,5.5099,5.5099,5.5099,5.5099,5.5099,5.5099,5.5099,5.5099,5.5099,5.5099,5.5099,5.5099,5.5099,5.5099,5.5099,5.5099,5.5099,5.5099,5.5099,5.5099,5.5099,5.5099,5.5099,5.5099,5.5099,5.5099,0.0,0.0,0.0,0.0,0.0,0.0,0.0,0.0,0.0,4.7939,4.8086,4.7498,4.5883,4.57,4.5112,0.0,0.0,0.0,4.5847,4.6726,4.7302,4.7596,4.6328,4.6133,4.7116,4.6065,4.5839,4.6389,4.5734,4.6079,4.732,4.8079,4.7803,4.6665,4.7907,4.7389,4.5665,4.6182,4.601,4.5492,4.6286,4.6507,4.6433,4.7369,4.8002,4.8495,4.8633,4.9045,4.9536,4.9376,0.0,0.0,0.0,0.0,5.0561,5.227,5.2664,5.293,5.4051,5.4157,5.4304,5.541,5.6238,5.6761,5.6761,5.7377,5.7993,5.8085,5.8116,5.8485,5.9747,6.0055,6.0578,6.1933,6.2641,6.3225,6.3903,6.4267,6.4412,6.4218,6.388,6.2525,5.9806,5.956,5.834,5.5604,5.5472,5.5339,5.5099,5.5099,5.5099,5.5099,5.5099,5.5099,5.5099,5.5099,5.5099,5.5099,5.5099,5.5099,5.5099,5.5099,5.5099,5.5099,5.5099,5.5099,5.5099,5.5099,5.5099,5.5099,5.5099,5.5099,5.5099,5.5099,5.5099,5.5099,0.0,0.0,0.0,0.0,0.0,0.0,0.0,0.0,0.0,0.0,4.7278,4.6654,4.5039,4.4856,4.4488,4.3571,4.4232,4.5039,4.5847,0.0,0.0,4.7591,4.7026,4.659,4.6344,4.6189,4.5924,4.5596,4.544,4.5527,4.5734,4.6527,4.6803,4.6631,4.6803,4.6734,4.6424,4.5837,4.5527,4.5492,4.6286,4.6596,4.6611,4.7424,4.7713,4.7885,4.854,4.885,4.9022,4.9653,4.9354,0.0,0.0,0.0,5.0025,5.2179,5.318,5.3717,5.4313,5.4505,5.473,5.5468,5.6238,5.6761,5.6761,5.7746,5.8824,5.9408,5.9532,5.9747,6.0517,6.1132,6.1994,6.3318,6.3626,6.3933,6.4641,6.4826,6.4777,6.4777,6.4331,6.3364,6.1762,6.1168,5.9711,5.7092,5.6834,5.634,5.5099,5.5099,5.5099,5.5099,5.5099,5.5099,5.5099,5.5099,5.5099,5.5099,5.5099,5.5099,5.5099,5.5099,5.5099,5.5099,5.5099,5.5099,5.5099,5.5099,5.5099,5.5099,5.5099,5.5099,5.5099,5.5099,5.5099,5.5099,0.0,0.0,0.0,0.0,0.0,0.0,0.0,0.0,0.0,0.0,0.0,4.6507,4.4892,4.4709,4.4378,4.3571,4.3828,4.4562,4.581,4.6564,4.728,4.7959,4.7026,4.6695,4.6981,4.6168,4.5752,4.5854,4.5581,4.5665,4.6113,4.6458,4.6389,4.5941,4.5941,4.5941,4.5941,4.6044,4.6079,4.6148,4.6906,4.7734,4.8596,4.9321,4.9873,5.0355,5.1114,5.0838,5.0149,5.041,4.9939,4.9262,4.9605,0.0,0.0,0.0,5.3003,5.3202,5.4194,5.4798,5.5318,5.6118,5.6546,5.6761,5.6761,5.7808,5.8978,5.9655,6.0393,6.1132,6.1809,6.2179,6.2702,6.3656,6.3841,6.4087,6.4795,6.4888,6.4777,6.4635,6.4188,6.3364,6.188,6.1316,6.0323,5.834,5.7578,5.7221,5.7322,5.5973,5.5472,5.6236,5.5472,5.5099,5.5099,5.5099,5.5255,5.5543,5.5543,5.5543,5.5543,5.5229,5.5099,5.5099,5.5099,5.5099,5.5099,5.5099,5.5099,5.5099,5.5099,5.5099,5.5099,5.5099,5.5099,5.5099,0.0,0.0,0.0,0.0,0.0,0.0,0.0,0.0,0.0,0.0,0.0,4.6507,4.4892,0.0,0.0,0.0,4.3497,4.4085,4.5516,4.6205,4.6964,4.7785,4.7008,4.6845,4.7421,4.6266,4.5803,4.6204,4.5649,4.5837,4.6596,4.6596,4.6389,4.601,4.5803,4.563,4.544,4.6286,4.6734,4.6975,4.8114,4.939,5.0666,5.1632,5.2218,5.2597,5.3184,5.2528,5.139,5.127,5.0592,4.9801,5.0007,5.0351,0.0,0.0,0.0,5.2564,5.4067,5.4813,5.5187,5.5967,5.6429,5.6738,5.6827,5.7931,5.9224,0.0,6.1255,6.2487,6.2979,6.3071,6.3287,6.3995,6.4087,0.0,0.0,0.0,0.0,0.0,0.0,0.0,6.2349,6.191,6.1197,5.9806,5.869,5.8467,5.9064,5.7221,5.6471,5.7092,5.6105,5.5472,5.5099,5.5229,5.5595,5.6144,5.5987,5.5909,5.5883,5.5491,5.5308,5.5308,5.5177,5.5099,5.5099,5.5099,5.5099,5.5099,5.5099,5.5099,5.5099,5.5099,5.5099,5.5099,0.0,0.0,0.0,0.0,0.0,0.0,0.0,0.0,0.0,0.0,0.0,4.6507,4.4892,4.4709,4.4378,4.3571,4.3497,4.3864,4.4709,4.6214,4.6866,4.6545,4.715,0.0,4.6936,4.6411,4.6204,4.6204,4.5649,4.5837,4.6596,4.6596,4.6975,4.7562,4.6872,4.6113,4.544,4.6286,4.701,4.7838,5.0045,5.139,5.2252,5.377,5.3908,5.3356,5.3391,5.2873,5.2149,5.2149,5.1218,5.0114,5.0838,5.0597,5.0218,0.0,0.0,0.0,5.4162,5.4319,5.4183,5.4465,5.5439,5.6497,5.6704,5.83,5.9932,6.0609,6.2333,6.3749,6.3779,6.3779,0.0,0.0,0.0,0.0,0.0,0.0,0.0,0.0,0.0,0.0,0.0,0.0,0.0,6.1496,6.1048,6.0323,5.9189,5.894,5.8313,5.7092,5.7092,5.634,5.5099,5.5621,5.617,5.6745,5.617,5.5909,5.5909,5.5883,5.5857,5.583,5.5334,5.5099,5.5099,5.5099,5.5099,5.5099,5.5099,5.5099,5.5099,5.5099,5.5099,5.5099,0.0,0.0,0.0,0.0,0.0,0.0,0.0,0.0,0.0,0.0,0.0,0.0,0.0,4.548,4.5149,4.4342,4.3791,4.3828,4.4672,4.5259,4.5737,4.6063,4.6553,4.6747,4.6578,4.6318,4.6204,4.6204,4.5649,4.5837,4.6596,4.6596,4.701,4.77,4.6941,4.6458,4.6251,4.6975,4.7734,4.8596,5.039,5.1873,5.3149,5.4667,5.5046,5.4943,5.5943,5.5184,5.3701,5.3701,5.2701,5.139,5.1183,5.1252,5.1434,5.1309,5.1898,5.2611,5.3052,5.3826,5.4486,5.475,5.5618,5.6435,5.6497,5.785,5.9347,6.0024,6.1779,0.0,0.0,0.0,0.0,0.0,0.0,0.0,0.0,0.0,0.0,0.0,0.0,0.0,0.0,0.0,0.0,0.0,0.0,6.1407,6.1703,6.0079,5.9313,5.9711,5.8815,5.8186,5.7706,5.8153,5.839,5.808,5.7491,5.7088,5.7007,5.6249,5.5909,5.5909,5.6118,5.6196,5.617,5.5778,5.5857,5.6118,5.5386,5.5308,5.5569,5.5229,5.5099,5.5099,0.0,0.0,0.0,0.0,0.0,0.0,0.0,0.0,4.8273,4.7572,0.0,0.0,0.0,0.0,4.5993,4.5186,4.4378,4.4121,4.4672,4.4709,4.4857,4.526,4.5911,4.6263,4.6432,4.5873,4.5882,4.6411,4.5509,4.5561,4.6596,4.6596,4.701,4.77,4.6941,4.6596,4.6665,4.7665,4.8528,4.939,5.1149,5.2942,5.4667,5.5908,5.6529,5.6874,5.7909,5.715,5.5701,5.5943,5.4839,5.3287,5.277,5.2252,5.1752,5.1308,5.153,5.2058,5.1932,5.3082,5.4287,5.4486,5.5374,5.6238,5.6341,5.7428,5.8591,5.9562,0.0,0.0,0.0,0.0,0.0,0.0,0.0,0.0,0.0,0.0,0.0,0.0,0.0,0.0,0.0,0.0,0.0,0.0,0.0,0.0,6.3424,6.1555,6.0687,6.1106,5.9834,5.9177,5.9373,5.9767,5.979,5.949,5.839,5.7865,5.772,5.6731,5.6468,5.6874,5.7099,5.6876,5.6484,5.6301,5.6458,5.6745,5.5987,5.5778,5.5857,5.5517,5.5255,5.5099,0.0,0.0,0.0,0.0,0.0,0.0,4.8642,4.8642,4.8569,4.8418,0.0,0.0,0.0,0.0,0.0,4.5993,4.5186,4.4709,4.4709,4.4672,4.4455,4.4005,4.5186,4.6027,4.6318,4.5143,4.532,4.688,4.5187,4.5079,4.6562,4.6562,4.6975,4.7665,4.6941,4.6631,4.6734,4.8217,4.9286,5.0218,5.2528,5.4805,5.684,5.7633,5.8392,5.9012,5.9047,5.8599,5.8081,5.8771,5.7529,5.5667,5.5598,5.3529,5.1073,5.0719,5.0626,5.0725,0.0,0.0,0.0,5.3664,5.4749,5.5898,5.6275,0.0,5.7897,0.0,0.0,0.0,0.0,0.0,0.0,0.0,0.0,0.0,0.0,0.0,0.0,0.0,0.0,0.0,0.0,0.0,0.0,0.0,6.4188,6.3993,6.3993,6.3652,6.2788,6.1226,5.9957,5.9498,5.9935,5.9964,6.0301,6.0818,5.8886,5.796,5.8042,5.7191,5.7674,5.8856,5.8038,5.7118,5.5961,5.6562,5.6824,5.685,5.6798,5.6432,5.5935,5.5909,5.5543,5.5099,0.0,0.0,0.0,0.0,0.0,4.9043,4.9418,4.9492,4.9638,0.0,0.0,0.0,4.893,4.7829,4.7021,4.6801,4.5516,4.4709,4.4709,4.4158,4.3793,4.365,4.4527,4.5036,4.5029,4.5257,4.5528,4.5803,4.5338,4.532,4.5768,4.5768,4.6182,4.6906,4.67,4.6906,4.7527,4.9045,4.9804,5.0287,5.3667,5.5391,5.615,5.8012,5.884,0.0,0.0,6.0185,5.9495,0.0,5.8254,5.6978,5.5322,5.3494,5.1778,5.1131,5.1469,5.1796,5.1025,0.0,0.0,0.0,0.0,0.0,0.0,0.0,0.0,0.0,0.0,0.0,0.0,0.0,0.0,0.0,0.0,0.0,0.0,0.0,0.0,0.0,0.0,0.0,0.0,0.0,0.0,0.0,6.427,6.4188,6.3993,6.3652,6.3279,6.2788,6.2736,6.2469,6.2204,6.2645,6.2691,6.2342,6.0851,6.0426,6.0663,5.9552,5.922,5.9634,5.8829,5.8027,5.7383,5.6946,5.7294,5.7921,5.6641,5.6327,5.6458,5.5621,5.5229,5.5151,0.0,0.0,4.889,4.889,4.889,4.9117,4.9788,4.9566,4.9528,0.0,0.0,0.0,4.904,4.8528,4.805,4.7645,4.6507,4.5773,4.57,4.4966,4.4488,4.4488,4.4966,4.5332,4.5585,4.5316,4.5468,4.602,4.5286,4.5113,4.5423,4.5423,4.5837,4.6596,4.6596,4.701,4.7838,5.0011,5.0735,5.07,5.3563,5.5253,5.6322,5.8254,5.9426,0.0,0.0,0.0,6.1116,6.0978,6.0013,0.0,5.7288,5.5184,5.3087,5.2477,5.2422,5.223,5.1061,5.1872,5.309,5.3215,0.0,0.0,5.5771,5.6969,0.0,0.0,0.0,0.0,0.0,0.0,0.0,0.0,0.0,0.0,0.0,0.0,0.0,0.0,0.0,0.0,0.0,6.4888,6.4777,6.4635,6.4635,6.4524,6.4188,6.3963,6.3736,6.3538,6.391,6.3824,6.3079,6.3677,6.3683,6.2937,6.1695,6.1293,6.1456,6.0315,6.0216,6.0745,5.9718,5.9571,5.9874,5.8581,5.8023,5.7712,5.7324,5.6844,5.6353,5.5674,5.5438,5.5491,0.0,0.0,4.8927,4.9039,4.9039,4.9301,5.0157,4.9492,4.9159,0.0,4.9228,4.8565,4.8344,4.9082,4.9229,4.8418,4.7721,4.7243,4.7131,4.6361,4.5883,4.5883,4.5883,4.625,4.6943,4.5425,4.5347,4.6707,4.5207,4.4768,4.5423,4.5423,4.5803,4.6493,4.6562,4.7079,4.801,5.0804,5.177,5.1632,5.3253,5.5115,0.0,0.0,6.022,6.1668,6.2461,6.2737,6.2806,6.3289,6.1944,0.0,6.0082,5.7633,5.4647,5.4194,5.3484,5.2601,5.1422,5.2065,5.3082,5.3107,5.3803,0.0,5.5684,5.6144,0.0,0.0,0.0,0.0,0.0,0.0,0.0,0.0,0.0,0.0,0.0,0.0,0.0,0.0,0.0,0.0,6.4672,6.4734,6.4764,6.4764,6.4857,6.4777,6.4493,6.4382,6.4158,6.3622,6.4232,6.4146,6.3194,6.3767,6.3797,6.3169,6.1939,6.1433,6.1462,6.0613,6.0936,6.2011,6.0631,6.1097,6.2608,6.0734,5.8886,5.7319,5.8268,5.7652,5.6044,5.5909,5.5909,5.5935,4.889,4.889,4.9113,4.9745,4.9893,5.034,5.1713,5.1193,5.1117,5.2555,5.1484,5.0007,4.8716,4.868,4.8716,4.8457,4.7758,4.7243,4.7131,4.6361,4.5883,4.5883,4.5883,4.595,4.5975,4.5658,4.5552,4.5701,4.5356,4.5285,4.5423,4.5423,4.5492,4.5665,4.632,4.7355,4.87,4.9907,5.177,5.4046,5.6184,5.7288,5.7909,6.0047,6.1806,6.3255,6.3979,6.4255,6.4117,6.3048,6.1151,5.9254,5.9254,5.7909,5.605,5.4754,5.4651,5.4552,5.2736,5.2504,5.2924,5.3049,5.4152,0.0,5.5418,5.6776,0.0,0.0,0.0,0.0,0.0,0.0,0.0,0.0,0.0,0.0,0.0,0.0,0.0,0.0,0.0,0.0,6.3225,6.3718,6.4026,6.4026,6.458,6.4888,6.4777,6.4524,6.4382,6.427,6.5147,6.4976,6.3424,6.4597,6.4721,6.3827,6.3563,6.3445,6.3445,6.3298,6.3091,6.2763,6.1401,6.1097,6.1454,6.1068,6.0563,5.9855,5.8576,5.7806,5.7329,5.6288,5.5909,5.604,4.889,4.889,4.915,4.9968,5.0116,5.0637,5.227,5.175,5.1563,5.2784,5.2227,5.1228,4.9972,5.0194,5.023,4.9746,4.9341,4.9045,4.8967,4.8563,4.8159,4.7755,4.7755,4.749,4.7011,4.6542,4.6046,4.5572,4.5476,4.5216,4.4872,4.5251,4.6251,4.77,4.732,4.8631,5.1149,5.1528,5.3011,5.515,5.6288,0.0,5.8668,6.0565,6.2255,6.3703,6.4427,6.4703,6.46,6.3841,6.2324,0.0,6.1185,6.0013,5.8255,5.7227,5.6847,5.6363,5.4667,5.4025,5.382,5.3945,5.4295,0.0,0.0,0.0,0.0,0.0,0.0,0.0,0.0,0.0,0.0,0.0,0.0,0.0,0.0,0.0,0.0,0.0,0.0,0.0,6.2825,6.3133,6.3472,6.381,6.4149,6.4518,6.4888,6.4777,6.4524,6.4382,6.5277,6.5109,6.3766,6.4734,6.477,6.399,6.399,6.3875,6.376,6.376,6.3494,6.3079,6.2321,6.2087,6.2087,6.2087,6.2084,6.1762,5.9403,5.8208,5.7725,5.6422,5.6275,5.6876,4.889,4.889,4.9224,5.019,5.0339,5.0933,5.2568,5.2048,5.1676,5.2306,5.2488,5.2301,5.1636,5.2114,5.2223,5.148,5.1406,5.1363,5.132,5.1136,5.0842,5.0325,4.9848,4.9255,4.851,4.7471,4.6478,4.5655,4.549,4.5182,4.4734,4.5354,4.7044,4.9528,4.8872,5.0218,5.3011,5.3908,5.4874,5.5874,0.0,5.7771,5.984,6.1358,6.291,6.4324,6.491,6.5152,6.5117,6.4979,6.4117,6.3186,6.3496,6.2324,6.0666,5.9621,5.8735,5.7842,5.644,5.5519,5.5043,5.5179,5.4768,5.451,0.0,0.0,0.0,0.0,0.0,0.0,0.0,0.0,0.0,0.0,0.0,0.0,0.0,0.0,0.0,0.0,0.0,0.0,0.0,6.2702,6.3225,6.3779,6.4087,6.4426,6.4888,6.4888,6.4777,6.4524,6.5198,6.5002,6.4106,6.4714,6.46,6.3993,6.4114,6.4001,6.3652,6.3773,6.3659,6.3309,6.3309,6.3194,6.3194,6.3194,6.3254,6.2996,6.0617,5.9291,5.8482,5.7197,5.7236,5.8078,4.889,4.889,4.941,5.0971,5.1268,5.1788,5.3423,5.2938,5.238,5.2454,5.3047,5.3415,5.3341,5.3336,5.3333,5.3222,5.3222,5.3182,5.3097,5.2361,5.221,5.2784,5.0729,4.9487,4.9195,4.765,4.6389,4.5407,4.5407,4.5734,4.6355,4.6424,4.701,4.8079,5.0597,5.1597,5.1632,5.5667,5.7116,5.684,5.8875,6.0634,0.0,6.3738,6.5255,6.66,6.6704,6.6738,6.6635,0.0,6.5635,6.529,0.0,6.3427,6.2668,5.9874,5.8978,5.8633,5.7118,5.6268,5.5927,5.6677,5.6267,5.5926,5.6704,0.0,5.5888,5.6089,0.0,0.0,0.0,0.0,0.0,0.0,0.0,0.0,0.0,0.0,0.0,0.0,0.0,0.0,0.0,6.2302,6.3749,6.381,6.498,6.5442,6.4918,6.4888,6.4888,6.4888,6.5534,6.5341,6.4382,6.5054,6.4828,6.3993,6.4539,6.4509,6.3993,6.4456,6.4395,6.388,6.388,6.3766,6.3424,6.3424,6.364,6.377,6.2253,6.1675,6.1356,5.9924,5.9481,5.9426,4.889,4.889,4.9447,5.1119,5.1416,5.1936,5.3571,5.3904,5.394,5.394,5.4645,5.5124,5.5047,5.4962,5.488,5.4838,5.4754,5.4712,0.0,0.0,5.3855,5.3225,5.1944,5.0722,4.9748,4.8461,4.7146,4.5854,4.603,4.6044,4.5941,4.6389,4.77,4.9769,5.1459,5.277,5.3908,5.6702,5.8737,0.0,0.0,0.0,0.0,6.4496,6.529,6.7049,6.7463,6.7359,6.6945,0.0,6.6531,0.0,0.0,6.5152,6.5531,6.2048,6.1668,6.1806,5.9426,5.8909,5.8872,5.8324,5.829,5.8118,5.7124,5.6678,5.6301,5.5855,0.0,0.0,0.0,0.0,0.0,0.0,5.492,0.0,0.0,0.0,0.0,0.0,0.0,0.0,0.0,0.0,0.0,0.0,6.4518,6.5195,6.4918,6.5288,6.5472,6.5472,6.575,6.5637,6.5218,6.5126,6.4942,6.4554,6.483,6.4687,6.4188,6.4462,6.4432,6.3993,6.3993,6.3766,6.3538,6.3538,6.367,6.4036,6.3802,6.3432,6.2918,6.1491,6.0749,6.0158,4.9224,4.9039,4.9447,5.1119,5.1416,5.2011,5.3868,5.4611,5.5169,5.5652,5.6392,5.6945,5.7043,5.718,5.7205,5.7155,5.7111,5.703,0.0,0.0,5.5985,5.5207,5.3498,0.0,5.1174,4.9479,4.794,4.6634,4.6845,4.6734,4.6355,4.6941,4.8596,5.1149,5.2321,5.3873,5.5736,5.7702,5.9806,6.191,6.253,6.4807,6.7566,6.56,6.5842,6.7359,6.7911,6.7738,6.729,6.729,6.7428,0.0,6.5807,6.66,6.7428,6.4083,6.3841,6.4117,6.153,6.1047,6.1082,6.0185,5.9909,5.9564,5.8323,5.7564,5.6874,5.6115,5.6219,0.0,0.0,0.0,5.5755,5.4435,0.0,5.4092,0.0,0.0,0.0,0.0,0.0,0.0,0.0,0.0,0.0,0.0,0.0,6.498,6.5165,6.5472,6.5811,6.618,6.5811,6.5719,6.5903,6.5226,6.4888,6.4888,6.4888,6.4777,6.4524,6.4524,6.4412,6.4218,6.4218,6.4106,6.3766,6.3948,6.4171,6.4453,6.5143,6.5169,6.4589,6.3265,6.2089,6.1165,5.0079,4.9447,4.9447,5.1119,5.1416,5.2197,5.4611,5.4983,5.5577,5.7212,5.8021,5.8708,5.9435,6.0166,6.0646,6.0646,0.0,6.0646,6.0646,0.0,5.8759,6.0126,5.5676,5.3408,0.0,5.0829,4.867,4.7631,4.7665,4.8045,4.87,4.8734,4.9597,5.1218,5.3425,5.4874,5.5805,5.884,6.0185,6.0461,6.2668,6.4945,6.7083,0.0,6.8014,6.8049,6.8083,0.0,0.0,6.8049,6.8566,0.0,0.0,0.0,6.7635,6.5324,6.4669,6.4358,6.2841,6.1875,6.1496,6.2186,6.0703,5.9426,6.084,5.9461,5.7667,5.6909,5.6184,5.5602,5.5475,5.5858,5.5621,5.3956,5.4745,0.0,0.0,0.0,0.0,0.0,0.0,0.0,0.0,0.0,0.0,0.0,0.0,0.0,6.5842,6.5288,6.5534,6.6858,6.5626,6.5226,6.5903,6.5226,6.4888,6.4888,6.4888,6.4888,6.4888,6.4888,6.4888,6.4888,6.4888,6.4666,6.4443,6.5085,6.5414,6.5528,6.6191,6.6613,6.6693,6.5387,6.3952,6.2508,5.1045,5.0748,5.0748,5.1305,5.1416,5.2197,5.4648,5.5503,5.6469,0.0,0.0,0.0,0.0,6.0781,6.0839,0.0,0.0,6.0619,6.0562,6.0,0.0,0.0,0.0,5.4871,0.0,5.2142,5.055,4.9217,4.9217,4.9079,4.8838,4.8838,4.9631,5.1218,5.3494,5.5219,5.6564,5.9116,6.1668,0.0,0.0,6.7497,6.7704,0.0,6.7669,6.8083,6.8083,6.8083,0.0,6.8083,6.8635,6.9015,6.7463,6.8532,6.9704,6.6428,6.6531,6.7187,0.0,0.0,6.4876,6.4117,0.0,0.0,0.0,6.0703,5.9047,5.7805,5.6943,5.6391,5.636,5.5855,5.5313,5.4734,5.4397,5.3914,0.0,0.0,0.0,0.0,0.0,0.0,0.0,0.0,0.0,0.0,0.0,0.0,0.0,6.5626,6.6457,6.6919,6.6919,6.6796,6.6581,6.5903,6.5349,6.4888,6.4888,6.4888,6.4888,6.4888,6.4888,6.4888,6.4888,6.5023,6.5054,6.5299,6.5718,6.6191,6.6402,6.6643,6.6999,6.6476,6.5416,6.3822,5.2382,5.2011,5.1825,5.1825,5.2308,5.3423,5.5577,5.6617,0.0,0.0,6.037,0.0,6.1789,0.0,6.2706,0.0,6.2435,6.2498,6.2647,6.2083,0.0,6.0639,5.8805,0.0,0.0,0.0,5.2532,5.1141,5.0645,5.0011,4.9252,4.9252,5.0045,5.1563,5.3046,5.515,5.7667,5.9185,6.1979,0.0,0.0,6.8325,0.0,0.0,6.7842,6.8463,0.0,6.8083,6.8083,6.8083,6.8428,6.8739,6.8014,6.9153,7.0291,6.8118,6.8704,6.9532,6.7014,6.6842,0.0,6.5842,6.5497,0.0,6.3979,0.0,6.1116,6.0116,5.8909,5.8081,5.8357,5.7054,5.5894,5.5894,5.4805,5.3788,0.0,5.4126,0.0,0.0,0.0,0.0,0.0,0.0,0.0,0.0,0.0,0.0,0.0,0.0,6.6765,6.7258,6.7473,6.735,6.6919,6.6242,6.5565,6.4888,6.4888,6.4888,6.4888,6.4888,6.4888,6.4888,6.4888,6.5146,6.5534,6.5779,6.6314,6.6849,6.6973,6.7095,6.7121,6.6999,6.6073,6.4624,5.387,5.3237,5.2754,5.2828,5.4091,5.5614,0.0,0.0,5.9032,0.0,6.2116,6.3594,6.3576,6.5069,6.6071,6.5792,6.578,0.0,6.6721,6.5184,0.0,0.0,6.2168,6.0249,5.9719,0.0,0.0,0.0,5.1882,5.0804,5.0045,5.0011,5.0804,5.2218,5.2218,5.4736,5.9012,5.9116,6.1323,6.4945,6.6428,6.7497,6.8152,6.8118,6.8601,6.9187,6.8394,6.8083,6.8083,6.8083,6.8083,6.8221,6.9015,6.9291,6.9463,7.0187,7.0912,7.1187,6.9739,6.8808,6.8083,6.7325,6.6048,0.0,0.0,0.0,6.3634,0.0,6.191,6.0565,6.1254,5.9286,5.7568,5.7603,5.5995,5.4499,5.3788,5.4228,0.0,0.0,0.0,0.0,0.0,0.0,0.0,0.0,0.0,0.0,0.0,0.0,6.655,6.7843,6.7319,6.6981,6.6981,6.6304,6.5626,6.4949,6.4918,6.4888,6.4888,6.4888,6.4888,6.4888,6.4949,6.5319,6.5996,6.6673,6.712,6.75,6.7816,6.785,6.7487,6.7121,6.6073,6.4752,5.4054,5.4128,5.4797,5.6023,5.6097,5.632,0.0,0.0,0.0,0.0,6.2859,6.4085,6.5264,6.6341,6.6887,6.6642,6.7146,0.0,0.0,0.0,0.0,6.5338,6.2923,6.1531,6.1388,5.8003,0.0,5.5766,5.3202,5.1563,5.0804,5.0252,5.0804,5.2218,5.2218,5.4736,5.9047,5.9668,6.2427,6.6497,6.7428,6.829,6.8911,0.0,6.8601,6.9187,6.8394,6.8083,6.8083,6.8083,6.8083,6.8221,6.9015,6.967,7.0153,7.0325,7.0912,7.1291,7.036,7.036,7.0429,6.9704,6.8808,6.8014,0.0,0.0,0.0,0.0,0.0,0.0,0.0,0.0,5.9891,5.9857,5.8307,5.6799,5.6055,0.0,0.0,5.6427,0.0,0.0,0.0,0.0,0.0,0.0,0.0,0.0,0.0,0.0,0.0,6.7165,6.7966,6.815,6.7658,6.6981,6.6334,6.5657,6.5134,6.4888,6.4888,6.4888,6.4888,6.4918,6.5442,6.6027,6.6704,6.7381,6.7795,6.8172,6.7998,6.7608,6.7121,6.6999,6.6073,6.488,5.5847,5.588,5.6506,5.7806,0.0,0.0,5.9069,0.0,0.0,6.3713,6.5013,0.0,6.754,6.8394,6.8779,6.8527,6.8882,0.0,6.9265,0.0,0.0,6.743,6.5513,6.4329,6.3965,6.1019,0.0,5.7552,5.5284,5.3246,5.1597,5.1183,5.1942,5.3701,5.3356,5.577,6.0116,6.191,6.4531,6.7497,6.7911,6.8359,0.0,6.8256,6.8601,6.9222,6.8773,6.8394,6.8152,6.8497,6.8601,6.8808,6.9911,7.0532,7.0946,7.1291,7.1912,7.2326,7.1601,7.1705,7.1843,7.105,7.0325,6.9635,6.9187,6.7842,6.6807,0.0,6.6048,6.5152,0.0,0.0,0.0,6.0183,5.8807,5.7746,5.734,0.0,0.0,0.0,5.7708,0.0,0.0,0.0,0.0,0.0,0.0,0.0,0.0,0.0,0.0,6.6888,6.8448,6.882,6.7935,6.8044,6.7392,6.5903,6.5534,6.5195,6.4888,6.4888,6.4888,6.4949,6.5626,6.6273,6.6981,6.7658,6.8188,6.8654,6.8298,6.7819,6.7243,6.7243,6.657,6.5794,5.8014,5.7749,5.7918,0.0,0.0,0.0,0.0,6.2264,0.0,6.5942,0.0,6.8877,6.9769,7.0586,7.0968,7.0655,0.0,7.1028,7.1431,7.0697,7.0257,7.0257,6.8715,6.754,6.6843,6.4457,0.0,0.0,0.0,5.5392,5.2942,5.277,5.377,5.5736,5.5184,5.7495,6.1944,6.491,6.698,6.8256,6.8359,6.8325,6.8256,6.8359,6.8842,6.9428,6.9428,6.898,6.8497,6.9187,6.9428,6.967,7.105,7.1498,7.167,7.2567,7.3291,7.3671,7.3119,7.2981,7.2774,7.1981,7.1222,7.067,7.0567,6.9946,6.9601,7.0256,6.8808,6.7807,6.9049,0.0,0.0,6.0291,5.9241,0.0,0.0,0.0,0.0,0.0,0.0,0.0,0.0,0.0,0.0,0.0,0.0,0.0,0.0,0.0,0.0,6.6735,6.8433,6.8983,6.8259,6.8983,6.8294,6.6251,6.6139,6.5626,6.4888,6.498,6.498,6.4949,6.5719,6.6365,6.6981,6.775,6.8366,6.8772,6.8505,6.8059,6.7608,6.7487,6.7365,6.7121,5.7672,5.807,5.8735,5.9552,0.0,6.2636,6.3973,6.4308,6.5051,6.6871,6.7911,6.9063,7.0549,7.1478,7.1858,7.1505,7.2133,0.0,0.0,0.0,0.0,7.1101,6.9559,6.8641,6.8495,6.5113,6.3095,0.0,0.0,5.6833,5.6874,5.5598,5.5563,5.6598,5.7081,5.984,6.4255,6.6669,0.0,6.9118,6.9739,6.9601,6.9153,6.9739,7.0049,7.0187,7.0187,7.0118,7.0015,7.0153,7.0187,7.036,7.1222,7.1498,7.1774,7.3188,7.3671,7.3878,7.4395,7.4533,7.4361,7.3567,7.2809,7.2084,7.1463,7.0739,7.0222,7.036,7.0049,6.9704,6.936,0.0,0.0,0.0,0.0,0.0,0.0,0.0,0.0,0.0,0.0,0.0,0.0,0.0,0.0,0.0,0.0,0.0,0.0,0.0,0.0,0.0,6.7486,0.0,0.0,0.0,6.8126,6.817,6.7125,6.6088,6.4918,6.5472,6.5411,6.498,6.6211,6.6796,6.7012,6.8212,6.8649,6.8505,6.8386,6.8179,6.785,6.7608,6.7487,6.7365,5.9487,6.0407,6.1373,6.1744,0.0,0.0,0.0,6.7428,0.0,6.9063,6.9917,7.0883,7.2072,7.2503,7.2606,7.2354,7.2669,7.2723,7.2496,7.2165,7.1945,7.1945,7.0807,0.0,7.0146,6.8028,6.5958,6.3974,0.0,5.9849,5.7874,5.715,5.7426,5.8633,6.0565,6.2875,6.5428,6.729,0.0,6.9877,7.0256,7.0187,6.9877,7.0256,7.0636,7.1015,7.1429,7.1808,7.2084,7.1705,7.1843,7.2291,7.305,7.3291,7.3429,7.4154,7.4361,7.4464,7.4843,7.4947,7.4843,7.4464,7.4119,7.374,7.336,7.3015,7.2636,7.2222,7.1843,7.1118,6.9404,6.9048,0.0,0.0,0.0,0.0,0.0,0.0,6.3565,0.0,0.0,0.0,0.0,0.0,0.0,0.0,0.0,0.0,0.0,0.0,0.0,0.0,0.0,0.0,0.0,0.0,6.8945,6.8258,6.727,6.6396,6.5411,6.538,6.5411,6.5472,6.6488,6.7104,6.7504,6.8489,6.8772,6.8654,6.8654,6.8535,6.8179,6.8059,6.7819,6.7487,6.2017,6.3267,6.4419,0.0,6.6834,0.0,6.8766,7.014,7.118,7.118,7.1775,7.2481,7.3298,7.3305,7.3145,7.3037,7.2835,7.2723,7.2553,7.2553,7.2496,7.2496,7.1908,7.1468,7.1321,7.0731,6.8727,0.0,0.0,6.2969,5.8875,5.9047,5.984,6.1254,6.3807,6.5566,0.0,0.0,6.9497,7.0636,7.0808,7.0774,7.067,7.0981,7.1463,7.2084,7.2877,7.3636,7.4188,7.3602,7.3671,7.4119,7.474,7.4947,7.4947,7.5119,7.5188,7.5223,7.5361,7.5292,7.5188,7.5188,7.505,7.4947,7.4947,7.4947,7.4774,7.4154,7.3429,7.2326,7.023,7.0113,0.0,0.0,0.0,0.0,0.0,0.0,0.0,0.0,0.0,0.0,0.0,0.0,0.0,0.0,0.0,0.0,0.0,0.0,0.0,0.0,0.0,6.8627,6.8862,0.0,6.9526,6.8219,6.7619,6.6827,6.5903,6.5503,6.5534,6.5934,6.6611,6.7381,6.8181,6.8674,6.8889,6.8889,6.8889,6.8772,6.8505,6.8386,6.8059,6.7638,6.4637,6.5831,6.6945,0.0,0.0,0.0,6.962,7.0995,7.2072,7.2072,7.2146,7.2481,7.3298,7.3305,7.3199,7.3199,7.3037,7.2927,7.2723,7.2667,7.261,7.2496,7.2422,7.2055,7.1321,7.1344,7.0184,0.0,0.0,6.5163,6.2082,6.2737,6.3496,6.4324,6.5324,0.0,0.0,7.0532,7.1256,7.1463,7.2188,7.205,7.1532,7.2946,7.3498,7.3671,7.443,7.5223,7.5878,7.5809,7.5361,7.4843,7.4912,7.4947,7.5085,7.5775,7.6016,7.6154,7.6809,7.6533,7.6016,7.6016,7.5464,7.4947,7.4947,7.4947,7.4912,7.4843,7.4223,7.3395,7.2533,7.1843,7.14,0.0,0.0,0.0,0.0,0.0,6.6711,6.6711,0.0,0.0,0.0,0.0,0.0,0.0,6.441,0.0,0.0,0.0,0.0,6.6459,0.0,6.9613,7.1896,7.0035,6.9184,6.9477,6.8976,6.772,6.5934,6.6457,6.6427,6.5934,6.6611,6.7627,6.8797,6.8858,6.8889,6.8889,6.8889,6.8889,6.8772,6.8505,6.8179,6.8061,6.8128,0.0,0.0,0.0,0.0,0.0,0.0,7.2184,7.2889,7.2889,7.2889,7.3038,7.3335,7.3305,7.3199,7.3199,7.2982,7.2779,7.2723,7.261,7.2553,7.2496,7.2496,7.2349,7.2055,7.2555,7.1692,0.0,0.0,0.0,6.5186,6.5048,6.5117,6.5462,0.0,6.8221,7.0015,7.105,7.1774,7.2291,7.3015,7.3153,7.2981,7.405,7.4464,7.4568,7.5361,7.5844,7.6189,7.6637,7.6568,7.6292,7.6292,7.6292,7.6361,7.6671,7.6775,7.6844,7.7154,7.7016,7.6775,7.6775,7.6533,7.6292,7.6292,7.6292,7.6189,7.574,7.5016,7.4395,7.4085,7.4154,7.3878,7.2825,0.0,0.0,0.0,0.0,0.0,6.8876,0.0,6.7354,0.0,0.0,0.0,0.0,0.0,0.0,0.0,0.0,0.0,6.7567,0.0,6.8499,7.0595,6.9537,6.8969,6.9121,6.8166,6.7504,6.7073,6.615,6.5996,6.6581,6.7627,6.8397,6.8889,6.8889,6.8889,6.8889,6.8889,6.8889,6.8889,6.8772,6.878,6.8879,7.177,0.0,7.3242,0.0,7.3781,7.4561,7.341,7.3707,7.4004,7.3781,7.393,7.393,7.3447,7.3305,7.3199,7.3252,7.2945,7.2779,7.2779,7.2667,7.2553,7.2496,7.2496,0.0,7.2167,7.3191,7.2608,7.031,7.1375,0.0,6.698,6.6221,6.6255,6.6945,6.8187,6.9497,7.0774,7.1532,7.2291,7.305,7.3567,7.3912,7.4223,7.4981,7.5292,7.5395,7.6154,7.643,7.6533,7.7051,7.7223,7.7223,7.7223,7.7223,7.7223,7.7223,7.7223,7.7223,7.7223,7.7223,7.7223,7.7223,7.7223,7.7223,7.7223,7.7223,7.7016,7.6258,7.5671,7.5223,7.4981,7.5395,7.5288,7.3988,0.0,0.0,0.0,7.1751,0.0,7.121,7.0195,6.9451,6.9248,6.8571,0.0,0.0,0.0,0.0,0.0,0.0,0.0,0.0,0.0,0.0,0.0,6.9162,6.8889,6.8889,6.7935,6.7535,6.7596,6.615,6.5996,6.6981,6.8304,6.8889,6.8889,6.8889,6.8889,6.8889,6.8889,6.8889,6.8889,6.8889,6.9053,6.9517,7.5442,7.5887,7.6305,7.5819,7.575,7.5787,7.575,7.575,7.549,7.4673,7.5267,7.5156,7.3558,7.3305,7.3252,7.341,7.3145,7.2982,7.2982,7.2779,7.2667,0.0,0.0,7.2167,7.1422,7.2979,7.2645,7.0394,0.0,0.0,6.698,6.6221,6.7083,6.9256,7.0015,7.0774,7.1532,7.2326,7.3084,7.3774,7.3774,7.4257,7.5016,7.5809,7.612,7.6189,7.6947,7.7223,7.7223,7.7223,7.7223,7.7223,7.7223,7.7223,7.7223,7.7223,7.7223,7.7223,7.7223,7.7223,7.7223,7.7223,7.7223,7.7223,7.7223,7.7223,7.7016,7.6258,7.612,7.5844,7.5085,7.4947,7.5013,7.5253,0.0,0.0,0.0,7.2834,0.0,7.3341,7.3443,7.3138,7.2428,7.1684,0.0,0.0,0.0,0.0,0.0,0.0,0.0,6.7577,6.8197,0.0,7.0568,6.941,6.8889,6.8889,6.8858,6.8181,6.6919,6.6919,6.6888,6.6981,6.8304,6.8889,6.8889,6.8889,6.8889,6.8889,6.8889,6.8889,6.8889,6.8889,6.9053,6.9517,7.7425,7.74,7.7242,7.675,7.6679,7.6493,7.5899,7.5787,7.5713,7.5453,7.5639,7.5601,7.5081,7.4471,7.3951,0.0,7.3145,7.2982,0.0,7.276,7.2553,7.2496,7.2496,7.2423,7.2255,7.3241,7.3183,7.1897,0.0,0.0,0.0,6.9808,7.0084,7.0808,7.105,7.1843,7.3084,7.3326,7.3878,7.4602,7.5154,7.5533,7.5809,7.6568,7.6878,7.6913,7.7154,7.7223,7.7223,7.7223,7.7223,7.7223,7.7223,7.7223,7.7223,7.7223,7.7223,7.7223,7.7223,7.7223,7.7223,7.7223,7.7223,7.7223,7.7223,7.7223,7.7154,7.6913,7.6878,7.6775,7.6533,7.6499,7.639,7.6177,7.5914,0.0,7.4416,0.0,7.3815,7.351,7.3037,7.2665,0.0,7.1751,0.0,0.0,0.0,0.0,0.0,0.0,0.0,0.0,6.9724,0.0,7.1778,7.0599,6.9641,6.8889,6.8458,6.7535,6.6273,6.7165,6.735,6.6981,6.8304,6.8889,6.8889,6.8889,6.8889,6.8889,6.8889,6.8889,6.8889,6.8889,6.9597,7.0492,7.8883,7.8548,7.8104,7.7642,7.7533,7.7347,7.6827,7.6716,7.6604,7.6307,7.653,7.6493,7.5861,7.5639,0.0,7.4338,7.4033,7.3905,7.3905,7.3881,7.3854,7.3854,7.4147,7.4055,7.3524,7.396,0.0,7.2614,7.3147,7.2904,7.1946,7.1946,7.2084,7.236,7.236,7.305,7.4223,7.4223,7.4671,7.543,7.5913,7.6292,7.6568,7.7051,7.7223,7.7223,7.7223,7.7223,7.7223,7.7223,7.7223,7.7223,7.7223,7.7223,7.7223,7.7223,7.7223,7.7223,7.7223,7.7223,7.7223,7.7223,7.7223,7.7223,7.7223,7.7223,7.7223,7.7223,7.7223,7.7223,7.7223,7.7223,7.7043,7.6587,7.6495,7.6139,7.5195,7.5033,7.4965,7.4796,0.0,0.0,0.0,7.324,7.2902,0.0,0.0,0.0,0.0,0.0,0.0,7.162,7.0704,7.0856,7.2314,7.1561,7.0711,6.9526,6.8873,6.7745,6.6334,6.7838,6.7962,6.6981,6.8304,6.8889,6.8889,6.8889,6.8889,6.8889,6.8889,6.8889,6.892,6.9166,6.9967,7.0952,7.9794,7.9303,7.884,7.8386,7.8276,7.8276,7.8276,7.8276,7.8016,7.7273,7.783,7.7682,7.6121,7.6753,7.6939,7.6121,0.0,0.0,7.5494,7.5941,7.6166,7.6166,7.69,7.6636,7.5082,7.5082,7.4329,7.2843,7.2843,7.2843,7.2843,7.2843,7.3188,7.3878,7.3878,7.4292,7.5016,7.5016,7.5464,7.6189,7.6189,7.6602,7.7223,7.7223,7.7223,7.7223,7.7223,7.7223,7.7223,7.7223,7.7223,7.7223,7.7223,7.7223,7.7223,7.7223,7.7223,7.7223,7.7223,7.7223,7.7223,7.7223,7.7223,7.7223,7.7223,7.7223,7.7223,7.7223,7.7223,7.7223,7.7223,7.7223,7.7043,7.6587,7.6495,7.6309,7.5805,7.5709,7.598,7.6724,0.0,0.0,7.5709,7.5608,7.5067,0.0,0.0,0.0,0.0,0.0,7.2744,7.1487,7.1519,7.1739,7.242,7.242,7.1886,7.0711,7.0015,6.883,6.7095,6.8861,6.8607,6.7042,6.8335,6.8889,6.8889,6.8889,6.8889,6.8889,6.8889,6.8889,6.8951,6.9628,7.0305,7.1013,0.0,0.0,7.884,7.8386,7.8276,7.8276,7.8276,7.8276,7.8202,7.8016,7.8165,7.8128,7.7719,7.8425,7.8833,7.8648,7.7217,7.6343,7.6343,7.6788,7.7047,7.7047,7.7231,7.6825,7.5867,7.5867,7.5352,7.4395,7.4395,7.4395,7.4395,7.4361,7.4464,7.4671,7.4671,7.5085,7.5844,7.5844,7.6258,7.6947,7.6947,7.7051,7.7223,7.7223,7.7223,7.7223,7.7223,7.7223,7.7223,7.7223,7.7223,7.7223,7.7223,7.7223,7.7223,7.7223,7.7223,7.7223,7.7223,7.7223,7.7223,7.7223,7.7223,7.7223,7.7223,7.7223,7.7223,7.7223,7.7223,7.7223,7.7223,7.7223,7.7133,7.6828,7.6553,7.6402,7.6028,7.5805,7.5777,7.5946,7.598,7.5676,7.4931,7.4864,7.4965,0.0,0.0,0.0,0.0,7.583,7.4968,7.2678,7.3072,7.3434,7.3599,7.3599,7.305,7.1886,7.1177,7.0224,6.9035,6.9383,6.8858,6.772,6.8551,6.8889,6.8889,6.8889,6.8889,6.8889,6.8889,6.8889,6.8951,6.9628,7.0305,7.1013,7.9751,7.915,7.8618,7.8332,7.8276,7.8276,7.8276,7.8276,7.8276,7.8276,7.8611,7.8833,7.8833,7.9576,8.0059,8.0059,7.9014,7.8322,7.8264,7.8762,7.9055,7.8993,7.936,7.9135,7.8351,7.7955,7.7183,7.607,7.607,7.5825,7.5477,7.5442,7.5516,7.5464,7.5464,7.5913,7.6602,7.6602,7.6844,7.7223,7.7223,7.7223,7.7223,7.7223,7.7223,7.7223,7.7223,7.7223,7.7223,7.7223,7.7223,7.7223,7.7223,7.7223,7.7292,7.7672,7.7499,7.7223,7.7223,7.7223,7.7223,7.7223,7.7223,7.7223,7.7223,7.7223,7.7223,7.7223,7.7223,7.7223,7.7223,7.7223,7.7099,7.6793,7.6645,7.6402,7.6122,7.5899,7.5709,7.5709,7.5709,7.554,7.5134,7.51,7.527,7.5676,7.5709,0.0,7.6318,7.6352,7.5658,7.4299,7.4569,7.477,7.477,7.424,7.3701,7.305,7.2331,7.1454,7.0428,7.0288,6.9666,6.8675,6.8815,6.8889,6.8889,6.8889,6.8889,6.8889,6.8889,6.8889,6.9012,6.9997,7.0582,7.1044,7.9621,7.8904,7.8276,7.8276,7.8276,7.8276,7.8276,7.8388,7.8462,7.8462,7.9168,7.9688,7.9688,8.0394,8.0877,8.0877,8.091,8.0733,8.0406,8.1022,8.1313,8.1195,8.1819,8.1782,8.0911,8.0188,7.9143,7.7762,7.7611,7.7185,7.6538,7.6456,7.6342,7.6292,7.6292,7.6637,7.7223,7.7223,7.7223,7.7223,7.7223,7.7223,7.7223,7.7223,7.7223,7.7223,7.7223,7.7223,7.7223,7.7223,7.7223,7.7258,7.7361,7.7396,7.7568,7.8327,7.8085,7.7534,7.743,7.7327,7.7258,7.7361,7.7292,7.7223,7.7223,7.7223,7.7223,7.7223,7.7223,7.7223,7.7223,7.7223,7.7168,7.7056,7.6713,7.6529,7.6352,7.5967,7.5709,7.5709,7.5709,7.5709,7.5709,7.5709,7.5709,7.5709,7.5709,7.5709,7.5709,7.5709,7.5709,7.5709,7.5709,7.5709,7.5709,7.477,7.4173,7.4073,7.3442,7.2612,7.1558,7.135,7.0674,6.9746,6.9162,6.8889,6.8889,6.8889,6.8889,6.8889,6.8889,6.8951,6.9197,7.0428,7.0982,7.1259,7.9161,7.8686,7.8276,7.8276,7.8276,7.8276,7.8276,7.8871,7.9316,7.9316,7.9985,8.0505,8.0505,8.1285,8.1806,8.1806,8.24,8.2334,8.1366,8.1844,8.2159,8.2003,8.2113,8.1782,8.0911,8.011,7.9625,7.9328,7.8655,7.8283,7.8153,7.7424,7.7002,7.7051,7.7051,7.712,7.7223,7.7223,7.7223,7.7223,7.7223,7.7223,7.7223,7.7223,7.7223,7.7223,7.7223,7.7223,7.7223,7.7223,7.7223,7.7327,7.8017,7.8223,7.8361,7.912,7.9258,7.9017,7.8396,7.7741,7.7396,7.8051,7.7706,7.7223,7.7223,7.7223,7.7223,7.7223,7.7223,7.7223,7.7223,7.7223,7.743,7.8029,7.7365,7.685,7.7315,7.659,7.5899,7.5709,7.5709,7.5709,7.5709,7.5709,7.5709,7.5709,7.5709,7.5709,7.5709,7.5709,7.5709,7.5709,7.5709,7.5709,7.5709,7.5484,7.5085,7.4478,7.4343,7.3763,7.2612,7.1662,7.0931,7.0329,6.9379,6.8889,6.8889,6.8889,6.8889,6.8889,6.8889,6.9228,6.9843,7.0613,7.129,7.1906,7.9102,7.8581,7.8276,7.8276,7.8276,7.8425,7.8871,7.9242,7.9651,8.0097,8.0877,8.1397,8.1397,8.214,8.2623,8.2623,8.2994,8.2913,8.2179,8.2412,8.2444,8.2186,8.2186,8.2018,8.161,8.1266,8.1018,8.1018,8.0659,8.0254,7.9762,7.9373,7.8973,7.8552,7.8082,7.7858,7.7858,7.7367,7.7223,7.7223,7.7223,7.7223,7.7223,7.7223,7.7223,7.7223,7.7223,7.7223,7.7292,7.7706,7.7844,7.7982,7.8775,7.8982,7.9155,7.9879,7.981,7.9431,7.9086,7.843,7.8051,7.881,7.812,7.7327,7.7775,7.7534,7.7223,7.7223,7.7223,7.7223,7.7223,7.7223,7.7327,7.7706,7.725,7.6839,7.6939,7.6514,7.6028,7.5709,7.5709,7.5709,7.5709,7.5709,7.5709,7.5709,7.5709,7.5709,7.5709,7.5709,7.5709,7.5709,7.5709,7.5709,7.5709,7.5709,7.5337,7.4627,7.4627,7.431,7.3763,7.1971,7.1316,7.1452,6.9641,6.8889,6.8889,6.8889,6.8889,6.8889,6.8889,6.9289,6.9967,7.0644,7.1352,7.2091,7.8954,7.8565,7.8351,7.8536,7.8573,7.8833,7.9651,7.9948,8.0282,8.0914,8.1731,8.2251,8.2251,8.2809,8.318,8.318,8.318,8.3061,8.2758,8.2696,8.2571,8.2186,8.2186,8.2186,8.2186,8.2186,8.2186,8.2186,8.2018,8.1542,8.0911,8.0695,8.0292,7.9685,7.9009,7.88,7.8718,7.8082,7.7685,7.7544,7.7544,7.7367,7.7223,7.7223,7.7327,7.7499,7.7499,7.7603,7.7844,7.8465,7.8672,7.8775,7.9534,7.9776,7.9913,8.0672,8.05,8.0051,8.0051,7.9224,7.8637,7.9534,7.8499,7.743,7.8223,7.781,7.7223,7.7223,7.7223,7.7223,7.7223,7.7223,7.7292,7.7465,7.7147,7.6896,7.6827,7.6505,7.6122,7.5805,7.5709,7.5709,7.5709,7.5709,7.5709,7.5709,7.5709,7.5709,7.5709,7.5709,7.5709,7.5709,7.5709,7.5709,7.5709,7.5709,7.5337,7.4627,7.4627,7.4499,7.4181,7.2073,7.1422,7.1778,6.9724,6.8889,6.8889,6.8889,6.8889,6.8889,6.8889,6.9382,7.0182,7.0705,7.1475,7.2275,7.8512,7.8332,7.8536,7.9279,7.9391,7.9688,8.0468,8.1285,8.1843,8.188,8.2586,8.3106,8.3106,8.3143,8.318,8.318,8.318,8.3121,8.2904,8.2758,8.2571,8.2186,8.2186,8.2186,8.2186,8.2186,8.2186,8.2186,8.1368,8.0982,8.0911,8.0143,7.9798,7.9721,7.9643,7.9643,7.9643,7.953,7.9089,7.842,7.842,7.7945,7.7223,7.7223,7.7672,7.8327,7.8327,7.8775,7.9362,7.9396,7.9431,7.9569,8.0293,8.0534,8.0707,8.15,8.1672,8.1638,8.1638,8.0051,7.8741,8.0189,7.8879,7.743,7.8223,7.781,7.7223,7.7223,7.7223,7.7223,7.7223,7.7223,7.7465,7.8189,7.7706,7.7375,7.7789,7.7124,7.6402,7.6122,7.5805,7.5709,7.5709,7.5709,7.5709,7.5709,7.5709,7.5709,7.5709,7.5709,7.5709,7.5709,7.5709,7.5709,7.5709,7.5709,7.5337,7.4627,7.4627,7.4085,7.3011,7.1765,7.0995,7.0599,6.941,6.8889,6.8889,6.8889,6.8889,6.8889,6.8889,6.969,7.0828,7.089,7.1752,7.2922,7.9528,7.9257,7.9279,8.0097,8.0245,8.0505,8.136,8.1768,8.2177,8.266,8.2994,8.318,8.318,8.318,8.318,8.318,8.318,8.3121,8.2904,8.2758,8.2571,8.2186,8.2186,8.2186,8.2186,8.2186,8.2186,8.2186,8.1885,8.1715,8.1715,8.1405,8.1266,8.1266,8.0695,8.044,8.0366,7.9916,7.9565,7.917,7.8718,7.8252,7.798,7.792,7.8154,7.8465,7.8913,7.9258,7.9569,8.0051,8.0189,8.0327,8.1121,8.1362,8.1397,8.1707,8.181,8.181,8.181,8.081,8.0017,8.1086,7.9982,7.8706,7.9017,7.8499,7.781,7.7327,7.7223,7.7223,7.7223,7.7223,7.7327,7.7637,7.743,7.7202,7.7205,7.6908,7.6553,7.6122,7.6028,7.5899,7.5709,7.5709,7.5709,7.5709,7.5709,7.5709,7.5709,7.6183,7.6657,7.7096,7.713,7.6893,7.6454,7.6454,7.6318,7.6048,7.6048,7.5131,7.3507,7.245,7.1413,7.0487,6.941,6.8889,6.8889,6.8889,6.8889,6.892,6.9351,7.009,7.0952,7.1413,7.2152,7.2983,8.0329,8.024,8.0321,8.1008,8.11,8.1397,8.2251,8.2363,8.2549,8.3106,8.318,8.318,8.318,8.318,8.318,8.318,8.318,8.3121,8.3024,8.2819,8.2571,8.2186,8.2186,8.2186,8.2186,8.2186,8.2186,8.2186,8.2186,8.2186,8.2186,8.2186,8.2186,8.2186,8.1542,8.1299,8.1299,8.0695,8.0328,7.9992,7.9487,7.9231,7.9223,7.8886,7.9232,7.9896,7.9822,8.0351,8.1011,8.0962,8.1321,8.1812,8.1792,8.181,8.181,8.181,8.181,8.181,8.181,8.1397,8.1121,8.1672,8.0638,7.95,7.95,7.8948,7.8189,7.7396,7.7223,7.7223,7.7223,7.7223,7.7223,7.7223,7.7223,7.7133,7.6918,7.6828,7.6553,7.6309,7.6122,7.5899,7.5709,7.5912,7.6082,7.6082,7.6284,7.642,7.642,7.6927,7.7468,7.7976,7.7976,7.7874,7.7604,7.7367,7.713,7.6893,7.6893,7.5737,7.3496,7.2632,7.1452,7.0067,6.9209,6.8889,6.8889,6.8889,6.9012,6.9259,6.972,7.0459,7.129,7.1783,7.2398,7.2983,8.0858,8.1153,8.1627,8.1958,8.1991,8.2251,8.3069,8.318,8.318,8.318,8.318,8.318,8.318,8.318,8.318,8.318,8.318,8.318,8.318,8.288,8.2571,8.2186,8.2186,8.2186,8.2186,8.2186,8.2186,8.2186,8.2186,8.2186,8.2186,8.2186,8.2186,8.2186,8.2186,8.2186,8.2186,8.2186,8.1715,8.0911,8.0911,8.0945,8.0784,7.9963,8.1166,8.3091,8.1269,8.226,8.4184,8.2361,8.2961,8.41,8.2396,8.181,8.181,8.181,8.181,8.181,8.181,8.181,8.181,8.181,8.0672,7.9534,7.9534,7.8948,7.8189,7.7396,7.7223,7.7223,7.7223,7.7223,7.7223,7.7223,7.7223,7.7223,7.7223,7.6771,7.6495,7.6495,7.5994,7.5709,7.5709,7.642,7.6893,7.6893,7.757,7.7976,7.801,7.801,7.801,7.801,7.801,7.8348,7.9126,7.8382,7.7638,7.6927,7.6927,7.5306,7.2314,7.2314,7.1044,6.8889,6.8889,6.8889,6.8889,6.8889,6.9289,6.9905,6.9905,7.0736,7.1967,7.1967,7.2398,7.2983,8.3031,8.2669,8.2556,8.3222,8.306,8.292,8.3143,8.318,8.318,8.318,8.318,8.318,8.318,8.318,8.318,8.318,8.318,8.3121,8.2964,8.2904,8.2659,8.2343,8.2251,8.2186,8.2186,8.2186,8.2186,8.2186,8.2186,8.2186,8.2186,8.2186,8.2186,8.2186,8.2186,8.2186,8.2186,8.2186,8.2018,8.1818,8.1741,8.1708,8.1737,8.2112,8.2699,8.3325,8.328,8.3719,8.4314,8.3847,8.4016,8.4314,8.3762,8.3591,8.3591,8.3591,8.3191,8.2871,8.3418,8.2691,8.181,8.181,8.1466,8.0983,8.0431,7.9707,7.912,7.8879,7.7982,7.7396,7.7948,7.7603,7.7223,7.7223,7.7223,7.7223,7.7223,7.7043,7.6953,7.6736,7.6519,7.6573,7.6707,7.7013,7.7256,7.7604,7.7874,7.8213,7.8754,7.8788,7.9025,7.9532,7.9532,7.9634,7.987,7.916,7.8653,7.845,7.7908,7.6039,7.3026,7.2541,7.1044,6.8889,6.8889,6.8889,6.8889,6.8889,6.9289,6.9936,7.0428,7.1167,7.2029,7.2521,7.2798,7.2983,8.4241,8.3869,8.3577,8.3862,8.3508,8.318,8.318,8.318,8.318,8.318,8.318,8.318,8.318,8.318,8.318,8.318,8.318,8.3121,8.3024,8.2964,8.2782,8.2534,8.2343,8.2251,8.2186,8.2186,8.2186,8.2186,8.2186,8.2186,8.2186,8.2186,8.2186,8.2186,8.2186,8.2186,8.2186,8.2186,8.237,8.2634,8.2632,8.3041,8.3555,8.3759,8.4181,8.4737,8.4497,8.4801,8.5309,8.464,8.4396,8.4477,8.4801,8.464,8.4396,8.4396,8.3981,8.3762,8.4231,8.3591,8.2781,8.2361,8.2059,8.1603,8.081,8.0258,7.9776,7.9189,7.8327,7.7741,7.7913,7.7534,7.7223,7.7223,7.7223,7.7223,7.7223,7.7133,7.7112,7.724,7.7182,7.7271,7.7775,7.8115,7.853,7.8986,7.9053,7.9158,7.9532,7.9532,7.9735,8.0175,7.9938,7.9769,7.9769,7.9025,7.8653,7.8653,7.7908,7.5939,7.2929,7.2508,7.1044,6.8889,6.8889,6.8889,6.892,6.9166,6.969,7.0367,7.1044,7.1752,7.2429,7.2829,7.2983,7.2983,8.4872,8.4765,8.458,8.4041,8.362,8.3239,8.318,8.318,8.318,8.318,8.318,8.318,8.318,8.318,8.318,8.318,8.318,8.318,8.318,8.3024,8.288,8.2807,8.2644,8.2491,8.2406,8.226,8.2186,8.2186,8.2186,8.2186,8.2186,8.2186,8.2186,8.2186,8.2186,8.2186,8.2186,8.226,8.2737,8.3434,8.3581,8.4499,8.5715,8.501,8.5664,8.6786,8.5231,8.5616,8.6786,8.5153,8.464,8.472,8.554,8.5309,8.464,8.464,8.4559,8.4559,8.4559,8.4477,8.4231,8.3505,8.2691,8.1757,8.0879,8.0672,8.0258,7.8982,7.8603,7.8292,7.7637,7.743,7.7327,7.7327,7.7327,7.7327,7.7327,7.7181,7.7274,7.8087,7.7878,7.8092,7.8716,7.9501,8.0156,8.0542,8.061,8.051,8.0209,8.0209,8.0209,8.0209,7.9566,7.9194,7.9126,7.8348,7.7942,7.7874,7.7232,7.5306,7.2314,7.2314,7.1044,6.8889,6.8889,6.892,6.9012,6.9628,7.0336,7.1075,7.1721,7.2398,7.2983,7.2983,7.2983,7.2983,8.5811,8.5475,8.5071,8.458,8.4092,8.3638,8.3239,8.318,8.318,8.318,8.318,8.318,8.318,8.318,8.318,8.318,8.318,8.318,8.318,8.318,8.3298,8.3619,8.3593,8.3724,8.4058,8.2847,8.2186,8.2186,8.2186,8.2186,8.2186,8.2186,8.2186,8.2186,8.2186,8.2186,8.2223,8.2884,8.3251,8.3508,8.4756,8.549,8.5857,8.6273,8.6709,8.6925,8.6608,8.6679,8.6925,8.6536,8.6428,8.6428,8.6679,8.6608,8.6428,8.6428,8.5953,8.554,8.6283,8.5463,8.4477,8.5039,8.4477,8.347,8.191,8.1052,8.0707,8.1017,8.012,7.9396,7.981,7.8948,7.8154,7.8154,7.8154,7.8154,7.8154,7.8546,7.8959,7.9132,7.9166,7.9256,7.9822,8.0384,8.0736,8.0576,8.061,8.051,8.0209,8.0209,8.0209,8.0209,8.004,7.9701,7.9126,7.8348,7.7705,7.713,7.6961,7.5306,7.2314,7.2314,7.1044,6.8889,6.8889,6.9197,6.969,6.9843,7.0613,7.1752,7.1906,7.2398,7.2983,7.2983,7.2983,7.2983,8.6094,8.5702,8.5238,8.4765,8.4242,8.3709,8.3297,8.318,8.318,8.318,8.3514,8.3626,8.3217,8.3886,8.4183,8.3812,8.3775,8.3775,8.3775,8.4109,8.4397,8.4595,8.4532,8.4562,8.4742,8.3831,8.3324,8.3324,8.3324,8.3324,8.3324,8.2957,8.2774,8.2774,8.237,8.2406,8.281,8.3251,8.3838,8.4609,8.5453,8.604,8.6407,8.6848,8.6995,8.6995,8.6995,8.6995,8.6995,8.6995,8.6995,8.6995,8.6995,8.6995,8.6995,8.6995,8.6679,8.6428,8.6856,8.6356,8.5616,8.5692,8.5386,8.4559,8.2871,8.2139,8.1678,8.1318,8.0603,8.0051,8.0086,7.9465,7.8948,7.8948,7.8948,7.8948,7.8948,7.9258,7.9638,7.9982,8.0051,8.0234,8.0897,8.1249,8.12,8.0808,8.0808,8.061,8.0209,8.0209,8.0209,8.0209,7.987,7.9329,7.8585,7.7841,7.7096,7.6318,7.6318,7.5171,7.305,7.2526,7.1342,6.9641,6.9432,6.9566,6.9936,7.0613,7.1321,7.1998,7.2337,7.2675,7.2983,7.2983,7.2983,7.3045,8.6094,8.5775,8.5397,8.4899,8.439,8.387,8.3376,8.3239,8.3254,8.3366,8.3849,8.4035,8.3626,8.4778,8.5335,8.4666,8.4592,8.4592,8.4592,8.5223,8.5608,8.5571,8.5445,8.5328,8.5279,8.5147,8.4866,8.4609,8.4609,8.4609,8.4609,8.3911,8.3544,8.3398,8.27,8.2774,8.3434,8.3581,8.4462,8.582,8.593,8.6407,8.6995,8.6995,8.6995,8.6995,8.6995,8.6995,8.6995,8.6995,8.6995,8.6995,8.6995,8.6995,8.6995,8.6995,8.6995,8.6995,8.6995,8.6995,8.6856,8.6101,8.5917,8.5463,8.3727,8.3156,8.2661,8.1101,8.081,8.0638,8.0017,7.9776,7.9707,7.9707,7.9707,7.9707,7.9707,7.981,8.012,8.0741,8.081,8.1086,8.1741,8.181,8.162,8.1102,8.1005,8.0808,8.0309,8.0209,8.0209,8.0209,7.9498,7.8754,7.801,7.7266,7.6487,7.5709,7.5709,7.5064,7.3937,7.2842,7.1733,7.0708,7.0186,7.0028,7.0336,7.1506,7.2029,7.2214,7.2768,7.2983,7.2983,7.2983,7.3045,7.3229,8.6094,8.606,8.5849,8.5397,8.4899,8.439,8.387,8.3452,8.344,8.4146,8.3737,8.3849,8.5149,8.5483,8.5558,8.5446,8.5446,8.5446,8.5446,8.5521,8.5868,8.6423,8.6423,8.6565,8.6973,8.6973,8.6139,8.4609,8.4609,8.4609,8.4609,8.4499,8.4058,8.3398,8.3287,8.3324,8.3471,8.4132,8.4976,8.5857,8.6554,8.6921,8.6995,8.6995,8.6995,8.6995,8.6995,8.6995,8.6995,8.6995,8.6995,8.6995,8.6995,8.6995,8.6995,8.6995,8.6995,8.6995,8.6995,8.6995,8.6995,8.6856,8.6856,8.6356,8.464,8.3677,8.2801,8.1827,8.1638,8.1603,8.15,8.0914,8.0465,8.0465,8.0465,8.0465,8.0465,8.1052,8.1535,8.1638,8.1638,8.1672,8.1776,8.181,8.1681,8.1393,8.1102,8.0906,8.061,8.0309,8.0209,8.0209,7.9498,7.8754,7.801,7.7266,7.6487,7.5709,7.5709,7.5064,7.3937,7.2842,7.199,7.1402,7.0403,7.0582,7.169,7.1906,7.2306,7.286,7.2952,7.2983,7.2983,7.2983,7.3353,7.3876,8.6094,8.6094,8.5954,8.5475,8.4986,8.4637,8.4576,8.418,8.4146,8.4963,8.5149,8.5298,8.5558,8.5595,8.5781,8.6226,8.6264,8.6264,8.6264,8.6709,8.7155,8.7402,8.7339,8.7295,8.7402,8.7335,8.6869,8.593,8.593,8.593,8.593,8.549,8.5086,8.4719,8.4278,8.4382,8.4926,8.5294,8.5949,8.6819,8.7053,8.7169,8.7169,8.6995,8.6995,8.6995,8.6995,8.6995,8.6995,8.6995,8.6995,8.6995,8.6995,8.6995,8.6995,8.6995,8.6995,8.6995,8.6995,8.6995,8.6995,8.6995,8.6995,8.6536,8.4801,8.4065,8.3418,8.2024,8.181,8.181,8.181,8.15,8.1293,8.1293,8.1293,8.1293,8.1293,8.1569,8.181,8.181,8.181,8.181,8.181,8.181,8.1715,8.1393,8.1297,8.0834,7.9998,8.0272,8.0206,7.96,7.9295,7.8754,7.801,7.7266,7.6724,7.6352,7.6352,7.5701,7.45,7.3323,7.2632,7.2128,7.1428,7.1413,7.1998,7.2368,7.2706,7.2983,7.2983,7.2983,7.3045,7.3414,7.3753,7.4091]},{"header":{"parameterUnit":"m.s-1","parameterCategory":1,"la1":30.6,"la2":28.766,"lo1":-90.7593,"lo2":-88.6598,"dx":0.0162,"dy":0.0183,"nx":116,"ny":114,"refTime":"2022-12-31T06:00:00:Z","depth":0,"parameterNumber":3,"parameterNumberName":"V-component_of_WINDS"},"data":[0.0,0.0,0.0,0.0,0.0,0.0,0.0,0.0,0.0,0.0,0.0,0.0,0.0,0.0,0.0,0.0,0.0,0.0,0.0,0.0,0.0,0.0,0.0,0.0,0.0,0.0,0.0,0.0,0.0,0.0,0.0,0.0,0.0,0.0,0.0,0.0,0.0,0.0,0.0,0.0,0.0,0.0,0.0,0.0,0.0,0.0,0.0,0.0,0.0,0.0,0.0,0.0,0.0,0.0,0.0,0.0,0.0,0.0,0.0,0.0,0.0,0.0,0.0,0.0,0.0,0.0,0.0,0.0,0.0,0.0,0.0,0.0,0.0,0.0,0.0,0.0,0.0,0.0,0.0,0.0,0.0,0.0,0.0,0.0,0.0,0.0,0.0,0.0,0.0,0.0,0.0,0.0,0.0,0.0,0.0,0.0,0.0,0.0,0.0,0.0,0.0,0.0,0.0,0.0,0.0,0.0,0.0,0.0,0.0,0.0,0.0,0.0,0.0,0.0,0.0,0.0,0.0,0.0,0.0,0.0,0.0,0.0,0.0,0.0,0.0,0.0,0.0,0.0,0.0,0.0,0.0,0.0,0.0,0.0,0.0,0.0,0.0,0.0,0.0,0.0,0.0,0.0,0.0,0.0,0.0,0.0,0.0,0.0,0.0,0.0,0.0,0.0,0.0,0.0,0.0,0.0,0.0,0.0,0.0,0.0,0.0,0.0,0.0,0.0,0.0,0.0,0.0,0.0,0.0,0.0,0.0,0.0,0.0,0.0,0.0,0.0,0.0,0.0,0.0,0.0,0.0,0.0,0.0,0.0,0.0,0.0,0.0,0.0,0.0,0.0,0.0,0.0,0.0,0.0,0.0,0.0,0.0,0.0,0.0,0.0,0.0,0.0,0.0,0.0,0.0,0.0,0.0,0.0,0.0,0.0,0.0,0.0,0.0,0.0,0.0,0.0,0.0,0.0,0.0,0.0,0.0,0.0,0.0,0.0,0.0,0.0,0.0,0.0,0.0,0.0,0.0,0.0,0.0,0.0,0.0,0.0,0.0,0.0,0.0,0.0,0.0,0.0,0.0,0.0,0.0,0.0,0.0,0.0,0.0,0.0,0.0,0.0,0.0,0.0,0.0,0.0,0.0,0.0,0.0,0.0,0.0,0.0,0.0,0.0,0.0,0.0,0.0,0.0,0.0,0.0,0.0,0.0,0.0,0.0,0.0,0.0,0.0,0.0,0.0,0.0,0.0,0.0,0.0,0.0,0.0,0.0,0.0,0.0,0.0,0.0,0.0,0.0,0.0,0.0,0.0,0.0,0.0,0.0,0.0,0.0,0.0,0.0,0.0,0.0,0.0,0.0,0.0,0.0,0.0,0.0,0.0,0.0,0.0,0.0,0.0,0.0,0.0,0.0,0.0,0.0,0.0,0.0,0.0,0.0,0.0,0.0,0.0,0.0,0.0,0.0,0.0,0.0,0.0,0.0,0.0,0.0,0.0,0.0,0.0,0.0,0.0,0.0,0.0,0.0,0.0,0.0,0.0,0.0,0.0,0.0,0.0,0.0,0.0,0.0,0.0,0.0,0.0,0.0,0.0,0.0,0.0,0.0,0.0,0.0,0.0,0.0,0.0,0.0,0.0,0.0,0.0,0.0,0.0,0.0,0.0,0.0,0.0,0.0,0.0,0.0,0.0,0.0,0.0,0.0,0.0,0.0,0.0,0.0,0.0,0.0,0.0,0.0,0.0,0.0,0.0,0.0,0.0,0.0,0.0,0.0,0.0,0.0,0.0,0.0,0.0,0.0,0.0,0.0,0.0,0.0,0.0,0.0,0.0,0.0,0.0,0.0,0.0,0.0,0.0,0.0,0.0,0.0,0.0,0.0,0.0,0.0,0.0,0.0,0.0,0.0,0.0,0.0,0.0,0.0,0.0,0.0,0.0,0.0,0.0,0.0,0.0,0.0,0.0,0.0,0.0,0.0,0.0,0.0,0.0,0.0,0.0,0.0,0.0,0.0,0.0,0.0,0.0,0.0,0.0,0.0,0.0,0.0,0.0,0.0,0.0,0.0,0.0,0.0,0.0,0.0,0.0,0.0,0.0,0.0,0.0,0.0,0.0,0.0,0.0,0.0,0.0,0.0,0.0,0.0,0.0,0.0,0.0,0.0,0.0,0.0,0.0,0.0,0.0,0.0,0.0,0.0,0.0,0.0,0.0,0.0,0.0,0.0,0.0,0.0,0.0,0.0,0.0,0.0,0.0,0.0,0.0,0.0,0.0,0.0,0.0,0.0,0.0,0.0,0.0,0.0,0.0,0.0,0.0,0.0,0.0,0.0,0.0,0.0,0.0,0.0,0.0,0.0,0.0,0.0,0.0,0.0,0.0,0.0,0.0,0.0,0.0,0.0,0.0,0.0,0.0,0.0,0.0,0.0,0.0,0.0,0.0,0.0,0.0,0.0,0.0,0.0,0.0,0.0,0.0,0.0,0.0,0.0,0.0,0.0,0.0,0.0,0.0,0.0,0.0,0.0,0.0,0.0,0.0,0.0,0.0,0.0,0.0,0.0,0.0,0.0,0.0,0.0,0.0,0.0,0.0,0.0,0.0,0.0,0.0,0.0,0.0,0.0,0.0,0.0,0.0,0.0,0.0,0.0,0.0,0.0,0.0,0.0,0.0,0.0,0.0,0.0,0.0,0.0,0.0,0.0,0.0,0.0,0.0,0.0,0.0,0.0,0.0,0.0,0.0,0.0,0.0,0.0,0.0,0.0,0.0,0.0,0.0,0.0,0.0,0.0,0.0,0.0,0.0,0.0,0.0,0.0,0.0,0.0,0.0,0.0,0.0,0.0,0.0,0.0,0.0,0.0,0.0,0.0,0.0,0.0,0.0,0.0,0.0,0.0,0.0,0.0,0.0,0.0,0.0,0.0,0.0,0.0,0.0,0.0,0.0,0.0,0.0,0.0,0.0,0.0,0.0,0.0,0.0,0.0,0.0,0.0,0.0,0.0,0.0,0.0,0.0,0.0,0.0,0.0,0.0,0.0,0.0,0.0,0.0,0.0,0.0,0.0,0.0,0.0,0.0,0.0,0.0,0.0,0.0,0.0,0.0,0.0,0.0,0.0,0.0,0.0,0.0,0.0,0.0,0.0,0.0,0.0,0.0,0.0,0.0,0.0,0.0,0.0,0.0,0.0,0.0,0.0,0.0,0.0,0.0,0.0,0.0,0.0,0.0,0.0,0.0,0.0,0.0,0.0,0.0,0.0,0.0,0.0,0.0,0.0,0.0,0.0,0.0,0.0,0.0,0.0,0.0,0.0,0.0,0.0,0.0,0.0,0.0,0.0,0.0,0.0,0.0,0.0,0.0,0.0,0.0,0.0,0.0,0.0,0.0,0.0,0.0,0.0,0.0,0.0,0.0,0.0,0.0,0.0,0.0,0.0,0.0,0.0,0.0,0.0,0.0,0.0,0.0,0.0,0.0,0.0,0.0,0.0,0.0,0.0,0.0,0.0,0.0,0.0,0.0,0.0,0.0,0.0,0.0,0.0,0.0,0.0,0.0,0.0,0.0,0.0,0.0,0.0,0.0,0.0,0.0,0.0,0.0,0.0,0.0,0.0,0.0,0.0,0.0,0.0,0.0,0.0,0.0,0.0,0.0,0.0,0.0,0.0,0.0,0.0,0.0,0.0,0.0,0.0,0.0,0.0,0.0,0.0,0.0,0.0,0.0,0.0,0.0,0.0,0.0,0.0,0.0,0.0,0.0,0.0,0.0,0.0,0.0,0.0,0.0,0.0,0.0,0.0,0.0,0.0,0.0,0.0,0.0,0.0,0.0,0.0,0.0,0.0,0.0,0.0,0.0,0.0,0.0,0.0,0.0,0.0,0.0,0.0,0.0,0.0,0.0,0.0,0.0,0.0,0.0,0.0,0.0,0.0,0.0,0.0,0.0,0.0,0.0,0.0,0.0,0.0,0.0,0.0,0.0,0.0,0.0,0.0,0.0,0.0,0.0,0.0,0.0,0.0,0.0,0.0,0.0,0.0,0.0,0.0,0.0,0.0,0.0,0.0,0.0,0.0,0.0,0.0,0.0,0.0,0.0,0.0,0.0,0.0,0.0,0.0,0.0,0.0,0.0,0.0,0.0,0.0,0.0,0.0,0.0,0.0,0.0,0.0,0.0,0.0,0.0,0.0,0.0,0.0,0.0,0.0,0.0,0.0,0.0,0.0,0.0,0.0,0.0,0.0,0.0,0.0,0.0,0.0,0.0,0.0,0.0,0.0,0.0,0.0,0.0,0.0,0.0,0.0,0.0,0.0,0.0,0.0,0.0,0.0,0.0,0.0,0.0,0.0,0.0,0.0,0.0,0.0,0.0,0.0,0.0,0.0,0.0,0.0,0.0,0.0,0.0,0.0,0.0,0.0,0.0,0.0,0.0,0.0,0.0,0.0,0.0,0.0,0.0,0.0,0.0,0.0,0.0,0.0,0.0,0.0,0.0,0.0,0.0,0.0,0.0,0.0,0.0,0.0,0.0,0.0,0.0,0.0,0.0,0.0,0.0,0.0,0.0,0.0,0.0,0.0,0.0,0.0,0.0,0.0,0.0,0.0,0.0,0.0,0.0,0.0,0.0,0.0,0.0,0.0,0.0,0.0,0.0,0.0,0.0,0.0,0.0,0.0,0.0,0.0,0.0,0.0,0.0,0.0,0.0,0.0,0.0,0.0,0.0,0.0,0.0,0.0,0.0,0.0,0.0,0.0,0.0,0.0,0.0,0.0,0.0,0.0,0.0,0.0,0.0,0.0,0.0,0.0,0.0,0.0,0.0,0.0,0.0,0.0,0.0,0.0,0.0,0.0,0.0,0.0,0.0,0.0,0.0,0.0,0.0,0.0,0.0,0.0,0.0,0.0,0.0,0.0,0.0,0.0,0.0,0.0,0.0,0.0,0.0,0.0,0.0,0.0,0.0,0.0,0.0,0.0,0.0,0.0,0.0,0.0,0.0,0.0,0.0,0.0,0.0,0.0,0.0,0.0,0.0,0.0,0.0,0.0,0.0,0.0,0.0,0.0,0.0,0.0,0.0,0.0,0.0,0.0,0.0,0.0,0.0,0.0,0.0,0.0,0.0,0.0,0.0,0.0,0.0,0.0,0.0,0.0,0.0,0.0,0.0,0.0,0.0,0.0,0.0,0.0,0.0,0.0,0.0,0.0,0.0,0.0,0.0,0.0,0.0,0.0,0.0,0.0,0.0,0.0,0.0,0.0,0.0,0.0,0.0,0.0,0.0,0.0,0.0,0.0,0.0,0.0,0.0,0.0,0.0,0.0,0.0,0.0,0.0,0.0,0.0,0.0,0.0,0.0,0.0,0.0,0.0,0.0,0.0,0.0,0.0,0.0,0.0,0.0,0.0,0.0,0.0,0.0,0.0,0.0,0.0,0.0,0.0,0.0,0.0,0.0,0.0,0.0,0.0,0.0,0.0,0.0,0.0,0.0,0.0,0.0,0.0,0.0,0.0,0.0,0.0,0.0,0.0,0.0,0.0,0.0,0.0,0.0,0.0,0.0,0.0,0.0,0.0,0.0,0.0,0.0,0.0,0.0,0.0,0.0,0.0,0.0,0.0,0.0,0.0,0.0,0.0,0.0,0.0,0.0,0.0,0.0,0.0,0.0,0.0,0.0,0.0,0.0,0.0,0.0,0.0,0.0,0.0,0.0,0.0,0.0,0.0,0.0,0.0,0.0,0.0,0.0,0.0,0.0,0.0,0.0,0.0,0.0,0.0,0.0,0.0,0.0,0.0,0.0,0.0,0.0,0.0,0.0,0.0,0.0,0.0,0.0,0.0,0.0,0.0,0.0,0.0,0.0,0.0,0.0,0.0,0.0,0.0,0.0,0.0,0.0,0.0,0.0,0.0,0.0,0.0,0.0,0.0,0.0,0.0,0.0,0.0,0.0,0.0,0.0,0.0,0.0,0.0,0.0,0.0,0.0,0.0,0.0,0.0,0.0,0.0,0.0,0.0,0.0,0.0,0.0,0.0,0.0,0.0,0.0,0.0,0.0,0.0,0.0,0.0,0.0,0.0,0.0,0.0,0.0,0.0,0.0,0.0,0.0,-3.3772,0.0,0.0,0.0,0.0,0.0,0.0,0.0,0.0,0.0,0.0,0.0,0.0,0.0,0.0,0.0,0.0,0.0,0.0,0.0,0.0,0.0,0.0,0.0,0.0,-1.6374,-1.6374,-1.6374,-1.6167,0.0,0.0,0.0,0.0,0.0,0.0,0.0,0.0,0.0,-1.6105,-1.7036,-1.7183,-1.7573,-1.8319,-1.8185,-1.8109,-1.7924,0.0,0.0,0.0,0.0,0.0,0.0,0.0,0.0,0.0,0.0,0.0,0.0,0.0,0.0,0.0,0.0,0.0,0.0,0.0,0.0,0.0,0.0,0.0,0.0,0.0,0.0,0.0,0.0,0.0,0.0,0.0,0.0,0.0,0.0,0.0,0.0,0.0,0.0,0.0,0.0,0.0,0.0,0.0,0.0,0.0,0.0,0.0,0.0,0.0,0.0,0.0,0.0,0.0,0.0,0.0,0.0,0.0,0.0,0.0,0.0,0.0,0.0,0.0,0.0,0.0,0.0,0.0,0.0,0.0,0.0,0.0,-3.4601,0.0,0.0,0.0,0.0,0.0,0.0,0.0,0.0,0.0,0.0,0.0,0.0,0.0,0.0,0.0,0.0,0.0,0.0,0.0,0.0,0.0,-1.6332,-1.6477,-1.6498,-1.6519,-1.6601,-1.6622,-1.6456,-1.6063,-1.6415,0.0,0.0,0.0,0.0,-1.6042,-1.6415,-1.7057,-1.7905,-1.8308,-1.8664,-1.8843,-1.9778,-1.9605,-1.8573,-1.8274,0.0,0.0,0.0,0.0,0.0,0.0,0.0,0.0,0.0,0.0,0.0,0.0,0.0,0.0,0.0,0.0,0.0,0.0,0.0,0.0,0.0,0.0,0.0,0.0,0.0,0.0,0.0,0.0,0.0,0.0,0.0,0.0,0.0,0.0,0.0,0.0,0.0,0.0,0.0,0.0,0.0,0.0,0.0,0.0,0.0,0.0,0.0,0.0,0.0,0.0,0.0,0.0,0.0,0.0,0.0,0.0,0.0,0.0,0.0,0.0,0.0,0.0,0.0,-3.6625,-3.7232,-3.7883,-3.8376,-3.8964,-3.9468,-3.7243,-3.6087,-3.5704,-3.5103,0.0,0.0,0.0,0.0,0.0,0.0,0.0,0.0,0.0,0.0,0.0,0.0,0.0,0.0,0.0,0.0,0.0,0.0,0.0,-1.6084,-1.6811,-1.6894,-1.7059,-1.7512,-1.7554,-1.7533,-1.7471,-1.7451,0.0,0.0,0.0,-1.7471,-1.7471,-1.7533,-1.7862,-1.8634,-1.9667,-2.0219,-2.0206,-2.0528,-2.0635,-2.0451,-2.0144,-1.9624,-1.8899,0.0,0.0,0.0,0.0,0.0,0.0,0.0,0.0,0.0,0.0,0.0,0.0,0.0,0.0,0.0,0.0,0.0,0.0,0.0,0.0,0.0,0.0,0.0,0.0,0.0,0.0,0.0,0.0,0.0,0.0,0.0,0.0,0.0,0.0,0.0,0.0,0.0,0.0,0.0,0.0,0.0,-2.9779,-3.0331,0.0,0.0,0.0,0.0,0.0,0.0,0.0,0.0,0.0,0.0,0.0,0.0,0.0,-3.4966,-3.6418,-3.6884,-3.752,-3.8277,-3.8877,-3.9216,-3.9294,-3.9372,-3.9547,-3.9573,-4.0094,0.0,-3.7508,-3.6907,0.0,0.0,0.0,0.0,0.0,0.0,0.0,0.0,0.0,0.0,0.0,0.0,0.0,0.0,0.0,0.0,0.0,0.0,0.0,0.0,0.0,-1.7143,-1.7328,-1.7409,-1.7429,-1.7491,-1.7595,-1.7616,0.0,0.0,-1.8092,-1.8092,-1.8092,-1.8232,-1.8675,-1.9434,-2.0642,-2.1145,-2.0903,-2.1395,-2.1451,-2.1206,-2.1494,-2.0928,-1.9831,-2.0244,0.0,0.0,0.0,0.0,0.0,0.0,0.0,0.0,0.0,0.0,0.0,0.0,0.0,0.0,0.0,0.0,0.0,0.0,0.0,0.0,0.0,0.0,0.0,0.0,0.0,0.0,0.0,0.0,0.0,0.0,0.0,0.0,0.0,0.0,0.0,0.0,0.0,0.0,0.0,-2.9679,-3.0206,-3.1361,-3.1235,-3.1135,0.0,0.0,0.0,0.0,0.0,0.0,0.0,0.0,0.0,-3.5916,-3.6405,-3.7246,-3.8288,-3.8522,-3.8877,-3.9233,-3.9494,-3.9782,-4.0069,-4.0622,-4.1069,-4.1459,-4.212,-4.1838,-4.095,-4.0377,-3.9803,-3.9371,0.0,0.0,0.0,0.0,-3.8922,-3.9901,0.0,0.0,0.0,0.0,0.0,0.0,0.0,0.0,0.0,0.0,0.0,0.0,-1.7104,-1.7451,-1.7569,-1.7564,-1.75,-1.7688,-1.7981,-1.7981,-1.8315,-1.8878,-1.8899,-1.8858,-1.8733,-1.8987,-1.9524,-2.0293,-2.1403,-2.1827,-2.1683,-2.2186,-2.2265,-2.1937,-2.2443,-2.1963,-2.0783,-2.136,-2.1495,-2.1424,0.0,0.0,0.0,0.0,0.0,0.0,0.0,0.0,0.0,0.0,0.0,0.0,0.0,0.0,0.0,0.0,0.0,0.0,0.0,0.0,0.0,0.0,0.0,0.0,0.0,0.0,0.0,0.0,0.0,0.0,0.0,0.0,0.0,0.0,0.0,0.0,0.0,-3.0507,-3.0959,-3.2466,-3.2164,-3.1938,0.0,0.0,0.0,0.0,0.0,0.0,-3.4589,-3.5263,-3.6299,-3.7638,-3.8359,-3.8964,-3.9599,-3.9756,-3.9808,-3.9808,-4.0122,-4.0461,-4.0853,-4.1612,-4.2393,-4.3296,-4.3714,-4.4104,-4.4464,-4.3257,-4.2716,-4.2519,-4.2128,-4.2128,-4.2298,-4.1653,-4.1938,-4.274,0.0,0.0,0.0,0.0,0.0,0.0,0.0,0.0,0.0,0.0,0.0,-1.7124,-1.7981,-1.791,-1.8026,-1.8382,-1.8422,-1.8738,-1.9369,-1.939,-1.9643,-2.0307,-2.0327,-2.012,-1.9775,-1.9909,-2.0459,-2.1431,-2.1941,-2.239,-2.2798,-2.3062,-2.3143,-2.3122,-2.3143,-2.2625,-2.1735,-2.1735,-2.2497,-2.3448,-2.232,0.0,0.0,0.0,0.0,0.0,0.0,0.0,0.0,0.0,0.0,0.0,0.0,0.0,0.0,0.0,0.0,0.0,0.0,0.0,0.0,0.0,0.0,0.0,0.0,0.0,0.0,0.0,0.0,0.0,0.0,0.0,0.0,0.0,0.0,0.0,0.0,0.0,0.0,-3.3671,-3.3319,0.0,0.0,0.0,0.0,-3.46,-3.4625,-3.5193,-3.6582,-3.6938,-3.7664,-3.9084,-3.9355,-3.9573,-3.9599,-4.0122,-4.0383,-4.0383,-4.1507,-4.2056,-4.2082,-4.2184,-4.3057,-4.4547,-4.4996,-4.6158,-4.734,-4.4521,-4.3082,-4.2575,-4.2547,-4.2241,-4.182,-4.2651,-4.3396,-4.4179,0.0,0.0,0.0,-1.6374,-1.6001,-1.5794,-1.6084,-1.6125,-1.6291,-1.6746,-1.7267,-1.7714,-1.793,-1.8322,-1.8586,-1.8834,-1.8953,-1.9143,-1.9492,-1.9636,-1.9931,-2.0339,-2.07,-2.0855,-2.0851,-2.0941,-2.1329,-2.1941,-2.2676,-2.3227,-2.3557,-2.424,-2.4509,-2.4509,-2.4799,-2.4405,-2.3536,-2.2936,-2.2762,-2.2963,-2.301,-2.318,0.0,0.0,0.0,0.0,0.0,0.0,0.0,0.0,0.0,0.0,0.0,0.0,0.0,0.0,0.0,0.0,0.0,0.0,0.0,0.0,0.0,0.0,0.0,0.0,0.0,0.0,0.0,0.0,0.0,0.0,0.0,0.0,0.0,0.0,0.0,0.0,0.0,-3.4299,-3.4248,0.0,-3.4675,-3.5052,-3.5403,-3.5755,-3.5941,-3.6539,-3.7774,-3.821,-3.8678,-3.9188,-4.0207,-4.109,-4.1716,-4.2306,-4.3155,-4.4193,-4.4633,-4.4853,-4.4853,-4.5539,-4.6135,-4.6718,-4.7556,-4.8168,-4.8711,-4.7639,-4.7107,-4.6931,-4.6931,-4.6784,-4.6638,-4.6963,-4.7346,-4.776,0.0,0.0,0.0,-1.6374,-1.6125,-1.6084,-1.6539,-1.6601,-1.6808,-1.7287,-1.7777,-1.8051,-1.8241,-1.8577,-1.8903,-1.9061,-1.9193,-1.9456,-1.9819,-2.003,-2.0398,-2.0886,-2.1176,-2.1494,-2.1794,-2.1814,-2.2121,-2.2796,-2.3473,-2.4008,-2.4343,-2.5088,-2.5461,-2.5461,-2.5751,-2.5544,-2.4943,-2.4364,-2.366,-2.3016,-2.3444,-2.3533,-2.3379,0.0,0.0,0.0,0.0,0.0,0.0,0.0,0.0,0.0,0.0,0.0,0.0,0.0,0.0,0.0,0.0,0.0,0.0,0.0,0.0,0.0,0.0,0.0,0.0,0.0,0.0,0.0,0.0,0.0,0.0,0.0,0.0,0.0,0.0,0.0,-3.3972,-3.4876,-3.5002,-3.5077,-3.5253,-3.5604,-3.6049,-3.6777,-3.6709,-3.721,-3.8633,-3.9433,-4.0106,-4.0412,-4.2137,-4.3318,-4.407,-4.4483,-4.5163,-4.6333,-4.6461,-4.6546,-4.6546,-4.7252,-4.7874,-4.8457,-4.8909,-4.9429,-4.9912,-4.9912,-4.9912,-4.9883,-4.9434,-4.9254,-4.9254,-4.9254,-4.9344,-4.9524,0.0,0.0,-1.6181,-1.6374,-1.6374,-1.6519,-1.6915,-1.6997,-1.7266,-1.8002,-1.7971,-1.8181,-1.8815,-1.8723,-1.8828,-1.9277,-1.9316,-1.9732,-2.0541,-2.0656,-2.1029,-2.1838,-2.1838,-2.2066,-2.2522,-2.2563,-2.2998,-2.3929,-2.4364,-2.4819,-2.5254,-2.5689,-2.5896,-2.5896,-2.5916,-2.5916,-2.5896,-2.5896,-2.513,-2.395,-2.363,-2.3535,-2.3558,0.0,0.0,0.0,0.0,0.0,0.0,0.0,0.0,0.0,0.0,0.0,0.0,0.0,0.0,0.0,0.0,0.0,0.0,0.0,0.0,0.0,0.0,0.0,0.0,0.0,0.0,0.0,0.0,0.0,0.0,0.0,0.0,0.0,-3.3947,-3.4399,-3.4951,-3.5504,-3.5579,-3.578,-3.6402,-3.6452,-3.6828,-3.7821,-3.7015,-3.739,-3.9389,-4.0736,-4.1908,-4.2985,-4.5107,-4.6333,-4.6333,-4.6361,-4.6389,-4.6543,-4.7038,-4.7221,-4.725,-4.725,-4.8182,-4.964,-4.9126,-4.9816,-5.1289,-5.1289,-5.1289,-5.1139,-4.9853,-4.9314,-4.9314,-4.9314,-4.9404,-4.9434,-1.574,-1.5856,-1.6009,-1.6181,-1.6181,-1.6382,-1.6915,-1.7205,-1.7554,-1.8063,-1.8147,-1.8367,-1.8854,-1.8978,-1.935,-1.993,-2.0095,-2.0365,-2.069,-2.1221,-2.1944,-2.2791,-2.2811,-2.3018,-2.3494,-2.3805,-2.426,-2.4861,-2.5295,-2.5585,-2.5709,-2.6165,-2.6372,-2.6392,-2.6724,-2.6703,-2.6372,-2.6372,-2.5978,-2.5254,-2.4513,-2.4211,-2.4059,0.0,0.0,0.0,0.0,0.0,0.0,0.0,0.0,0.0,0.0,0.0,0.0,0.0,0.0,0.0,0.0,0.0,0.0,0.0,0.0,0.0,0.0,0.0,0.0,0.0,0.0,0.0,0.0,0.0,0.0,0.0,-3.5072,-3.5865,-3.5168,-3.5228,-3.578,-3.7051,-3.6599,-3.6718,-3.8289,-3.7795,-3.7978,-3.9291,-3.9382,-4.0302,-4.2356,-4.305,-4.3776,-4.4674,-4.5745,-4.665,-4.7441,-4.7874,-4.8952,-5.0589,-5.0766,-5.109,-5.1532,-5.1532,-5.1748,-5.2218,-5.204,-5.2263,-5.2636,-5.2636,-5.2636,-5.2516,-5.1199,-5.0783,-5.0968,-5.0968,-5.106,-5.1334,-1.5682,-1.574,-1.5856,-1.6009,-1.6009,-1.629,-1.6981,-1.7246,-1.7569,-1.8132,-1.8235,-1.8497,-1.897,-1.9213,-1.9605,-2.0289,-2.0584,-2.0936,-2.1521,-2.229,-2.2879,-2.3184,-2.337,-2.3701,-2.4136,-2.4592,-2.5047,-2.5502,-2.5958,-2.6165,-2.6185,-2.6641,-2.6848,-2.6868,-2.7138,-2.7117,-2.6848,-2.6848,-2.6599,-2.6123,-2.5606,-2.5079,-2.4719,-2.4686,-2.4719,-2.487,-2.524,-2.4825,-2.4288,-2.5467,0.0,0.0,0.0,0.0,0.0,0.0,0.0,0.0,0.0,0.0,0.0,0.0,0.0,0.0,0.0,0.0,0.0,0.0,0.0,0.0,0.0,0.0,0.0,0.0,-3.6366,-3.7299,-3.7118,-3.6687,-3.6882,-3.8198,-3.752,-3.752,-3.9033,-3.9006,-3.9301,-4.0618,-4.0866,-4.1763,-4.377,-4.4612,-4.5552,-4.6367,-4.799,-4.9106,-4.9705,-5.0353,-5.135,-5.2606,-5.2606,-5.2815,-5.3174,-5.3174,-5.3174,-5.3174,-5.3174,-5.3174,-5.3174,-5.3174,-5.3174,-5.3114,0.0,0.0,0.0,0.0,-5.2359,-5.2334,-1.5604,-1.5682,-1.574,-1.5856,-1.5896,-1.6217,-1.7039,-1.7219,-1.7476,-1.8228,-1.8279,-1.8528,-1.9199,-1.9297,-1.9629,-2.0488,-2.0781,-2.1431,-2.2573,-2.3412,-2.3722,-2.335,-2.3784,-2.4219,-2.4612,-2.513,-2.5564,-2.5958,-2.6413,-2.6641,-2.6662,-2.7076,-2.7262,-2.7262,-2.7262,-2.7262,-2.7262,-2.7262,-2.7013,-2.6641,-2.6641,-2.6103,-2.5384,-2.6216,-2.6018,-2.5524,-2.7032,-2.6863,-2.5899,-2.6871,0.0,0.0,0.0,0.0,0.0,0.0,0.0,0.0,0.0,0.0,0.0,0.0,0.0,0.0,0.0,0.0,0.0,0.0,0.0,0.0,0.0,0.0,0.0,0.0,-3.752,-3.8342,-3.921,-3.8756,-3.8485,-3.9299,-3.8575,-3.8512,-3.9584,-4.0131,-4.0873,-4.1759,-4.1903,-4.2782,-4.4662,0.0,0.0,0.0,0.0,-5.2306,-5.2306,-5.2875,-5.3204,-5.3294,-5.3294,-5.3324,-5.3414,-5.3414,-5.3414,-5.3414,-5.3414,-5.3414,-5.3414,-5.3414,-5.3414,-5.3384,-5.3234,-5.3271,-5.3271,-5.3495,-5.3326,-5.2812,-1.5468,-1.5468,-1.5546,-1.574,-1.6019,-1.6437,-1.7079,-1.7396,-1.775,-1.82,-1.8144,-1.8409,-1.9199,-1.9297,-1.9629,-2.0488,-2.0898,-2.1646,-2.2765,-2.3324,-2.3739,-2.4026,-2.4629,-2.5006,-2.5088,-2.5896,-2.6351,-2.6434,-2.691,-2.7117,-2.7138,-2.722,-2.7262,-2.7262,-2.7262,-2.7262,-2.7262,-2.7262,-2.72,-2.7117,-2.7117,-2.6579,-2.5841,-2.6799,-2.713,-2.7041,-2.8133,-2.8124,-2.7754,-2.9022,-2.894,-2.8397,-2.9043,-2.8975,0.0,0.0,0.0,0.0,0.0,0.0,0.0,0.0,0.0,0.0,0.0,0.0,0.0,0.0,0.0,0.0,0.0,0.0,0.0,-3.7011,-3.8123,-3.9299,-4.0173,-4.0618,-4.0729,-4.0402,-4.0001,-4.0392,-4.2081,-4.2128,-4.2495,-4.343,-4.4467,-4.5801,-4.7724,-4.8987,-5.0508,-5.2077,-5.2688,-5.2995,-5.2995,-5.3114,-5.3443,-5.4012,0.0,0.0,-5.479,-5.479,-5.479,-5.479,-5.479,-5.479,-5.479,-5.479,-5.479,-5.47,-5.3819,-5.3495,-5.3592,-5.3754,-5.3854,-5.4016,-1.541,-1.541,-1.541,-1.5546,-1.59,-1.6333,-1.6849,-1.7283,-1.7652,-1.8085,-1.8252,-1.8496,-1.8906,-1.9336,-1.9863,-2.0508,-2.1644,-2.2438,-2.2689,-2.3478,-2.4135,-2.4358,-2.4669,-2.5084,-2.5715,-2.6167,-2.6589,-2.691,-2.7158,-2.7262,-2.7262,-2.7262,-2.7262,-2.7262,-2.7262,-2.7138,-2.6931,-2.7158,-2.7117,-2.6931,-2.7158,-2.6993,-2.6651,-2.7112,-2.7238,-2.7205,-2.8584,-2.8418,-2.7969,-2.9606,-2.976,-2.9407,-2.9837,-3.0065,-3.0105,0.0,0.0,0.0,0.0,0.0,0.0,0.0,0.0,0.0,0.0,0.0,0.0,0.0,0.0,-3.5801,-3.5827,0.0,-3.8595,-3.8803,-3.9706,-4.0733,-4.1682,-4.1964,-4.1959,-4.1853,-4.1555,-4.1948,-4.34,-4.3602,-4.4091,-4.4908,-4.6398,-4.793,-4.941,-5.0698,-5.1965,-5.3144,-5.3503,-5.3683,-5.3683,-5.4012,-5.4371,-5.47,-5.47,-5.488,-5.5179,-5.5179,-5.5179,-5.5179,-5.5179,-5.5179,-5.5149,-5.485,-5.4491,-5.4162,-5.3931,-5.4119,-5.4389,-5.4752,-5.4831,-5.4622,-1.5254,-1.5352,-1.5547,-1.5547,-1.5898,-1.6348,-1.6797,-1.7227,-1.7637,-1.7969,-1.8301,-1.8535,-1.8633,-1.9336,-2.0039,-2.0644,-2.2217,-2.2978,-2.2529,-2.3574,-2.4235,-2.4415,-2.4585,-2.5118,-2.6113,-2.6215,-2.6513,-2.7167,-2.7167,-2.7262,-2.7262,-2.7262,-2.7262,-2.7262,-2.7262,-2.7055,-2.6724,-2.7096,-2.7055,-2.6744,-2.7117,-2.72,-2.7117,-2.7117,-2.7233,-2.7515,-2.9349,-2.9362,-2.8692,-3.0156,-3.0688,-3.0664,-3.0566,-3.0959,-3.1537,-3.1537,-3.1461,0.0,0.0,0.0,0.0,0.0,0.0,0.0,0.0,-3.4474,-3.4876,-3.5147,-3.576,-3.6391,-3.7026,-3.855,-3.9815,-4.0427,-4.1247,-4.2106,-4.3081,-4.3083,-4.3076,-4.3516,-4.3255,-4.3364,-4.424,-4.4908,-4.5605,-4.6388,-4.7955,-4.9469,-5.0766,-5.1929,-5.2875,-5.3563,-5.4102,-5.4401,-5.4401,-5.491,-5.5179,-5.5179,-5.5179,-5.5179,-5.5179,-5.5179,-5.5179,-5.5179,-5.5179,-5.5179,-5.5149,-5.4491,-5.3892,-5.3414,-5.3832,-5.4341,-5.492,-5.559,-5.5516,-5.5226,-1.4781,-1.5365,-1.5996,-1.5996,-1.6367,-1.6816,-1.7246,-1.7676,-1.7949,-1.8008,-1.8047,-1.8223,-1.8523,-1.9062,-1.9844,-2.1055,-2.1699,-2.2232,-2.2506,-2.2834,-2.3441,-2.4108,-2.4796,-2.5329,-2.5812,-2.6215,-2.6552,-2.6592,-2.6805,-2.69,-2.6996,-2.7167,-2.7262,-2.7262,-2.7262,-2.722,-2.7179,-2.7241,-2.722,-2.7179,-2.7241,-2.7013,-2.6641,-2.6641,-2.7942,-3.0078,-3.1991,-3.2574,-3.2438,-3.2696,-3.2807,-3.2707,-3.2097,-3.2031,-3.2114,-3.2114,-3.1763,-3.1486,-3.1989,-3.2491,-3.3144,-3.4173,-3.45,-3.455,0.0,-3.5052,-3.5612,-3.6586,-3.7811,-3.8568,-3.7782,-3.9707,-4.1095,-4.0384,-4.1446,-4.2757,-4.3777,-4.4298,-4.4878,-4.5488,-4.4993,-4.4935,-4.5605,-4.6243,-4.7114,-4.8333,-4.9376,-5.0602,-5.2093,-5.3099,-5.4052,-5.494,-5.5029,-5.5089,-5.5089,-5.5149,-5.5179,-5.5179,-5.5179,-5.5179,-5.5179,-5.5179,-5.5179,-5.5179,-5.5179,-5.5179,-5.5149,-5.4491,-5.4162,-5.4042,-5.3503,-5.3354,-5.3563,-5.486,-5.5521,-5.5857,-1.514,-1.5482,-1.6002,-1.6714,-1.6992,-1.7168,-1.7363,-1.7734,-1.8008,-1.8008,-1.8223,-1.834,-1.8281,-1.9102,-1.9863,-2.043,-2.1348,-2.1953,-2.2129,-2.2467,-2.3181,-2.4193,-2.4611,-2.5119,-2.6004,-2.6204,-2.6304,-2.6496,-2.6805,-2.69,-2.69,-2.7167,-2.7262,-2.7262,-2.7262,-2.7117,-2.6868,-2.7138,-2.7096,-2.6889,-2.7158,-2.7138,-2.7066,-2.7607,-2.8457,-2.9487,-3.0626,-3.1185,0.0,-3.2723,-3.3068,-3.3043,-3.2792,-3.2717,-3.2717,-3.2717,-3.2792,-3.2968,-3.352,-3.3847,-3.4223,-3.5002,-3.5203,-3.5278,-3.5604,-3.5855,-3.62,-3.6973,-3.8109,-3.9108,-3.9573,-4.1003,-4.2181,0.0,-4.3279,-4.4177,-4.4935,-4.5634,-4.6272,-4.6911,-4.6737,-4.6679,-4.6969,-4.755,-4.8304,-4.9204,-5.0515,-5.1707,-5.2918,-5.39,-5.4607,-5.5179,-5.5179,-5.5179,-5.5179,-5.5179,-5.5179,-5.5179,-5.5179,-5.5179,-5.5179,-5.5179,-5.5179,-5.5179,-5.5179,-5.497,-5.461,-5.4311,-5.3982,-5.3623,-5.3743,-5.3773,-5.3803,-5.4179,-5.4436,-5.4631,-1.5227,-1.5559,-1.6132,-1.7193,-1.748,-1.7559,-1.7559,-1.7812,-1.8008,-1.8008,-1.8281,-1.8398,-1.8203,-1.9121,-1.9785,-1.9902,-2.0898,-2.1621,-2.1875,-2.2168,-2.291,-2.418,-2.4355,-2.4859,-2.5796,-2.5935,-2.611,-2.6304,-2.6516,-2.6709,-2.6805,-2.7071,-2.7262,-2.7262,-2.7262,-2.7076,-2.6786,-2.7117,-2.7055,-2.6786,-2.7117,-2.7179,-2.7149,-2.79,-2.825,-2.8668,-2.9711,-3.0295,-3.0824,-3.2698,-3.3194,-3.3093,-3.3244,-3.3294,-3.3345,-3.3495,-3.4022,-3.4625,-3.4876,-3.5077,-3.5278,-3.568,-3.578,-3.5881,-3.6282,-3.6358,-3.6603,-3.7445,-3.8187,-3.9189,-4.0707,-4.1965,-4.3008,-4.3774,-4.4702,-4.5605,-4.6069,-4.6534,-4.7201,-4.8188,-4.8159,-4.8246,-4.8798,-4.8943,-4.9407,-5.0394,-5.1625,-5.2645,-5.3596,-5.4433,-5.4905,-5.5179,-5.5179,-5.5179,-5.5179,-5.5179,-5.5179,-5.5179,-5.5179,-5.5179,-5.5179,-5.5179,-5.5179,-5.5179,-5.5179,-5.491,-5.4461,-5.4281,-5.4012,-5.3773,-5.4072,-5.4311,-5.4431,-5.4149,-5.4187,-5.4533,-1.4692,-1.5446,-1.6448,-1.7232,-1.7715,-1.7988,-1.7988,-1.8008,-1.8008,-1.8008,-1.8027,-1.8184,-1.8574,-1.9023,-1.9473,-1.9883,-2.0332,-2.0977,-2.1836,-2.1894,-2.248,-2.375,-2.4199,-2.4629,-2.5078,-2.5508,-2.5742,-2.5742,-2.6014,-2.6304,-2.6496,-2.6805,-2.7092,-2.7262,-2.7262,-2.7262,-2.7241,-2.7262,-2.7262,-2.7241,-2.7262,-2.6993,-2.6579,-2.6671,-2.7225,-2.8341,-3.0702,-3.1512,-3.1785,-3.3319,-3.352,-3.3169,-3.3696,-3.3872,-3.3972,-3.4525,-3.5454,-3.6182,-3.5655,-3.5931,-3.6358,-3.6332,-3.6332,-3.6332,-3.6358,-3.6358,-3.6792,-3.8272,-3.8564,-3.9122,-4.0734,-4.2325,-4.3357,-4.3476,-4.535,-4.6766,-4.6795,-4.6824,-4.7521,-4.9407,-4.9059,-4.9436,0.0,-5.0365,-5.0423,-5.2339,-5.2851,-5.3319,-5.4245,-5.4641,-5.4905,-5.5179,-5.5179,-5.5179,-5.5179,-5.5179,-5.5179,-5.5179,-5.5179,-5.5179,-5.5179,-5.5179,-5.5179,-5.5179,-5.5179,-5.5179,-5.5119,-5.4461,-5.4581,-5.5059,-5.4461,-5.461,-5.5149,-5.5149,-5.5741,-5.6485,-1.4563,-1.5255,-1.6102,-1.6943,-1.7552,-1.8008,-1.8008,-1.8008,-1.8008,-1.8008,-1.8008,0.0,0.0,0.0,0.0,0.0,-1.9883,-2.0508,-2.1406,-2.1719,-2.2324,-2.332,-2.3769,-2.4336,-2.5059,-2.5215,-2.5449,-2.5742,-2.6014,-2.6187,-2.6207,-2.6496,-2.6805,-2.6996,-2.6996,-2.7167,-2.7262,-2.7262,-2.7262,-2.7262,-2.7262,-2.7158,-2.7149,-2.8199,-2.8488,-2.8848,0.0,-3.2418,-3.2333,-3.3469,-3.4022,-3.4148,-3.3947,-3.4399,-3.5102,-3.5655,-3.6081,-3.6332,-3.6132,-3.6232,-3.6383,-3.6358,-3.6358,-3.6358,-3.6358,-3.6358,-3.6704,-3.7901,-3.9065,-4.036,-4.2409,-4.382,-4.4978,-4.6153,-4.6264,-4.665,-4.7927,-4.8101,-4.8653,-5.0162,-5.0511,0.0,0.0,0.0,0.0,-5.2514,-5.3053,-5.361,-5.4304,-5.4406,-5.4641,-5.5179,-5.5179,-5.5179,-5.5179,-5.5179,-5.5179,-5.5179,-5.5179,-5.5179,-5.5179,-5.5179,-5.5179,-5.5179,-5.5179,-5.5448,-5.5837,-5.5598,-5.5897,-5.6436,-5.6196,-5.6256,-5.6466,-5.6466,-5.6989,-5.7483,0.0,-1.5171,-1.5948,-1.6802,-1.751,0.0,0.0,0.0,0.0,0.0,0.0,0.0,0.0,0.0,0.0,0.0,0.0,-2.0137,-2.1172,-2.1641,-2.2207,-2.2891,-2.3477,-2.4043,-2.459,-2.4766,-2.5059,-2.5508,-2.5681,-2.5856,-2.6091,-2.6304,-2.6496,-2.6805,-2.6805,-2.688,-2.6976,-2.7071,-2.727,-2.7393,-2.7324,-2.763,-2.8179,-2.895,-2.9453,0.0,-3.2221,-3.2956,-3.3097,-3.4145,-3.46,-3.47,-3.4525,-3.4977,-3.5705,-3.6433,-3.6659,-3.6609,-3.6408,-3.6508,-3.6609,-3.6408,-3.6358,-3.6408,-3.6609,-3.6659,-3.7036,-3.8341,-3.9471,-4.0937,-4.3571,-4.4606,-4.5705,-4.7796,-4.7637,-4.7753,-4.9204,-4.9407,-4.9901,-5.1207,-5.1497,-5.1962,0.0,0.0,0.0,-5.2891,-5.3297,-5.371,-5.4097,-5.42,-5.4436,-5.5006,-5.5108,-5.5078,-5.5179,-5.5179,-5.5179,-5.5179,-5.5179,-5.5179,-5.5179,-5.5179,-5.5179,-5.5179,-5.5179,-5.5568,-5.6166,-5.6166,-5.6675,-5.7453,-5.7453,-5.7603,-5.7842,-5.8082,-5.8441,-5.856,0.0,0.0,-1.5948,0.0,0.0,0.0,0.0,0.0,0.0,0.0,0.0,0.0,0.0,0.0,0.0,0.0,0.0,0.0,-2.1113,-2.1602,-2.2031,-2.2461,-2.3281,-2.375,-2.3789,-2.418,-2.4609,-2.5039,-2.5039,-2.5444,-2.6071,-2.6071,-2.6187,-2.6496,-2.6496,-2.6496,-2.6592,-2.6805,-2.7125,-2.757,-2.7427,-2.8179,-2.9358,-2.8992,-2.9988,-3.1649,-3.2268,-3.3113,-3.4022,-3.5102,-3.5152,-3.4876,-3.5454,-3.5655,-3.5881,-3.6885,-3.7186,-3.7061,-3.6508,-3.6734,-3.701,-3.6533,-3.6408,-3.6558,-3.7111,-3.7236,-3.7688,-3.9423,-3.9775,-4.0824,-4.4037,-4.4656,-4.5575,-4.8297,-4.9291,-4.9872,-5.0627,-5.0714,-5.1178,-5.2426,-5.2078,-5.2194,-5.3384,-5.35,0.0,-5.35,0.0,-5.3605,-5.3919,-5.3919,-5.4126,-5.4803,-5.4803,-5.4905,-5.5179,-5.5179,-5.5179,-5.5179,-5.5179,-5.5209,-5.5239,-5.5209,-5.5239,-5.5299,-5.5239,-5.5628,-5.6286,-5.6286,-5.7034,-5.8231,-5.8231,-5.862,-5.9279,-5.9907,-6.0146,-5.9967,0.0,0.0,0.0,0.0,0.0,0.0,0.0,0.0,0.0,0.0,0.0,0.0,0.0,0.0,0.0,0.0,0.0,0.0,-2.0684,-2.1152,-2.1602,-2.2031,-2.2559,-2.3144,-2.3769,-2.3887,-2.416,-2.459,-2.459,-2.4805,-2.533,-2.533,-2.5793,-2.6496,-2.6496,-2.6688,-2.7071,-2.7167,-2.7228,-2.7427,-2.804,-2.8531,-2.8992,-3.0306,-3.092,-3.1255,-3.2906,-3.3446,-3.3395,-3.4098,-3.4776,-3.5504,-3.6458,-3.7061,-3.7362,-3.7211,-3.7186,-3.7061,-3.6508,-3.6458,-3.6634,-3.691,-3.6985,-3.7111,-3.7663,-3.7789,-3.8212,-3.9943,-4.0534,-4.186,-4.5232,-4.5748,-4.6673,-4.9704,-4.9494,-4.9524,-5.1149,-5.1381,-5.1672,-5.2484,-5.2833,-5.3152,-5.3471,-5.35,0.0,0.0,-5.35,-5.3605,-5.3919,-5.3919,-5.4126,-5.4803,-5.4803,-5.4905,-5.5179,-5.5179,-5.5179,-5.5179,-5.5179,-5.5448,-5.5897,-5.5418,-5.5718,-5.6585,-5.6137,-5.6585,-5.7633,-5.7633,-5.8411,-5.9578,-5.9578,-5.9997,-6.0625,-6.0775,-6.0864,-6.0805,0.0,0.0,0.0,0.0,0.0,0.0,0.0,0.0,0.0,0.0,0.0,0.0,0.0,0.0,0.0,0.0,0.0,0.0,0.0,-2.0977,-2.1348,-2.1582,-2.2187,-2.2832,-2.3496,-2.3691,-2.4082,-2.4707,-2.4707,-2.4922,-2.5371,-2.5371,-2.5582,-2.5909,-2.6004,-2.6194,-2.6479,-2.6783,-2.7105,0.0,0.0,-2.8538,-2.9418,-3.0275,-3.0898,-3.1613,-3.2746,-3.3269,-3.3571,-3.4349,-3.5353,-3.6383,-3.6985,-3.7387,-3.7588,-3.7287,-3.701,-3.6759,-3.6433,-3.6533,-3.6784,-3.7111,-3.7362,-3.7688,-3.8266,-3.8391,-3.8793,-4.0184,-4.0695,-4.1748,-4.459,-4.5541,-4.6768,-4.9538,-4.9952,-5.0481,-5.1846,-5.2281,-5.2572,-5.2949,-5.3297,-5.35,-5.35,-5.35,-5.35,0.0,-5.35,-5.3605,-5.371,-5.371,-5.3919,-5.4363,-5.4466,-5.4568,-5.4976,-5.5179,-5.5179,-5.5179,-5.5179,-5.5388,-5.5748,-5.5658,-5.6017,-5.6675,-5.6615,-5.7334,-5.856,-5.856,-5.9338,-6.0535,-6.0535,-6.0775,-6.1164,-6.1433,-6.1553,-6.1583,0.0,0.0,0.0,0.0,0.0,0.0,0.0,0.0,0.0,0.0,-1.8465,-1.873,-1.873,-1.9062,0.0,0.0,0.0,0.0,0.0,0.0,-2.1172,-2.123,-2.1953,-2.2559,-2.3047,-2.3477,-2.4102,-2.4902,-2.4961,-2.5215,-2.5644,-2.5644,-2.5469,-2.5251,-2.5382,-2.5436,-2.555,-2.5959,-2.6574,-2.7344,-2.741,-2.8343,-2.9624,0.0,-3.0272,-3.1754,-3.1938,-3.2907,-3.4148,-3.5127,-3.6207,-3.7186,-3.7262,-3.7337,-3.7387,-3.7312,-3.696,-3.6584,-3.6659,-3.6985,-3.7337,-3.7487,-3.7814,-3.8266,-3.8843,-3.8969,-3.9347,-4.0408,-4.061,-4.1203,-4.3363,-4.4644,-4.6134,-4.8303,-5.0178,-5.1613,-5.2249,-5.299,-5.35,-5.35,-5.35,-5.35,-5.35,-5.35,-5.35,-5.35,-5.35,-5.35,-5.35,-5.35,-5.3605,-5.3919,-5.4023,-5.423,-5.4803,-5.5108,-5.5179,-5.5179,-5.5179,-5.5239,-5.5329,-5.5897,-5.6316,-5.6585,-5.7034,-5.8052,-5.9368,-5.9279,-6.0027,-6.1253,-6.1253,-6.1313,-6.1433,-6.2002,-6.2241,-6.2301,0.0,0.0,0.0,0.0,0.0,0.0,0.0,0.0,0.0,0.0,-1.9209,-1.918,0.0,0.0,0.0,0.0,0.0,0.0,0.0,0.0,0.0,-2.1211,-2.1387,-2.1816,-2.2598,-2.3027,-2.3496,-2.4004,-2.4355,-2.4746,-2.5176,-2.5176,-2.5428,-2.5875,-2.5615,-2.555,-2.5718,-2.5747,-2.5778,-2.6085,-2.7811,-2.8231,-2.7922,-2.8949,0.0,0.0,-3.0663,-3.2523,-3.46,-3.4801,-3.5906,-3.7262,-3.7713,-3.8191,-3.8492,-3.8015,-3.7789,-3.7814,-3.8316,-3.8165,-3.809,-3.9019,-3.8994,-3.8868,-3.9421,-3.9546,-3.9905,-4.0847,-4.1075,-4.1585,-4.3352,-4.4293,-4.52,-4.6736,-4.8806,-5.0416,-5.1067,-5.2569,-5.35,-5.35,-5.35,-5.35,-5.35,-5.35,0.0,0.0,-5.35,-5.35,-5.35,-5.35,-5.3605,-5.3919,-5.4363,-5.47,-5.4803,-5.5108,-5.5179,-5.5179,-5.5179,-5.5478,-5.6017,-5.6137,-5.7064,-5.856,-5.8141,0.0,-6.0715,-6.0146,-6.0715,-6.1942,-6.1942,-6.2271,-6.275,-6.2869,-6.2899,-6.2929,0.0,0.0,0.0,0.0,0.0,0.0,0.0,-1.8976,-1.9966,-2.0543,-2.0368,-2.0159,-1.9621,-1.9734,-1.9887,0.0,0.0,0.0,0.0,0.0,0.0,-2.0879,-2.1113,-2.1641,-2.25,-2.293,-2.3477,-2.4121,0.0,-2.4531,-2.4727,-2.4727,-2.482,-2.4893,-2.4769,-2.4874,-2.4945,-2.5198,-2.5349,-2.5735,-2.6751,-2.713,-2.6976,-2.7567,0.0,0.0,-3.0778,-3.2558,-3.4374,-3.4951,-3.6056,-3.7236,-3.7487,-3.8165,-3.8768,-3.8191,-3.8015,-3.814,-3.8718,-3.8668,-3.8668,-3.9496,-3.9496,-3.9371,-3.9647,-3.9697,-3.9878,-4.0364,-4.0465,-4.0721,-4.18,-4.2726,-4.369,-4.4863,-4.6828,-4.8708,-5.0185,-5.1421,-5.2492,-5.3366,-5.35,-5.35,-5.35,-5.35,-5.35,-5.35,-5.35,-5.35,-5.35,-5.35,-5.35,-5.371,-5.4126,-5.4363,-5.4363,-5.4773,-5.5006,-5.5006,-5.5078,-5.5538,-5.6196,-5.6885,-5.7693,-5.865,-5.9368,-6.0236,-6.1104,-6.1134,-6.1702,-6.26,-6.26,-6.281,-6.3079,-6.3079,-6.3079,-6.3079,0.0,0.0,0.0,0.0,0.0,0.0,0.0,-1.9268,-2.0457,-2.1396,-2.1343,-2.1014,-2.0254,-2.0346,-2.037,0.0,0.0,0.0,0.0,0.0,0.0,0.0,0.0,0.0,-2.2363,0.0,0.0,-2.4277,-2.4375,0.0,0.0,0.0,0.0,0.0,-2.4008,-2.4058,-2.4148,-2.4424,-2.4852,0.0,0.0,-2.5799,-2.5915,0.0,0.0,0.0,0.0,-3.2414,-3.4198,-3.4986,-3.6163,-3.7362,-3.7362,-3.814,-3.8969,-3.8492,-3.8366,-3.8492,-3.9069,-3.9145,-3.917,-3.9747,-3.9798,-3.9697,-3.9697,-3.9697,-3.9697,-3.9697,-3.9697,-3.9823,-4.0249,-4.1131,-4.2138,-4.3124,-4.4838,-4.6886,-4.8807,-4.9983,-5.1164,-5.2886,-5.3049,-5.3184,-5.35,-5.35,0.0,-5.35,-5.35,-5.35,-5.35,-5.35,-5.35,-5.35,-5.3815,-5.3919,-5.3919,-5.4466,-5.4803,-5.4803,-5.5227,-5.5748,-5.6406,-5.7723,-5.8501,-5.886,-6.0416,-6.1283,-6.1553,-6.1942,-6.248,-6.3079,-6.3079,-6.3079,-6.3079,-6.3079,-6.3079,-6.3079,0.0,0.0,0.0,0.0,0.0,0.0,0.0,-1.9039,-2.0154,-2.158,-2.1521,-2.1293,-2.1047,-2.09,-2.0697,0.0,0.0,0.0,0.0,0.0,0.0,0.0,0.0,0.0,0.0,0.0,0.0,-2.3848,-2.4238,0.0,0.0,0.0,0.0,0.0,0.0,-2.3789,-2.3859,-2.3731,0.0,0.0,0.0,0.0,0.0,0.0,0.0,0.0,0.0,-3.1979,-3.456,-3.4504,-3.6018,-3.7939,-3.7939,-3.8718,-3.9622,-3.9546,-3.9546,-3.9647,-4.0224,-3.9998,-3.9747,-4.03,-4.0074,-3.9697,-3.9697,-3.9697,-3.9697,-3.9697,-3.9697,-3.9722,-3.9747,-4.0278,-4.0807,-4.1411,-4.3429,-4.5388,-4.6547,-4.8212,-4.9913,-5.1618,-5.192,-5.2272,-5.3395,-5.35,-5.35,-5.35,-5.35,-5.35,-5.35,-5.35,-5.35,-5.35,-5.3815,-5.3919,-5.3919,-5.4466,-5.4803,-5.4803,-5.5705,-5.6406,-5.7064,-5.8411,-5.9668,-6.0835,-6.1044,-6.1792,0.0,-6.2331,-6.248,-6.3079,-6.3079,-6.3079,-6.3079,-6.3079,-6.3079,-6.3079,0.0,0.0,0.0,0.0,0.0,0.0,-1.8196,-1.9071,-2.0139,-2.2069,-2.1572,-2.1302,-2.1752,-2.1696,-2.1343,-2.0575,0.0,0.0,0.0,0.0,0.0,0.0,0.0,0.0,0.0,0.0,-2.2969,-2.3398,-2.3574,0.0,0.0,0.0,0.0,0.0,0.0,-2.3398,-2.3379,-2.3485,0.0,0.0,0.0,0.0,0.0,0.0,0.0,0.0,0.0,0.0,-3.3557,-3.4164,-3.5569,-3.7136,-3.7789,-3.8793,-3.9697,-3.9697,-3.9697,-3.9823,-4.0375,-4.0124,-3.9823,-4.0375,-4.0099,-3.9697,-3.9697,-3.9697,-3.9697,-3.9697,-3.9697,-3.9697,-3.9697,-3.9873,-4.0199,-4.0752,-4.191,-4.3444,-4.5663,-4.679,-4.8288,-5.0352,-5.1237,-5.192,0.0,0.0,-5.35,-5.35,-5.3878,-5.411,-5.411,-5.3733,-5.35,-5.35,-5.3605,-5.3605,-5.3605,-5.4023,-5.4436,-5.4848,-5.5426,-5.6496,-5.8137,-5.9061,-6.0096,-6.1164,-6.1942,-6.2361,0.0,-6.263,-6.2839,-6.3079,-6.3079,-6.3079,-6.3079,-6.3079,-6.3079,-6.3079,0.0,0.0,0.0,0.0,0.0,-1.6621,-1.7932,-1.844,-1.9312,-2.1336,-2.1235,-2.1119,-2.1767,-2.197,-2.1752,-2.1127,-2.059,0.0,0.0,0.0,0.0,0.0,0.0,0.0,0.0,0.0,-2.2852,-2.3144,-2.3262,-2.334,0.0,0.0,-2.3398,-2.3496,0.0,0.0,0.0,0.0,0.0,0.0,0.0,0.0,0.0,0.0,0.0,0.0,0.0,0.0,0.0,0.0,0.0,-3.6368,-3.7467,-3.8466,-3.929,-3.9647,-3.9697,-3.9772,-4.0174,-3.9998,-3.9798,-4.0174,-3.9973,-3.9697,-3.9697,-3.9697,-3.9697,-3.9697,-3.9697,-3.9697,-3.9697,-3.9697,-3.9873,-4.0425,-4.0978,-4.2182,-4.4513,-4.5477,-4.6699,-4.9087,-5.0627,-5.1626,0.0,-5.3124,-5.382,-5.382,-5.44,-5.4778,-5.4778,-5.4342,-5.4081,-5.4081,-5.4081,-5.4081,-5.4081,-5.4369,-5.4709,-5.5177,-5.5878,-5.7124,-5.8991,-5.9852,-6.082,-6.1732,-6.266,-6.281,0.0,-6.2899,-6.3079,-6.3079,-6.3079,-6.3079,-6.3079,-6.3079,-6.3079,-6.3079,0.0,0.0,0.0,0.0,0.0,0.0,-1.6794,-1.6961,-1.7382,-1.8959,-2.0121,-2.0933,-2.0933,-2.1427,-2.182,-2.2087,-2.1202,0.0,0.0,0.0,0.0,0.0,0.0,0.0,0.0,0.0,-2.3125,-2.3144,-2.3574,-2.3789,-2.3789,-2.3789,-2.4004,-2.4355,0.0,0.0,0.0,0.0,0.0,0.0,0.0,0.0,0.0,0.0,0.0,0.0,0.0,0.0,0.0,0.0,0.0,0.0,0.0,-3.7636,-3.828,-3.9443,-3.9697,-3.9697,-3.9697,-3.9697,-3.9697,-3.9697,-3.9697,-3.9697,-3.9697,-3.9697,-3.9697,-3.9697,-3.9697,-3.9697,-3.9697,-3.9697,-3.9873,-4.0425,-4.0978,-4.1731,-4.2836,-4.394,-4.5487,-4.7847,-4.9729,-5.1368,-5.2379,-5.3675,-5.4517,-5.4517,-5.5068,0.0,-5.5387,-5.5387,-5.5387,-5.5387,-5.5387,-5.5387,-5.5387,-5.5713,-5.5791,-5.582,-5.7357,-5.866,-5.9674,-6.0981,-6.2162,-6.3049,-6.3079,-6.3079,0.0,-6.3079,-6.3079,-6.3079,-6.3079,-6.3079,-6.3079,-6.3079,-6.3079,-6.3079,0.0,0.0,0.0,0.0,0.0,0.0,0.0,-1.6388,-1.7026,-1.8776,-1.9455,-2.0251,-2.1182,-2.1821,-2.2226,-2.2497,-2.1446,0.0,0.0,0.0,0.0,0.0,0.0,0.0,0.0,-2.3159,-2.3596,-2.4195,-2.433,-2.4501,-2.4668,-2.498,-2.5019,-2.4844,-2.4258,-2.4258,0.0,0.0,0.0,0.0,0.0,0.0,0.0,0.0,0.0,0.0,0.0,0.0,0.0,0.0,0.0,0.0,0.0,0.0,0.0,-3.8901,-3.9258,-3.949,-3.9697,-3.9697,-3.9697,-3.9697,-3.9697,-3.9697,-3.9697,-3.9697,-3.9697,-3.9697,-3.9697,-3.9697,-3.9697,-3.9697,-3.9747,-3.9923,-4.0727,-4.1731,-4.2811,-4.3915,-4.5487,-4.7847,-5.0064,-5.2042,0.0,0.0,-5.4691,-5.5097,-5.5736,-5.6084,-5.6084,-5.649,-5.6316,-5.5445,-5.5416,-5.5416,-5.5416,-5.5961,-5.6398,-5.6805,-5.7819,-5.9039,-6.0439,-6.085,-6.1643,-6.2731,-6.2731,-6.2847,-6.3079,-6.3079,-6.3079,-6.3079,-6.3079,-6.3079,-6.3079,-6.3079,-6.3079,-6.3079,0.0,0.0,0.0,0.0,0.0,0.0,0.0,-1.5531,-1.6049,-1.74,-1.8411,-1.9471,-2.0545,-2.149,-2.2153,-2.2501,-2.1669,0.0,0.0,0.0,0.0,0.0,0.0,0.0,-2.3294,-2.3537,-2.399,-2.4467,-2.4794,-2.4967,-2.5078,-2.5352,-2.5508,-2.5547,-2.4941,-2.5,0.0,0.0,0.0,0.0,0.0,0.0,-2.5605,0.0,0.0,0.0,0.0,0.0,0.0,0.0,0.0,0.0,0.0,0.0,0.0,0.0,-3.8841,-3.905,-3.949,-3.9594,-3.9697,-3.9697,-3.9697,-3.9697,-3.9697,-3.9697,-3.9697,-3.9697,-3.9697,-3.9697,-3.9697,-3.9697,-3.9823,-4.0249,-4.0902,-4.1806,-4.3112,-4.4066,-4.577,-4.8806,-5.0791,0.0,0.0,-5.4865,-5.5097,-5.5736,-5.6374,-5.6752,-5.6752,-5.71,-5.6926,-5.6142,-5.6113,-5.6258,-5.649,-5.6926,-5.7448,-5.8058,-5.8726,-5.9568,-6.0706,-6.094,-6.1498,-6.2381,-6.2498,-6.2731,0.0,-6.3079,-6.3079,-6.3079,-6.3079,-6.3079,-6.3079,-6.3079,-6.3079,-6.3079,0.0,0.0,0.0,0.0,0.0,0.0,0.0,-1.4509,-1.471,-1.5349,-1.7041,-1.8568,-1.9333,-2.0793,-2.1841,-2.2245,0.0,0.0,0.0,0.0,0.0,0.0,0.0,0.0,-2.3711,-2.4088,-2.4298,-2.4162,-2.4986,-2.5353,-2.5254,-2.5273,-2.5703,-2.6406,-2.5566,-2.5644,-2.6309,-2.5117,-2.5312,-2.6328,-2.5098,-2.5312,0.0,0.0,0.0,0.0,0.0,0.0,0.0,0.0,0.0,0.0,0.0,0.0,0.0,0.0,0.0,0.0,0.0,-3.9465,-3.9594,-3.9594,-3.9697,-3.9697,-3.9697,-3.9697,0.0,-3.9697,-3.9697,-3.9697,-3.9697,-3.9722,-4.0099,-4.1178,-4.1404,-4.2007,-4.3639,-4.4483,-4.6322,-5.0297,-5.1792,0.0,-5.5221,-5.5445,-5.5765,-5.6432,-5.6984,-5.7332,-5.7361,-5.7332,-5.7332,-5.7448,-5.739,-5.7681,-5.829,-5.8348,-5.8697,-5.9364,-5.9974,-6.0383,-6.0794,-6.135,-6.1732,0.0,-6.2351,-6.2498,-6.2615,-6.2963,-6.3079,-6.3079,-6.3079,-6.3079,-6.3079,-6.3079,-6.3079,-6.3079,0.0,0.0,0.0,0.0,0.0,0.0,0.0,0.0,0.0,0.0,-1.6988,-1.8282,-1.9452,-2.0589,-2.142,0.0,0.0,0.0,0.0,0.0,0.0,0.0,0.0,0.0,-2.4054,-2.4342,-2.4908,-2.5872,-2.6286,-2.6531,-2.6724,-2.7279,-2.7305,-2.6855,-2.6641,-2.6504,-2.6387,-2.6406,-2.6582,-2.6836,-2.6523,-2.6406,0.0,0.0,0.0,0.0,-2.7631,-2.7819,0.0,0.0,0.0,0.0,0.0,0.0,0.0,0.0,-3.821,-3.8421,-3.8526,0.0,-3.905,-3.905,-3.9154,-3.9362,0.0,-3.9594,-3.9697,-3.9697,-3.9697,-3.9697,-3.9697,-4.0049,-4.0551,-4.1229,-4.2057,-4.3011,-4.4267,-4.6039,-4.7948,-4.9951,-5.1683,-5.3355,-5.5221,-5.5881,-5.6432,-5.7042,-5.7216,-5.7536,-5.8029,-5.7594,-5.7768,-5.8813,-5.8348,-5.8145,-5.829,-5.8813,-5.9393,-6.0003,-6.0642,-6.0961,-6.111,-6.1226,-6.1404,-6.1732,-6.185,-6.1969,-6.2234,-6.2351,-6.2468,-6.2731,-6.2731,-6.2847,-6.3079,-6.3079,-6.3079,-6.3079,0.0,0.0,0.0,0.0,0.0,0.0,0.0,0.0,0.0,0.0,0.0,-1.7361,0.0,0.0,0.0,0.0,0.0,0.0,0.0,0.0,0.0,0.0,0.0,-2.3386,-2.4134,-2.4886,-2.5414,-2.5815,-2.6312,-2.6702,-2.6929,-2.7369,-2.7454,-2.7324,-2.7519,-2.7363,-2.6973,-2.7012,-2.7246,-2.7539,-2.6758,0.0,0.0,0.0,0.0,0.0,-2.7182,-2.7441,0.0,-2.8881,-2.9496,-3.0078,0.0,0.0,0.0,0.0,-3.808,-3.821,-3.821,-3.8526,-3.8841,-3.8841,-3.8945,-3.905,-3.905,-3.9258,-3.954,-3.979,-3.9969,-4.0149,-4.019,-4.0796,-4.1455,-4.1788,-4.2699,-4.374,-4.4869,-4.6964,-4.8927,-5.0195,-5.1988,-5.378,0.0,-5.62,-5.6665,-5.7245,-5.7594,-5.7913,-5.829,-5.8261,-5.8552,-5.9277,-5.8958,-5.89,-5.9161,-5.9539,-6.0032,-6.0671,-6.1019,-6.1193,-6.1193,-6.1193,-6.1313,-6.1404,-6.1494,-6.1732,-6.185,-6.1998,-6.2234,-6.2615,-6.2615,-6.2847,-6.3079,-6.2963,-6.2963,-6.3079,0.0,0.0,0.0,0.0,0.0,0.0,0.0,0.0,0.0,0.0,0.0,0.0,0.0,0.0,0.0,0.0,0.0,0.0,0.0,0.0,0.0,0.0,-2.3363,-2.3804,-2.4335,-2.5344,-2.5687,-2.5321,-2.6132,-2.6616,-2.6691,-2.6775,-2.7156,-2.7676,-2.8027,-2.7988,-2.7656,-2.7344,-2.7637,-2.8144,-2.6562,0.0,0.0,0.0,0.0,0.0,0.0,0.0,0.0,-2.7539,-2.8461,-2.9973,-3.2292,0.0,0.0,0.0,0.0,0.0,-3.795,-3.8364,-3.8729,-3.8656,-3.8736,-3.8736,-3.8736,-3.9019,-3.9506,-3.9978,-4.0333,-4.0689,-4.0923,-4.1688,-4.2263,-4.2687,-4.3537,-4.4518,-4.5472,-4.7308,-4.897,-5.0451,-5.2145,0.0,-5.5872,-5.6379,-5.681,-5.7419,-5.7971,-5.8377,-5.8581,-5.9045,-5.9393,-5.9568,-5.948,-5.9742,-6.0351,-6.0264,-6.0526,-6.1193,-6.1193,-6.1193,-6.1193,-6.1193,-6.1193,-6.1193,-6.1404,-6.1494,-6.1613,-6.188,-6.2116,-6.2498,-6.2498,-6.2615,-6.2963,-6.2615,-6.2731,-6.2963,0.0,0.0,0.0,0.0,0.0,0.0,0.0,0.0,0.0,0.0,0.0,0.0,0.0,0.0,0.0,0.0,0.0,0.0,0.0,0.0,0.0,-2.3437,-2.351,-2.406,-2.5161,-2.5362,-2.5729,-2.6406,-2.6732,-2.7074,-2.7233,-2.7554,-2.7718,-2.7676,-2.7505,-2.7486,-2.7676,-2.7969,-2.8164,-2.8203,-2.7226,0.0,0.0,0.0,0.0,0.0,0.0,0.0,0.0,-2.6992,-2.7506,-2.8461,-3.1094,0.0,0.0,0.0,0.0,0.0,-3.7642,-3.8441,-3.8683,-3.82,-3.8291,-3.8421,-3.8421,-3.8973,-3.9554,-3.9627,-4.0389,-4.1139,-4.1569,-4.1818,-4.251,-4.3755,-4.4774,-4.5615,-4.615,-4.6446,-4.7274,-4.8996,0.0,-5.2752,-5.4657,-5.6248,-5.7448,-5.8116,-5.8232,-5.8784,-5.9858,-5.951,-5.98,-6.0874,-6.0351,-6.038,-6.1048,-6.0467,-6.0526,-6.1193,-6.1193,-6.1193,-6.1193,-6.1193,-6.1193,-6.1193,-6.1193,-6.1313,-6.1313,-6.1313,-6.1523,-6.1732,-6.1732,-6.1969,-6.2234,-6.2234,-6.2234,-6.2234,0.0,0.0,0.0,0.0,0.0,0.0,0.0,0.0,0.0,0.0,0.0,0.0,0.0,0.0,0.0,0.0,0.0,0.0,0.0,0.0,-2.2549,-2.2955,-2.3782,-2.4482,-2.5032,-2.5693,-2.6096,-2.6243,-2.6571,-2.6899,-2.7206,-2.753,-2.7534,-2.7428,-2.7323,-2.7188,-2.7117,-2.7415,-2.7629,-2.768,0.0,0.0,0.0,0.0,0.0,0.0,0.0,0.0,0.0,0.0,-2.6953,-2.7732,-3.0118,0.0,0.0,0.0,0.0,0.0,-3.7583,-3.8166,-3.831,-3.8046,-3.8538,-3.908,-3.908,-3.9466,-3.9951,-4.0245,-4.082,-4.1447,-4.215,-4.2831,-4.3664,-4.5135,-4.5485,-4.5855,-4.6276,-4.6803,-4.7744,0.0,0.0,-5.3371,-5.4846,-5.6422,-5.7594,-5.8261,-5.8639,-5.9248,-6.0148,-6.0293,-6.0584,-6.1164,-6.0903,-6.0874,-6.1193,-6.0874,-6.0903,-6.1193,-6.1193,-6.1193,-6.1193,-6.1193,-6.1193,-6.1193,-6.1193,-6.1193,-6.1193,-6.1193,-6.1404,-6.1613,-6.1613,-6.185,-6.2116,-6.2116,-6.1969,-6.185,0.0,0.0,0.0,0.0,0.0,0.0,0.0,0.0,0.0,0.0,0.0,0.0,0.0,0.0,0.0,0.0,0.0,0.0,0.0,-2.1773,-2.2244,-2.2638,-2.3985,-2.4831,-2.4922,-2.5913,-2.6371,-2.6243,-2.6481,-2.6682,-2.6989,-2.7206,-2.7302,-2.7199,-2.7113,-2.6883,-2.6583,-2.6807,-2.7001,-2.7168,0.0,0.0,0.0,0.0,0.0,0.0,0.0,0.0,0.0,0.0,0.0,0.0,0.0,0.0,0.0,-3.4261,-3.5367,-3.5802,-3.7583,-3.807,-3.8214,-3.8334,-3.8888,-3.9417,-3.9417,-3.983,-4.0207,-4.0619,-4.1257,-4.1883,-4.283,-4.3752,-4.4799,-4.5735,-4.5754,-4.5754,-4.6426,-4.7205,-4.8179,-4.9541,-5.1762,-5.3735,-5.511,-5.6566,-5.7884,-5.8668,-5.9219,-5.9771,-6.0409,-6.0932,-6.1193,-6.1193,-6.1193,-6.1193,-6.1193,-6.1193,-6.1193,-6.1193,-6.1193,-6.1193,-6.1193,-6.1193,-6.1193,-6.1193,-6.1193,-6.1193,-6.1193,-6.1193,-6.1284,-6.1494,-6.1494,-6.1613,-6.188,-6.188,-6.1761,-6.1494,0.0,0.0,0.0,0.0,0.0,0.0,0.0,0.0,0.0,0.0,0.0,0.0,0.0,0.0,0.0,0.0,0.0,0.0,0.0,-2.1478,-2.2655,-2.3014,-2.423,-2.4959,-2.5326,-2.5766,-2.6353,-2.7086,-2.6756,-2.6682,-2.6989,-2.6989,-2.7088,-2.7218,-2.6692,-2.6465,-2.6602,-2.6602,-2.6602,-2.6641,-2.6929,0.0,0.0,0.0,0.0,0.0,0.0,0.0,0.0,0.0,0.0,0.0,0.0,0.0,-2.8729,-3.2936,-3.3772,-3.4039,-3.7157,-3.8359,-3.8864,-3.9369,-3.9176,-3.8864,-3.8864,-3.9633,-4.0355,-4.0379,-4.1673,-4.2853,-4.3138,-4.4255,-4.506,-4.4738,-4.5324,-4.6063,-4.6881,0.0,-4.7556,-4.8712,-5.1171,-5.3196,-5.4406,-5.6755,-5.8726,-5.9974,-6.0119,-6.0438,-6.1077,-6.1164,-6.1193,-6.1193,-6.1193,-6.1193,-6.1193,-6.1193,-6.1193,-6.1193,-6.1193,-6.1193,-6.1193,-6.1193,-6.1193,-6.1193,-6.1193,-6.1193,-6.1193,-6.1193,-6.1193,-6.1193,-6.1193,-6.1193,-6.1313,-6.1313,-6.1193,-6.1193,0.0,0.0,0.0,0.0,0.0,0.0,0.0,0.0,0.0,0.0,0.0,0.0,0.0,0.0,0.0,0.0,0.0,0.0,0.0,-2.0607,-2.1653,-2.2116,-2.405,-2.5326,-2.5729,-2.5876,-2.6353,-2.7178,-2.727,-2.7179,-2.6809,-2.7049,-2.7157,-2.705,-2.6349,-2.6031,-2.6069,-2.5843,-2.5867,-2.5996,-2.6319,-2.6773,0.0,0.0,0.0,0.0,0.0,0.0,0.0,0.0,-2.5859,-2.6173,-2.7083,-2.7653,-2.8628,-3.1615,-3.2833,-3.3866,-3.6576,-3.7746,-3.8325,-3.9316,-3.9705,-3.9874,-4.021,-4.086,-4.1365,-4.1365,-4.211,-4.2975,-4.3625,-4.4814,-4.55,-4.5278,-4.6088,-4.6781,-4.7104,-4.7732,-4.8309,-4.8711,-5.1654,-5.3836,-5.442,-5.718,-5.9277,-6.0148,-6.0206,-6.0496,-6.1164,-6.1193,-6.1193,-6.1193,-6.1193,-6.1193,-6.1193,-6.1193,-6.1193,-6.1193,-6.1193,-6.1193,-6.1193,-6.1193,-6.1193,-6.1193,-6.1193,-6.1193,-6.1193,-6.1193,-6.1193,-6.1193,-6.1193,-6.1193,-6.1193,-6.1193,-6.1193,-6.1193,0.0,0.0,0.0,0.0,0.0,0.0,0.0,0.0,0.0,0.0,0.0,0.0,0.0,0.0,0.0,0.0,0.0,0.0,-1.8223,-1.9974,-2.1036,-2.149,-2.3738,-2.5234,-2.5766,-2.5766,-2.6243,-2.7178,-2.7453,-2.7233,-2.6591,-2.6866,-2.7049,-2.6952,-2.6175,-2.5804,-2.574,-2.5534,-2.5324,-2.5277,-2.5929,-2.6361,0.0,0.0,0.0,0.0,0.0,0.0,0.0,0.0,-2.5742,-2.5859,-2.6582,-2.7402,-2.8455,-3.0607,-3.2378,-3.4197,-3.6386,-3.7719,-3.8794,-3.9627,-4.0258,-4.0787,-4.1317,-4.1701,-4.2014,-4.2182,-4.2784,-4.3482,-4.3941,-4.5086,-4.5944,-4.5944,-4.6512,-4.7255,-4.7606,-4.8309,-4.8837,-4.9012,-5.1805,-5.4063,-5.4596,-5.7302,-5.9328,-6.0467,-6.0526,-6.07,-6.1164,-6.1193,-6.1193,-6.1193,-6.1193,-6.1193,-6.1193,-6.1193,-6.1193,-6.1193,-6.1193,-6.1193,-6.1193,-6.1193,-6.1193,-6.1193,-6.1193,-6.1193,-6.1193,-6.1193,-6.1193,-6.1193,-6.1193,-6.1193,-6.1193,-6.1193,-6.1193,-6.1193,0.0,0.0,0.0,0.0,0.0,0.0,0.0,0.0,-1.507,-1.5364,-1.5658,0.0,0.0,0.0,0.0,0.0,0.0,0.0,-1.7128,-1.9565,-2.1036,-2.149,-2.323,-2.4537,-2.5362,-2.5381,-2.5968,-2.7178,-2.7178,-2.6976,-2.6591,-2.6591,-2.6791,-2.6971,-2.6347,-2.5959,-2.5778,-2.5635,-2.5102,-2.4585,-2.5894,-2.6267,-2.6106,0.0,0.0,0.0,0.0,0.0,0.0,0.0,-2.5742,-2.582,-2.625,-2.6992,-2.8147,-3.0134,-3.2553,-3.4913,-3.6519,-3.8671,-4.0403,-4.0403,-4.0812,-4.1341,-4.187,-4.199,-4.2134,-4.2663,-4.3625,-4.4347,-4.4347,-4.5278,-4.6117,-4.6093,-4.6637,-4.7531,-4.8636,-4.8786,-4.9012,-4.954,-5.1331,-5.325,-5.522,-5.7064,-5.8937,-6.1015,-6.1193,-6.1193,-6.1193,-6.1193,-6.1193,-6.1193,-6.1193,-6.1193,-6.1193,-6.1193,-6.1193,-6.1193,-6.1193,-6.1193,-6.1193,-6.1193,-6.1193,-6.1193,-6.1193,-6.1193,-6.1193,-6.1193,-6.1193,-6.1193,-6.1193,-6.1193,-6.1193,-6.1193,-6.1193,-6.1193,0.0,0.0,0.0,0.0,0.0,0.0,0.0,0.0,-1.5297,-1.5391,-1.6005,0.0,0.0,0.0,0.0,0.0,0.0,0.0,-1.6834,-1.9445,-2.1036,-2.149,-2.3755,-2.5252,-2.5766,-2.5784,-2.6114,-2.6756,-2.7325,-2.7251,-2.6591,-2.6866,-2.6958,-2.6663,-2.6258,-2.6,-2.5959,-2.5442,-2.5069,-2.4939,-2.5187,-2.5427,-2.5544,0.0,0.0,0.0,0.0,0.0,0.0,0.0,0.0,0.0,-2.6699,-2.7617,-2.876,-2.9639,-3.1953,-3.4572,-3.5972,-3.8157,-4.0294,-4.0798,-4.1629,-4.2327,-4.2495,-4.2519,-4.2784,-4.3697,-4.413,-4.4347,-4.4347,-4.5154,-4.5744,-4.5744,-4.7329,-4.8579,-4.8903,-4.9887,-5.0594,-5.077,-5.3269,-5.4922,-5.4467,-5.7951,-6.0087,-5.974,-6.0681,-6.1193,-6.1193,-6.1193,-6.1193,-6.1193,-6.1193,-6.1193,-6.1193,-6.1193,-6.1193,-6.1193,-6.1193,-6.1193,-6.1193,-6.1193,-6.1193,-6.1193,-6.1193,-6.1193,-6.1193,-6.1193,-6.1193,-6.1193,-6.1193,-6.1193,-6.1193,-6.1193,-6.1193,-6.1193,0.0,0.0,0.0,0.0,0.0,0.0,-1.475,-1.5324,-1.5832,-1.6059,-1.666,-1.7007,0.0,0.0,0.0,-1.6446,-1.6607,-1.6754,-1.6874,-1.895,-2.056,-2.1179,-2.3186,-2.4729,-2.5711,-2.5582,-2.5766,-2.6334,-2.6811,-2.6885,-2.6591,-2.6995,-2.6885,-2.6334,-2.6408,-2.6096,-2.5472,-2.5433,-2.5099,-2.4783,-2.5008,-2.5172,-2.5156,0.0,0.0,0.0,0.0,0.0,0.0,0.0,0.0,0.0,-2.7129,-2.8027,-2.9133,-3.0298,-3.2612,-3.5232,-3.6689,-3.8869,-4.0905,-4.1441,-4.2134,-4.2808,-4.3024,-4.3216,-4.3577,-4.4227,-4.4515,-4.4659,-4.4659,-4.5344,-4.6032,-4.6226,-4.7764,-4.8886,-4.9109,-5.0298,-5.1005,-5.1005,-5.3137,-5.4628,-5.4887,-5.7729,-5.9645,-5.9891,-6.0681,-6.1193,-6.1193,-6.1193,-6.1193,-6.1193,-6.1193,-6.1193,-6.1193,-6.1193,-6.1193,-6.1193,-6.1193,-6.1193,-6.1193,-6.1193,-6.1193,-6.1193,-6.1193,-6.1193,-6.1193,-6.1193,-6.1193,-6.1193,-6.1193,-6.1193,-6.1193,-6.1193,-6.1193,-6.1193,0.0,0.0,0.0,0.0,0.0,0.0,-1.5712,-1.6086,-1.65,-1.7034,-1.7382,-1.7475,0.0,0.0,0.0,-1.6673,-1.6687,-1.682,-1.7088,-1.8419,-1.9746,-2.0877,-2.1945,-2.3423,-2.5307,-2.4856,-2.5021,-2.5858,-2.5894,-2.6096,-2.6481,-2.6885,-2.6664,-2.5986,-2.6738,-2.6261,-2.4904,-2.5507,-2.5191,-2.4343,-2.5058,-2.5164,-2.4881,-2.5339,0.0,0.0,0.0,0.0,0.0,0.0,0.0,0.0,-2.7539,-2.8242,-2.9301,-3.1359,-3.3919,-3.628,-3.7975,-4.0223,-4.2038,-4.199,-4.2399,-4.2952,-4.3481,-4.3986,-4.4347,-4.4347,-4.478,-4.514,-4.514,-4.5852,-4.656,-4.7094,-4.8044,-4.8763,-4.9303,-5.0246,-5.0861,-5.0861,-5.1715,-5.331,-5.5842,-5.6712,-5.8214,-6.0802,-6.1073,-6.1193,-6.1193,-6.1193,-6.1193,-6.1193,-6.1193,-6.1193,-6.1193,-6.1193,-6.1193,-6.1193,-6.1193,-6.1193,-6.1193,-6.1193,-6.1193,-6.1193,-6.1193,-6.1193,-6.1193,-6.1193,-6.1193,-6.1193,-6.1193,-6.1193,-6.1193,-6.1193,-6.1193,-6.1193,0.0,0.0,0.0,0.0,0.0,0.0,-1.5471,-1.6126,-1.666,-1.678,-1.7261,-1.7475,-1.7181,-1.6887,0.0,-1.638,-1.658,-1.6727,-1.6794,-1.8306,-1.9746,-2.0877,-2.2281,-2.3563,-2.4904,-2.3976,-2.4012,-2.5032,-2.5344,-2.5546,-2.5637,-2.6041,-2.6133,-2.5968,-2.6151,-2.6023,-2.5674,-2.5245,-2.4914,-2.4629,-2.4672,-2.4702,-2.4646,-2.4937,-2.5074,0.0,0.0,0.0,0.0,0.0,0.0,0.0,-2.7303,-2.8009,-2.9082,-3.028,-3.2913,-3.5747,-3.6838,-3.9775,-4.2495,-4.2086,-4.2663,-4.3481,-4.4034,-4.4275,-4.4347,-4.4347,-4.478,-4.514,-4.514,-4.591,-4.6858,-4.7389,-4.8525,-4.9596,-5.0133,-5.097,-5.159,-5.159,-5.3012,-5.4118,-5.4759,-5.7085,-5.8843,-5.9493,-6.056,-6.1193,-6.1193,-6.1193,-6.1193,-6.1193,-6.1193,-6.1193,-6.1193,-6.1193,-6.1193,-6.1193,-6.1193,-6.1193,-6.1193,-6.1193,-6.1193,-6.1193,-6.1193,-6.1193,-6.1193,-6.1193,-6.1193,-6.1193,-6.1193,-6.1193,-6.1193,-6.1193,-6.1193,-6.1193,0.0,0.0,0.0,0.0,0.0,0.0,0.0,0.0,-1.6807,-1.7088,-1.7395,-1.7422,-1.6981,-1.6794,0.0,0.0,-1.6326,-1.6553,-1.67,-1.7626,-1.8758,-2.0055,-2.2384,-2.3728,-2.4025,-2.3746,-2.405,-2.4776,-2.4794,-2.4996,-2.5381,-2.5766,-2.5748,-2.5417,-2.5784,-2.5637,-2.5087,-2.4867,-2.4666,-2.4482,-2.4664,-2.4727,-2.4846,-2.5051,-2.5357,-2.5684,-2.6116,0.0,0.0,0.0,0.0,0.0,0.0,0.0,-2.903,-3.0517,-3.2395,-3.4554,-3.7015,-3.9423,-4.1377,-4.2472,-4.3313,-4.3986,-4.4275,-4.4539,-4.4732,-4.4732,-4.4948,-4.5285,-4.579,-4.6343,-4.6968,-4.7762,-4.8691,-4.9527,-5.0059,-5.0895,-5.1516,-5.182,-5.2742,-5.4029,-5.5472,-5.7167,-5.8592,-6.0014,-6.0802,-6.1193,-6.1193,-6.1193,-6.1193,-6.1193,-6.1193,-6.1193,-6.1193,-6.1193,-6.1193,-6.1193,-6.1193,-6.1193,-6.1193,-6.1193,-6.1193,-6.1193,-6.1193,-6.1193,-6.1193,-6.1193,-6.1193,-6.1193,-6.1193,-6.1193,-6.1193,-6.1193,-6.1193,-6.1193,0.0,0.0,0.0,0.0,0.0,0.0,0.0,0.0,0.0,-1.7448,-1.7502,-1.7288,-1.67,-1.6633,-1.642,0.0,0.0,0.0,-1.6687,-1.7238,-1.8039,-1.9109,-2.2097,-2.3379,-2.298,-2.3598,-2.4117,-2.4666,-2.4317,-2.45,-2.5161,-2.5564,-2.5417,-2.4812,-2.5472,-2.5197,-2.428,-2.4556,-2.4464,-2.4189,-2.4611,-2.4859,-2.508,-2.5319,-2.5792,-2.6194,-2.6268,-2.6491,-2.6896,-2.7511,0.0,0.0,0.0,0.0,-2.8752,-3.0789,-3.1957,-3.3235,-3.7148,-3.9167,-4.055,-4.2903,-4.3938,-4.4347,-4.4347,-4.4828,-4.5309,-4.5381,-4.5405,-4.5694,-4.668,-4.692,-4.7329,-4.8387,-4.894,-4.9397,-4.9926,-5.0664,-5.1236,-5.1541,-5.196,-5.3402,-5.626,-5.652,-5.7834,-6.0681,-6.0802,-6.0923,-6.1193,-6.1193,-6.1193,-6.1193,-6.1193,-6.1193,-6.1193,-6.1193,-6.1193,-6.1193,-6.1193,-6.1193,-6.1193,-6.1193,-6.1193,-6.1193,-6.1193,-6.1193,-6.1193,-6.1193,-6.1193,-6.1193,-6.1193,-6.1193,-6.1193,-6.1193,-6.1193,-6.1193,0.0,0.0,0.0,0.0,0.0,0.0,0.0,0.0,0.0,0.0,-1.7208,-1.6981,-1.6393,-1.6326,-1.6192,-1.5858,-1.6099,-1.6393,-1.6687,0.0,0.0,-1.9228,-2.057,-2.1725,-2.2603,-2.2653,-2.3273,-2.4244,-2.4288,-2.4207,-2.4317,-2.4739,-2.4886,-2.4794,-2.4886,-2.4849,-2.4684,-2.4372,-2.4207,-2.4189,-2.4611,-2.4776,-2.4914,-2.5216,-2.5503,-2.5595,-2.5945,-2.6111,-2.6203,-2.668,-2.6658,0.0,0.0,0.0,-2.7872,-2.9222,-3.1014,-3.308,-3.5779,-3.9419,-4.2568,-4.3337,-4.3938,-4.4347,-4.4347,-4.5116,-4.5958,-4.6415,-4.6511,-4.668,-4.7281,-4.7762,-4.8435,-4.9469,-4.971,-4.995,-5.0503,-5.0648,-5.0837,-5.0837,-5.1401,-5.2466,-5.4164,-5.4835,-5.6417,-5.9121,-5.9369,-5.9891,-6.1193,-6.1193,-6.1193,-6.1193,-6.1193,-6.1193,-6.1193,-6.1193,-6.1193,-6.1193,-6.1193,-6.1193,-6.1193,-6.1193,-6.1193,-6.1193,-6.1193,-6.1193,-6.1193,-6.1193,-6.1193,-6.1193,-6.1193,-6.1193,-6.1193,-6.1193,-6.1193,-6.1193,0.0,0.0,0.0,0.0,0.0,0.0,0.0,0.0,0.0,0.0,0.0,-1.6927,-1.6339,-1.6273,-1.6152,-1.5858,-1.5952,-1.6219,-1.6673,-1.8108,-1.8743,-1.829,-2.057,-2.1404,-2.0672,-2.2518,-2.3438,-2.3238,-2.3854,-2.428,-2.4519,-2.4702,-2.4666,-2.4427,-2.4427,-2.4427,-2.4427,-2.4482,-2.45,-2.4537,-2.4941,-2.5381,-2.5839,-2.6224,-2.6518,-2.6774,-2.7178,-2.7031,-2.6664,-2.7086,-2.6974,-2.6747,-2.6933,0.0,0.0,0.0,-2.9988,-3.2125,-3.6382,-3.9813,-4.2447,-4.3647,-4.4178,-4.4347,-4.4347,-4.5164,-4.6078,-4.6607,-4.7185,-4.7762,-4.8291,-4.8579,-4.8988,-4.9734,-4.9878,-5.007,-5.0624,-5.0696,-5.0837,-5.0954,-5.1516,-5.2466,-5.4029,-5.4727,-5.5762,-5.7834,-5.8592,-5.8996,-5.8843,-6.0287,-6.0802,-6.0043,-6.0802,-6.1193,-6.1193,-6.1193,-6.1367,-6.1687,-6.1687,-6.1687,-6.1687,-6.1338,-6.1193,-6.1193,-6.1193,-6.1193,-6.1193,-6.1193,-6.1193,-6.1193,-6.1193,-6.1193,-6.1193,-6.1193,-6.1193,-6.1193,0.0,0.0,0.0,0.0,0.0,0.0,0.0,0.0,0.0,0.0,0.0,-1.6927,-1.6339,0.0,0.0,0.0,-1.5832,-1.6046,-1.6567,-1.7736,-1.8263,-1.7866,-2.0318,-2.0979,-1.9642,-2.2316,-2.3338,-2.2535,-2.3637,-2.4372,-2.4776,-2.4776,-2.4666,-2.4464,-2.4354,-2.4262,-2.4288,-2.4611,-2.4849,-2.4977,-2.5582,-2.6261,-2.694,-2.7453,-2.7765,-2.7967,-2.8278,-2.793,-2.7325,-2.7549,-2.7326,-2.6899,-2.7011,-2.7196,0.0,0.0,0.0,-3.1896,-3.664,-3.946,-4.1586,-4.314,-4.3692,-4.3931,-4.4199,-4.5261,-4.6271,0.0,-4.7858,-4.882,-4.9205,-4.9277,-4.9445,-4.9998,-5.007,0.0,0.0,0.0,0.0,0.0,0.0,0.0,-5.3487,-5.4055,-5.4861,-5.626,-5.7423,-5.7706,-5.7038,-5.8996,-5.9768,-5.9121,-6.0165,-6.0802,-6.1193,-6.1338,-6.1745,-6.2354,-6.218,-6.2093,-6.2064,-6.1629,-6.1425,-6.1425,-6.128,-6.1193,-6.1193,-6.1193,-6.1193,-6.1193,-6.1193,-6.1193,-6.1193,-6.1193,-6.1193,-6.1193,0.0,0.0,0.0,0.0,0.0,0.0,0.0,0.0,0.0,0.0,0.0,-1.6927,-1.6339,-1.6273,-1.6152,-1.5858,-1.5832,-1.5965,-1.6273,-1.6935,-1.7756,-1.8687,-1.917,0.0,-2.0775,-2.2013,-2.2535,-2.2535,-2.3637,-2.4372,-2.4776,-2.4776,-2.4977,-2.5289,-2.4922,-2.4519,-2.4288,-2.4611,-2.4996,-2.5436,-2.6609,-2.7325,-2.7783,-2.859,-2.8663,-2.837,-2.8388,-2.8113,-2.7728,-2.7728,-2.7233,-2.6646,-2.7031,-2.6903,-2.6701,0.0,0.0,0.0,-3.551,-3.7859,-3.9729,-4.0856,-4.1966,-4.2962,-4.4103,-4.5549,-4.6824,-4.7353,-4.87,-4.9806,-4.983,-4.983,0.0,0.0,0.0,0.0,0.0,0.0,0.0,0.0,0.0,0.0,0.0,0.0,0.0,-5.4407,-5.4968,-5.5762,-5.6909,-5.7167,-5.7806,-5.9121,-5.9121,-5.9891,-6.1193,-6.1774,-6.2383,-6.3022,-6.2383,-6.2093,-6.2093,-6.2064,-6.2035,-6.2006,-6.1454,-6.1193,-6.1193,-6.1193,-6.1193,-6.1193,-6.1193,-6.1193,-6.1193,-6.1193,-6.1193,-6.1193,0.0,0.0,0.0,0.0,0.0,0.0,0.0,0.0,0.0,0.0,0.0,0.0,0.0,-1.6553,-1.6433,-1.6139,-1.5939,-1.5952,-1.6259,-1.6473,-1.6873,-1.7452,-1.8455,-1.9125,-1.9532,-2.1476,-2.2535,-2.2535,-2.3637,-2.4372,-2.4776,-2.4776,-2.4996,-2.5362,-2.4959,-2.4702,-2.4592,-2.4977,-2.5381,-2.5839,-2.6793,-2.7581,-2.826,-2.9067,-2.9269,-2.9214,-2.9745,-2.9342,-2.8553,-2.8553,-2.8022,-2.7325,-2.7215,-2.7251,-2.7492,-2.8295,-3.0266,-3.2715,-3.4782,-3.6993,-3.9044,-4.0144,-4.1532,-4.272,-4.3156,-4.4792,-4.6367,-4.6896,-4.8267,0.0,0.0,0.0,0.0,0.0,0.0,0.0,0.0,0.0,0.0,0.0,0.0,0.0,0.0,0.0,0.0,0.0,0.0,-5.4567,-5.435,-5.6025,-5.678,-5.6417,-5.7295,-5.7933,-5.8467,-5.9177,-6.0202,-6.1741,-6.1115,-6.1758,-6.3312,-6.247,-6.2093,-6.2093,-6.2325,-6.2412,-6.2383,-6.1948,-6.2035,-6.2325,-6.1513,-6.1425,-6.1716,-6.1338,-6.1193,-6.1193,0.0,0.0,0.0,0.0,0.0,0.0,0.0,0.0,-1.7095,-1.7315,0.0,0.0,0.0,0.0,-1.674,-1.6446,-1.6152,-1.6059,-1.6259,-1.6273,-1.6549,-1.7035,-1.7739,-1.834,-1.876,-2.0664,-2.1762,-2.2013,-2.3313,-2.4225,-2.4776,-2.4776,-2.4996,-2.5362,-2.4959,-2.4776,-2.4812,-2.5344,-2.5803,-2.6261,-2.7196,-2.815,-2.9067,-2.9727,-3.0057,-3.0241,-3.0791,-3.0387,-2.9617,-2.9745,-2.9159,-2.8333,-2.8058,-2.7783,-2.7807,-2.9176,-3.0505,-3.1901,-3.421,-3.6143,-3.7836,-3.9044,-4.0416,-4.1614,-4.2456,-4.3867,-4.5366,-4.6535,0.0,0.0,0.0,0.0,0.0,0.0,0.0,0.0,0.0,0.0,0.0,0.0,0.0,0.0,0.0,0.0,0.0,0.0,0.0,0.0,-5.2515,-5.4459,-5.5366,-5.502,-5.6287,-5.7146,-5.7336,-5.7716,-5.8756,-6.0274,-6.0202,-6.0977,-6.2715,-6.2456,-6.2167,-6.1796,-6.2861,-6.3167,-6.2732,-6.2529,-6.2703,-6.3022,-6.218,-6.1948,-6.2035,-6.1658,-6.1367,-6.1193,0.0,0.0,0.0,0.0,0.0,0.0,-1.663,-1.6749,-1.6961,-1.7503,0.0,0.0,0.0,0.0,0.0,-1.674,-1.6446,-1.6273,-1.6273,-1.6259,-1.6732,-1.7779,-1.7119,-1.7324,-1.8831,-1.9512,-2.0178,-2.0995,-2.2652,-2.3969,-2.4757,-2.4757,-2.4977,-2.5344,-2.4959,-2.4794,-2.4849,-2.5637,-2.6206,-2.6701,-2.793,-2.914,-3.0222,-3.0644,-3.1047,-3.1377,-3.1396,-3.1157,-3.0882,-3.1249,-3.0589,-2.9599,-2.9562,-2.8462,-2.7586,-2.9727,-3.0419,-3.1085,0.0,0.0,0.0,-3.7228,-3.8335,-3.9688,-4.2023,0.0,-4.4026,0.0,0.0,0.0,0.0,0.0,0.0,0.0,0.0,0.0,0.0,0.0,0.0,0.0,0.0,0.0,0.0,0.0,0.0,0.0,-5.1516,-5.182,-5.182,-5.2238,-5.3154,-5.4887,-5.6156,-5.7207,-5.7879,-5.7906,-5.8232,-5.8989,-5.9662,-6.002,-6.0104,-6.2141,-6.2119,-6.0947,-6.306,-6.3159,-6.2151,-6.2819,-6.3109,-6.3138,-6.308,-6.2674,-6.2122,-6.2093,-6.1687,-6.1193,0.0,0.0,0.0,0.0,0.0,-1.6172,-1.6895,-1.7041,-1.7334,0.0,0.0,0.0,-1.7809,-1.7408,-1.7114,-1.7034,-1.6567,-1.6273,-1.6273,-1.6072,-1.6048,-1.632,-1.6427,-1.7401,-1.9579,-2.0032,-2.123,-2.3338,-2.3727,-2.4097,-2.4335,-2.4335,-2.4556,-2.4941,-2.4831,-2.4941,-2.5271,-2.6078,-2.6481,-2.6738,-2.8535,-2.9452,-2.9855,-3.0846,-3.1286,0.0,0.0,-3.2001,-3.1634,0.0,-3.0974,-3.0296,-2.9415,-2.8443,-2.7676,-2.8051,-2.8971,-3.0207,-3.1268,0.0,0.0,0.0,0.0,0.0,0.0,0.0,0.0,0.0,0.0,0.0,0.0,0.0,0.0,0.0,0.0,0.0,0.0,0.0,0.0,0.0,0.0,0.0,0.0,0.0,0.0,0.0,-5.1352,-5.1516,-5.182,-5.2238,-5.2629,-5.3154,-5.4057,-5.4543,-5.4312,-5.4697,-5.5709,-5.7376,-5.6744,-5.7593,-5.9874,-5.9552,-5.922,-5.8859,-6.0919,-6.1415,-6.0734,-6.2418,-6.3632,-6.4328,-6.2906,-6.2558,-6.2703,-6.1774,-6.1338,-6.1251,0.0,0.0,-1.5885,-1.5885,-1.5885,-1.6196,-1.6901,-1.6946,-1.7296,0.0,0.0,0.0,-1.7849,-1.7543,-1.737,-1.7341,-1.6813,-1.6547,-1.6633,-1.6366,-1.6192,-1.6192,-1.6366,-1.7175,-1.8766,-1.9704,-2.1081,-2.282,-2.3574,-2.3987,-2.4152,-2.4152,-2.4372,-2.4776,-2.4776,-2.4996,-2.5436,-2.6591,-2.6976,-2.6958,-2.848,-2.9379,-2.9947,-3.0974,-3.1598,0.0,0.0,0.0,-3.2496,-3.2423,-3.1909,0.0,-3.0461,-2.9342,-2.8376,-2.9089,-2.9508,-3.0003,-3.0984,-3.2571,-3.4149,-3.4889,0.0,0.0,-3.9598,-4.1011,0.0,0.0,0.0,0.0,0.0,0.0,0.0,0.0,0.0,0.0,0.0,0.0,0.0,0.0,0.0,0.0,0.0,-5.0696,-5.0837,-5.0954,-5.0954,-5.1095,-5.1516,-5.1796,-5.2074,-5.2377,-5.3153,-5.3318,-5.2929,-5.3432,-5.4151,-5.5194,-5.5065,-5.5919,-5.7812,-5.7992,-5.7644,-5.7143,-5.8941,-5.9311,-5.8838,-6.0398,-6.2222,-6.4096,-6.2284,-6.2035,-6.2587,-6.1832,-6.1571,-6.1629,0.0,0.0,-1.5897,-1.5934,-1.5934,-1.6138,-1.6661,-1.68,-1.7047,0.0,-1.7675,-1.7556,-1.7477,-1.7502,-1.7554,-1.7503,-1.7016,-1.6846,-1.7154,-1.6874,-1.67,-1.67,-1.67,-1.6948,-1.7551,-1.9048,-2.0309,-2.1285,-2.2786,-2.3804,-2.4152,-2.4152,-2.4354,-2.4721,-2.4757,-2.5032,-2.5527,-2.7013,-2.7526,-2.7453,-2.8315,-2.9305,0.0,0.0,-3.2019,-3.279,-3.3211,-3.3358,-3.3395,-3.3651,-3.2936,0.0,-3.1946,-3.0644,-2.9517,-3.1289,-3.0879,-3.0064,-3.1666,-3.2851,-3.3654,-3.3833,-3.5275,0.0,-3.9719,-4.0418,0.0,0.0,0.0,0.0,0.0,0.0,0.0,0.0,0.0,0.0,0.0,0.0,0.0,0.0,0.0,0.0,-5.0527,-5.0576,-5.06,-5.06,-5.0672,-5.0837,-5.1071,-5.1211,-5.1492,-5.2213,-5.2948,-5.3113,-5.2792,-5.3507,-5.3532,-5.3005,-5.4319,-5.4831,-5.4857,-5.677,-5.6824,-5.5591,-5.7036,-5.7224,-5.6621,-5.7383,-5.9662,-6.2553,-6.1402,-6.1285,-6.1971,-6.2093,-6.2093,-6.2122,-1.5885,-1.5885,-1.5958,-1.6163,-1.6211,-1.6478,-1.7303,-1.7378,-1.7601,-1.8224,-1.7853,-1.7463,-1.6893,-1.6881,-1.7013,-1.7279,-1.6912,-1.6846,-1.7154,-1.6874,-1.67,-1.67,-1.67,-1.7638,-1.9753,-2.009,-2.1362,-2.3538,-2.3863,-2.4079,-2.4152,-2.4152,-2.4189,-2.428,-2.4629,-2.5179,-2.5894,-2.6536,-2.7526,-2.8737,-2.9874,-3.0461,-3.0791,-3.1928,-3.2863,-3.3633,-3.4018,-3.4165,-3.4092,-3.3523,-3.2514,-3.1506,-3.1506,-3.0791,-2.9959,-2.9729,-2.9673,-2.9774,-3.0141,-3.1237,-3.2432,-3.3633,-3.4665,0.0,-3.6161,-3.7224,0.0,0.0,0.0,0.0,0.0,0.0,0.0,0.0,0.0,0.0,0.0,0.0,0.0,0.0,0.0,0.0,-4.9397,-4.9782,-5.0022,-5.0022,-5.0455,-5.0696,-5.0837,-5.1095,-5.1211,-5.1352,-5.2755,-5.3088,-5.2515,-5.3487,-5.3828,-5.3557,-5.381,-5.3948,-5.3948,-5.4301,-5.4123,-5.3605,-5.5043,-5.5496,-5.5334,-5.547,-5.7222,-5.9855,-6.013,-6.0385,-6.0677,-6.1697,-6.2093,-6.2238,-1.5885,-1.5885,-1.597,-1.6235,-1.6284,-1.6575,-1.7236,-1.7315,-1.7503,-1.7918,-1.7856,-1.7639,-1.7207,-1.7283,-1.7418,-1.7616,-1.7473,-1.7488,-1.7822,-1.7675,-1.7528,-1.7382,-1.7382,-1.7874,-1.8994,-2.0116,-2.1227,-2.2227,-2.3547,-2.4042,-2.3859,-2.406,-2.4592,-2.5362,-2.5161,-2.5858,-2.7196,-2.7398,-2.8187,-2.9324,-2.9929,0.0,-3.1194,-3.2203,-3.3101,-3.3872,-3.4257,-3.4403,-3.4348,-3.3945,-3.3138,0.0,-3.2533,-3.1909,-3.1138,-3.1233,-3.0705,-3.0285,-3.0615,-3.1034,-3.1544,-3.2253,-3.3109,0.0,0.0,0.0,0.0,0.0,0.0,0.0,0.0,0.0,0.0,0.0,0.0,0.0,0.0,0.0,0.0,0.0,0.0,0.0,-4.9084,-4.9325,-4.9589,-4.9854,-5.0119,-5.0407,-5.0696,-5.0837,-5.1095,-5.1211,-5.2156,-5.249,-5.2099,-5.289,-5.3155,-5.275,-5.275,-5.2889,-5.3028,-5.3028,-5.3042,-5.2929,-5.37,-5.3971,-5.3971,-5.3971,-5.4686,-5.61,-5.7867,-5.9233,-6.03,-6.1574,-6.2499,-6.3167,-1.5885,-1.5885,-1.5994,-1.6308,-1.6356,-1.6549,-1.708,-1.7163,-1.7291,-1.7501,-1.7817,-1.7881,-1.7654,-1.7944,-1.8109,-1.8104,-1.8078,-1.8315,-1.8552,-1.8486,-1.838,-1.8317,-1.8143,-1.8171,-1.8379,-2.0028,-2.0937,-2.1047,-2.3178,-2.4024,-2.3785,-2.4115,-2.5014,-2.6334,-2.5986,-2.6701,-2.8187,-2.8663,-2.9177,-2.9709,0.0,-3.0717,-3.1818,-3.2625,-3.345,-3.4202,-3.4513,-3.4642,-3.4623,-3.455,-3.4092,-3.3596,-3.3762,-3.3138,-3.2427,-3.2879,-3.2057,-3.0917,-3.1285,-3.1252,-3.1142,-3.1219,-3.178,-3.2753,0.0,0.0,0.0,0.0,0.0,0.0,0.0,0.0,0.0,0.0,0.0,0.0,0.0,0.0,0.0,0.0,0.0,0.0,0.0,-4.8988,-4.9397,-4.983,-5.007,-5.0335,-5.0696,-5.0696,-5.0837,-5.1095,-5.1629,-5.1937,-5.1681,-5.2171,-5.2312,-5.182,-5.1919,-5.2059,-5.2238,-5.2337,-5.2476,-5.2654,-5.2654,-5.2792,-5.2792,-5.2792,-5.2842,-5.333,-5.5789,-5.7758,-5.9512,-6.1336,-6.2736,-6.3659,-1.5885,-1.5885,-1.6054,-1.6561,-1.6658,-1.6827,-1.7358,-1.7456,-1.7526,-1.7551,-1.7749,-1.8002,-1.7977,-1.8235,-1.8364,-1.8326,-1.8326,-1.8442,-1.8803,-1.8542,-1.8617,-1.9212,-1.8464,-1.8996,-2.1263,-2.1091,-2.1878,-2.3764,-2.4016,-2.4317,-2.4647,-2.4684,-2.4996,-2.5564,-2.6903,-2.7435,-2.7453,-2.9599,-3.0369,-3.0222,-3.1304,-3.2239,0.0,-3.389,-3.4697,-3.5412,-3.5467,-3.5485,-3.543,0.0,-3.4899,-3.4715,0.0,-3.3725,-3.3321,-3.2003,-3.1525,-3.1176,-3.053,-3.087,-3.1642,-3.1903,-3.1834,-3.1803,-3.2409,0.0,-3.2105,-3.2383,0.0,0.0,0.0,0.0,0.0,0.0,0.0,0.0,0.0,0.0,0.0,0.0,0.0,0.0,0.0,-4.8676,-4.9806,-4.9854,-5.0768,-5.1129,-5.072,-5.0696,-5.0696,-5.0696,-5.1201,-5.151,-5.1211,-5.1746,-5.203,-5.182,-5.2263,-5.2238,-5.182,-5.2428,-5.2379,-5.196,-5.196,-5.2099,-5.2515,-5.2515,-5.2928,-5.3747,-5.532,-5.6022,-5.6717,-6.0449,-6.1864,-6.2349,-1.5885,-1.5885,-1.6066,-1.661,-1.6706,-1.6875,-1.7406,-1.7645,-1.7787,-1.7787,-1.8019,-1.8311,-1.8419,-1.8791,-1.9031,-1.915,-1.9389,-1.9509,0.0,0.0,-1.9469,-1.9372,-1.968,-2.0236,-2.0861,-2.1957,-2.274,-2.3238,-2.409,-2.4482,-2.4427,-2.4666,-2.5362,-2.6463,-2.7361,-2.8058,-2.8663,-3.0149,-3.1231,0.0,0.0,0.0,0.0,-3.4293,-3.4715,-3.565,-3.587,-3.5815,-3.5595,0.0,-3.5375,0.0,0.0,-3.4642,-3.4844,-3.2991,-3.279,-3.2863,-3.1598,-3.1653,-3.2132,-3.1832,-3.1813,-3.172,-3.1177,-3.0934,-3.0728,-3.0485,0.0,0.0,0.0,0.0,0.0,0.0,-3.7746,0.0,0.0,0.0,0.0,0.0,0.0,0.0,0.0,0.0,0.0,0.0,-5.0407,-5.0936,-5.072,-5.1008,-5.1153,-5.1153,-5.1369,-5.1512,-5.1414,-5.1341,-5.1196,-5.1119,-5.1338,-5.1455,-5.1516,-5.1736,-5.1712,-5.182,-5.182,-5.2099,-5.2377,-5.2377,-5.2953,-5.3733,-5.4733,-5.5874,-5.7151,-5.9641,-6.1281,-6.2568,-1.5994,-1.5934,-1.6066,-1.661,-1.6706,-1.6899,-1.7503,-1.7744,-1.7925,-1.8082,-1.8459,-1.8778,-1.9225,-1.9549,-1.9837,-2.0099,-2.0224,-2.0335,0.0,0.0,-2.0239,-2.0094,-2.0536,0.0,-2.1197,-2.2549,-2.3252,-2.3251,-2.4386,-2.4849,-2.4647,-2.4959,-2.5839,-2.7196,-2.782,-2.8645,-2.9635,-3.0681,-3.1799,-3.2918,-3.3248,-3.4458,-3.5925,-3.488,-3.5009,-3.5815,-3.6109,-3.6017,-3.5779,-3.5779,-3.5852,0.0,-3.499,-3.5412,-3.5852,-3.4073,-3.3945,-3.4092,-3.2716,-3.2459,-3.2478,-3.2001,-3.1854,-3.1671,-3.1011,-3.0607,-3.0241,-2.9837,-2.9892,0.0,0.0,0.0,-3.3336,-3.4512,0.0,-3.5972,0.0,0.0,0.0,0.0,0.0,0.0,0.0,0.0,0.0,0.0,0.0,-5.0768,-5.0912,-5.1153,-5.1417,-5.1706,-5.1417,-5.1345,-5.1489,-5.096,-5.0696,-5.0696,-5.0696,-5.0837,-5.1095,-5.1095,-5.1236,-5.1541,-5.1541,-5.1681,-5.2099,-5.2247,-5.2899,-5.3843,-5.442,-5.566,-5.7395,-5.8738,-6.0484,-6.2242,-1.6272,-1.6066,-1.6066,-1.661,-1.6706,-1.696,-1.7744,-1.7865,-1.8058,-1.8589,-1.9132,-1.9786,-2.032,-2.0717,-2.0882,-2.0882,0.0,-2.0882,-2.0882,0.0,-2.0952,-2.1884,-2.0402,-2.0769,0.0,-2.2498,-2.3084,-2.5326,-2.5344,-2.5546,-2.5894,-2.5913,-2.6371,-2.7233,-2.8407,-2.9177,-2.9672,-3.1286,-3.2001,-3.2148,-3.3321,-3.4532,-3.5669,0.0,-3.6164,-3.6182,-3.6201,0.0,0.0,-3.6182,-3.6457,0.0,0.0,0.0,-3.5962,-3.4733,-3.4385,-3.422,-3.3413,-3.29,-3.2698,-3.3065,-3.2276,-3.1598,-3.2349,-3.1616,-3.0662,-3.0259,-2.9874,-2.972,-3.0121,-3.0804,-3.115,-3.0683,-3.2894,0.0,0.0,0.0,0.0,0.0,0.0,0.0,0.0,0.0,0.0,0.0,0.0,0.0,-5.1441,-5.1008,-5.1201,-5.2235,-5.1273,-5.096,-5.1489,-5.096,-5.0696,-5.0696,-5.0696,-5.0696,-5.0696,-5.0696,-5.0696,-5.0696,-5.0696,-5.0978,-5.126,-5.1771,-5.2735,-5.4017,-5.4563,-5.5401,-5.646,-5.785,-5.9375,-6.0893,-1.6585,-1.6489,-1.6489,-1.667,-1.6706,-1.696,-1.7756,-1.8034,-1.8348,0.0,0.0,0.0,0.0,-2.0485,-2.08,0.0,0.0,-2.1317,-2.1595,-2.1542,0.0,0.0,0.0,-2.3291,0.0,-2.515,-2.5896,-2.6169,-2.6169,-2.6096,-2.5968,-2.5968,-2.6389,-2.7233,-2.8443,-2.936,-3.0075,-3.1433,-3.279,0.0,0.0,-3.5889,-3.5999,0.0,-3.5981,-3.6201,-3.6201,-3.6201,0.0,-3.6201,-3.6494,-3.6696,-3.587,-3.6439,-3.7062,-3.532,-3.5375,-3.5724,0.0,0.0,-3.4495,-3.4092,0.0,0.0,0.0,-3.2276,-3.1396,-3.0736,-3.0277,-2.9984,-3.0125,-3.0485,-3.066,-3.0496,-3.1406,-3.2076,0.0,0.0,0.0,0.0,0.0,0.0,0.0,0.0,0.0,0.0,0.0,0.0,0.0,-5.1273,-5.1922,-5.2283,-5.2283,-5.2187,-5.2018,-5.1489,-5.1056,-5.0696,-5.0696,-5.0696,-5.0696,-5.0696,-5.0696,-5.0696,-5.0696,-5.103,-5.1746,-5.1941,-5.298,-5.4563,-5.4737,-5.5426,-5.6219,-5.6776,-5.7876,-5.9515,-1.6894,-1.6899,-1.6839,-1.6839,-1.6996,-1.7358,-1.8058,-1.8396,0.0,0.0,-1.9615,0.0,-2.0674,0.0,-2.1133,0.0,-2.1803,-2.1978,-2.2493,-2.2443,0.0,-2.2071,-2.3164,0.0,0.0,0.0,-2.6478,-2.6198,-2.6645,-2.6591,-2.6188,-2.6188,-2.6609,-2.7416,-2.8205,-2.9324,-3.0662,-3.1469,-3.2955,0.0,0.0,-3.6329,0.0,0.0,-3.6072,-3.6402,0.0,-3.6201,-3.6201,-3.6201,-3.6384,-3.6549,-3.6164,-3.6769,-3.7374,-3.6219,-3.6531,-3.6971,-3.5632,-3.554,0.0,-3.5009,-3.4825,0.0,-3.4018,0.0,-3.2496,-3.1964,-3.1322,-3.0882,-3.1029,-3.0978,-3.0982,-3.0982,-3.1007,-3.1055,0.0,-3.125,0.0,0.0,0.0,0.0,0.0,0.0,0.0,0.0,0.0,0.0,0.0,0.0,-5.2163,-5.2548,-5.2716,-5.262,-5.2283,-5.1754,-5.1225,-5.0696,-5.0696,-5.0696,-5.0696,-5.0696,-5.0696,-5.0696,-5.0696,-5.1127,-5.1895,-5.2089,-5.2985,-5.4376,-5.4719,-5.5309,-5.6072,-5.6219,-5.7184,-5.8701,-1.7244,-1.7298,-1.7141,-1.7165,-1.7575,-1.807,0.0,0.0,-1.9181,0.0,-2.0183,-2.0816,-2.1118,-2.1457,-2.1787,-2.2494,-2.265,0.0,-2.3627,-2.3403,0.0,0.0,-2.2781,-2.2676,-2.3826,0.0,0.0,0.0,-2.6721,-2.7013,-2.6609,-2.6591,-2.7013,-2.7765,-2.7765,-2.9104,-3.1377,-3.1433,-3.2606,-3.4532,-3.532,-3.5889,-3.6237,-3.6219,-3.6476,-3.6787,-3.6366,-3.6201,-3.6201,-3.6201,-3.6201,-3.6274,-3.6696,-3.6842,-3.6934,-3.7319,-3.7704,-3.7851,-3.7081,-3.6586,-3.6201,-3.5797,-3.5119,0.0,0.0,0.0,-3.3835,0.0,-3.2918,-3.2203,-3.257,-3.219,-3.191,-3.1766,-3.168,-3.1465,-3.1055,-3.1309,0.0,0.0,0.0,0.0,0.0,0.0,0.0,0.0,0.0,0.0,0.0,0.0,-5.1994,-5.3004,-5.2596,-5.2331,-5.2331,-5.1802,-5.1273,-5.0744,-5.072,-5.0696,-5.0696,-5.0696,-5.0696,-5.0696,-5.0744,-5.1032,-5.1562,-5.2091,-5.2913,-5.3692,-5.4672,-5.5189,-5.5632,-5.6072,-5.7184,-5.856,-1.7563,-1.7587,-1.7805,-1.8203,-1.8227,-1.83,0.0,0.0,0.0,0.0,-2.0424,-2.0822,-2.1363,-2.1716,-2.2056,-2.2784,-2.312,0.0,0.0,0.0,0.0,-2.3781,-2.3997,-2.4238,-2.4491,-2.5977,0.0,-2.6898,-2.7401,-2.7416,-2.7013,-2.6719,-2.7013,-2.7765,-2.7765,-2.9104,-3.1396,-3.1726,-3.3193,-3.5357,-3.5852,-3.6311,-3.6641,0.0,-3.6476,-3.6787,-3.6366,-3.6201,-3.6201,-3.6201,-3.6201,-3.6274,-3.6696,-3.7044,-3.7301,-3.7393,-3.7704,-3.7906,-3.7411,-3.7411,-3.7448,-3.7062,-3.6586,-3.6164,0.0,0.0,0.0,0.0,0.0,0.0,0.0,0.0,-3.3198,-3.3179,-3.2988,-3.2793,-3.2363,0.0,0.0,-3.2578,0.0,0.0,0.0,0.0,0.0,0.0,0.0,0.0,0.0,0.0,0.0,-5.2475,-5.3101,-5.3245,-5.286,-5.2331,-5.1826,-5.1297,-5.0888,-5.0696,-5.0696,-5.0696,-5.0696,-5.072,-5.1129,-5.1586,-5.2115,-5.2644,-5.3445,-5.4227,-5.4819,-5.5485,-5.6072,-5.6219,-5.7184,-5.8418,-1.7074,-1.7753,-1.836,-1.8782,0.0,0.0,-1.9193,0.0,0.0,-2.0702,-2.1124,0.0,-2.1945,-2.2223,-2.268,-2.3429,-2.3718,0.0,-2.5211,0.0,0.0,-2.4543,-2.4657,-2.4694,-2.4554,-2.5901,0.0,-2.6684,-2.7263,-2.7571,-2.7435,-2.7215,-2.7618,-2.8553,-2.837,-2.9654,-3.1964,-3.2918,-3.4312,-3.5889,-3.6109,-3.6347,0.0,-3.6292,-3.6476,-3.6806,-3.6567,-3.6366,-3.6237,-3.6421,-3.6476,-3.6586,-3.7173,-3.7503,-3.7723,-3.7906,-3.8236,-3.8456,-3.8071,-3.8126,-3.8199,-3.7778,-3.7393,-3.7026,-3.6787,-3.6072,-3.5522,0.0,-3.5119,-3.4642,0.0,0.0,0.0,-3.3877,-3.3611,-3.334,-3.3105,0.0,0.0,0.0,-3.4332,0.0,0.0,0.0,0.0,0.0,0.0,0.0,0.0,0.0,0.0,-5.2259,-5.2285,-5.257,-5.3077,-5.1977,-5.1479,-5.1489,-5.1201,-5.0936,-5.0696,-5.0696,-5.0696,-5.0744,-5.1273,-5.1778,-5.2331,-5.286,-5.3514,-5.4122,-5.457,-5.5164,-5.5926,-5.5926,-5.6605,-5.7446,-1.6635,-1.7931,-1.8819,0.0,0.0,0.0,0.0,-2.0231,0.0,-2.1426,0.0,-2.238,-2.2669,-2.2935,-2.3402,-2.4329,0.0,-2.4804,-2.5999,-2.5732,-2.5571,-2.5571,-2.501,-2.4583,-2.4329,-2.5228,0.0,0.0,0.0,-2.792,-2.815,-2.8058,-2.859,-2.9635,-2.9342,-3.0571,-3.2936,-3.4513,-3.5614,-3.6292,-3.6347,-3.6329,-3.6292,-3.6347,-3.6604,-3.6916,-3.6916,-3.6677,-3.6421,-3.6787,-3.6916,-3.7044,-3.7778,-3.8016,-3.8108,-3.8585,-3.897,-3.9171,-3.8878,-3.8805,-3.8695,-3.8273,-3.7869,-3.7576,-3.7521,-3.7191,-3.7007,-3.7356,-3.6586,-3.6054,-3.6714,0.0,0.0,-3.4634,-3.4031,0.0,0.0,0.0,0.0,0.0,0.0,0.0,0.0,0.0,0.0,0.0,0.0,0.0,0.0,0.0,0.0,-5.2139,-5.1334,-5.1512,-5.2851,-5.1512,-5.0998,-5.1297,-5.1441,-5.1273,-5.0696,-5.0768,-5.0768,-5.0744,-5.1345,-5.185,-5.2331,-5.2932,-5.3413,-5.3972,-5.4248,-5.4868,-5.5485,-5.5632,-5.5779,-5.6072,-1.8046,-1.8728,-1.9084,-1.935,0.0,-2.0352,-2.0786,-2.0895,-2.1136,-2.1728,-2.2066,-2.244,-2.2923,-2.3225,-2.3695,-2.4621,-2.4837,0.0,0.0,0.0,0.0,-2.5879,-2.5317,-2.4983,-2.493,-2.6638,-2.7598,0.0,0.0,-2.9901,-3.0241,-2.9562,-2.9544,-3.0094,-3.0351,-3.1818,-3.4165,-3.5449,0.0,-3.6751,-3.7081,-3.7007,-3.6769,-3.7081,-3.7246,-3.7319,-3.7319,-3.7283,-3.7228,-3.7301,-3.7319,-3.7411,-3.7869,-3.8016,-3.8163,-3.8915,-3.9171,-3.9281,-3.9557,-3.963,-3.9538,-3.9116,-3.8713,-3.8328,-3.7998,-3.7613,-3.7338,-3.7411,-3.7246,-3.7062,-3.6879,0.0,0.0,0.0,0.0,0.0,0.0,0.0,0.0,0.0,0.0,0.0,0.0,0.0,0.0,0.0,0.0,0.0,0.0,0.0,0.0,0.0,-5.2254,0.0,0.0,0.0,-5.1805,-4.9984,-5.1507,-5.1634,-5.072,-5.1153,-5.1105,-5.0768,-5.173,-5.2187,-5.2355,-5.3293,-5.3876,-5.4248,-5.4397,-5.4719,-5.5189,-5.5485,-5.5632,-5.5779,-1.9042,-1.9627,-1.9941,-2.0062,0.0,0.0,0.0,-2.1909,0.0,-2.244,-2.2718,-2.3031,-2.3418,-2.3733,-2.4294,-2.4914,-2.5199,-2.5753,-2.6386,-2.6266,-2.6186,-2.6186,-2.5772,0.0,-2.5531,-2.6284,-2.7152,-2.8316,0.0,-2.9839,-3.0772,-3.0387,-3.0534,-3.1176,-3.2203,-3.3431,-3.4788,-3.5779,0.0,-3.7154,-3.7356,-3.7319,-3.7154,-3.7356,-3.7558,-3.7759,-3.7979,-3.8181,-3.8328,-3.8126,-3.8199,-3.8438,-3.8841,-3.897,-3.9043,-3.9428,-3.9538,-3.9593,-3.9795,-3.985,-3.9795,-3.9593,-3.941,-3.9208,-3.9006,-3.8823,-3.8621,-3.8401,-3.8199,-3.7814,-3.7292,-3.7295,0.0,0.0,0.0,0.0,0.0,0.0,-3.6699,0.0,0.0,0.0,0.0,0.0,0.0,0.0,0.0,0.0,0.0,0.0,0.0,0.0,0.0,0.0,0.0,0.0,-5.1953,-5.1436,-5.2086,-5.1874,-5.1105,-5.1081,-5.1105,-5.1153,-5.1946,-5.2427,-5.274,-5.351,-5.3972,-5.4122,-5.4122,-5.4272,-5.4719,-5.4868,-5.5164,-5.5632,-1.9852,-2.0557,-2.0931,0.0,-2.1716,0.0,-2.2343,-2.279,-2.3128,-2.3128,-2.3321,-2.355,-2.3816,-2.4172,-2.4652,-2.497,-2.5435,-2.5753,-2.6228,-2.6228,-2.6386,-2.6386,-2.6172,-2.6012,-2.5959,-2.6094,-2.7072,0.0,0.0,-3.0035,-3.1304,-3.1396,-3.1818,-3.257,-3.3927,-3.4862,0.0,0.0,-3.6952,-3.7558,-3.7649,-3.7631,-3.7576,-3.7741,-3.7998,-3.8328,-3.875,-3.9153,-3.9447,-3.9135,-3.9171,-3.941,-3.974,-3.985,-3.985,-3.9942,-3.9978,-3.9997,-4.007,-4.0033,-3.9978,-3.9978,-3.9905,-3.985,-3.985,-3.985,-3.9758,-3.9428,-3.9043,-3.8456,-3.7736,-3.7871,0.0,0.0,0.0,0.0,0.0,0.0,0.0,0.0,0.0,0.0,0.0,0.0,0.0,0.0,0.0,0.0,0.0,0.0,0.0,0.0,0.0,-5.055,-5.2127,0.0,-5.2155,-5.2583,-5.2593,-5.2211,-5.1489,-5.1177,-5.1201,-5.1513,-5.2043,-5.2644,-5.3269,-5.3654,-5.3822,-5.3822,-5.3822,-5.3972,-5.4248,-5.4397,-5.4868,-5.5509,-2.038,-2.139,-2.1752,0.0,0.0,0.0,-2.2621,-2.3068,-2.3418,-2.3418,-2.3442,-2.355,-2.3816,-2.4172,-2.4492,-2.4492,-2.497,-2.5289,-2.5753,-2.5911,-2.607,-2.6386,-2.636,-2.6226,-2.5959,-2.7565,-2.8892,0.0,0.0,-3.2312,-3.301,-3.3358,-3.3762,-3.4202,-3.4733,0.0,0.0,-3.7503,-3.7888,-3.7998,-3.8383,-3.831,-3.8034,-3.8786,-3.908,-3.9171,-3.9575,-3.9997,-4.0345,-4.0308,-4.007,-3.9795,-3.9832,-3.985,-3.9923,-4.029,-4.0418,-4.0492,-4.084,-4.0694,-4.0418,-4.0418,-4.0125,-3.985,-3.985,-3.985,-3.9832,-3.9795,-3.9465,-3.9025,-3.8566,-3.8199,-3.8365,0.0,0.0,0.0,0.0,0.0,-3.8516,-3.8516,0.0,0.0,0.0,0.0,0.0,0.0,-4.0443,0.0,0.0,0.0,0.0,-4.8286,0.0,-4.9655,-4.9182,-5.206,-5.2608,-5.071,-5.2688,-5.2908,-5.1513,-5.1922,-5.1898,-5.1513,-5.2043,-5.2836,-5.375,-5.3798,-5.3822,-5.3822,-5.3822,-5.3822,-5.3972,-5.4248,-5.4719,-5.5115,-2.0181,0.0,0.0,0.0,0.0,0.0,0.0,-2.3454,-2.3683,-2.3683,-2.3683,-2.3731,-2.3828,-2.4172,-2.4492,-2.4492,-2.513,-2.5594,-2.5753,-2.607,-2.6228,-2.6386,-2.6386,-2.6333,-2.6226,-2.7127,-2.8602,0.0,0.0,0.0,-3.466,-3.4587,-3.4623,-3.4807,0.0,-3.6274,-3.7228,-3.7778,-3.8163,-3.8438,-3.8823,-3.8896,-3.8805,-3.9373,-3.9593,-3.9648,-4.007,-4.0327,-4.051,-4.0749,-4.0712,-4.0565,-4.0565,-4.0565,-4.0602,-4.0767,-4.0822,-4.0859,-4.1024,-4.095,-4.0822,-4.0822,-4.0694,-4.0565,-4.0565,-4.0565,-4.051,-4.0272,-3.9887,-3.9557,-3.9392,-3.9428,-3.9696,-4.016,0.0,0.0,0.0,0.0,0.0,-3.9766,0.0,-3.8887,0.0,0.0,0.0,0.0,0.0,0.0,0.0,0.0,0.0,-4.6655,0.0,-5.0919,-4.9891,-5.24,-5.3401,-5.2561,-5.278,-5.274,-5.2403,-5.1682,-5.1562,-5.2018,-5.2836,-5.3437,-5.3822,-5.3822,-5.3822,-5.3822,-5.3822,-5.3822,-5.3822,-5.3972,-5.4466,-5.5282,-2.0241,0.0,-2.3093,0.0,-2.3973,-2.4226,-2.3852,-2.3949,-2.4045,-2.3973,-2.4021,-2.4021,-2.3864,-2.4172,-2.4492,-2.4332,-2.5117,-2.5594,-2.5594,-2.5911,-2.6228,-2.6386,-2.6386,0.0,-2.7162,-2.7547,-2.9152,-3.2227,-3.2527,0.0,-3.5614,-3.521,-3.5229,-3.5595,-3.6256,-3.6952,-3.7631,-3.8034,-3.8438,-3.8841,-3.9116,-3.93,-3.9465,-3.9868,-4.0033,-4.0088,-4.0492,-4.0639,-4.0694,-4.0969,-4.106,-4.106,-4.106,-4.106,-4.106,-4.106,-4.106,-4.106,-4.106,-4.106,-4.106,-4.106,-4.106,-4.106,-4.106,-4.106,-4.095,-4.0547,-4.0235,-3.9997,-3.9868,-4.0088,-4.0454,-4.0801,0.0,0.0,0.0,-4.1426,0.0,-4.1113,-4.0527,-4.0098,-3.998,-3.959,0.0,0.0,0.0,0.0,0.0,0.0,0.0,0.0,0.0,0.0,0.0,-5.283,-5.3822,-5.3822,-5.3077,-5.2764,-5.2812,-5.1682,-5.1562,-5.2331,-5.3365,-5.3822,-5.3822,-5.3822,-5.3822,-5.3822,-5.3822,-5.3822,-5.3822,-5.3822,-5.4437,-5.5297,-2.0745,-2.176,-2.2422,-2.427,-2.4613,-2.4625,-2.4613,-2.4613,-2.4528,-2.4263,-2.4456,-2.442,-2.39,-2.4172,-2.4332,-2.3852,-2.4652,-2.513,-2.513,-2.5594,-2.5911,0.0,0.0,-2.7162,-2.8856,-2.9486,-3.1399,-3.4333,0.0,0.0,-3.5614,-3.521,-3.5669,-3.6824,-3.7228,-3.7631,-3.8034,-3.8456,-3.886,-3.9226,-3.9226,-3.9483,-3.9887,-4.0308,-4.0473,-4.051,-4.0914,-4.106,-4.106,-4.106,-4.106,-4.106,-4.106,-4.106,-4.106,-4.106,-4.106,-4.106,-4.106,-4.106,-4.106,-4.106,-4.106,-4.106,-4.106,-4.106,-4.095,-4.0547,-4.0473,-4.0327,-3.9923,-3.985,-4.0306,-4.1499,0.0,0.0,0.0,-4.2051,0.0,-4.2344,-4.2402,-4.2226,-4.1816,-4.1387,0.0,0.0,0.0,0.0,0.0,0.0,0.0,-4.8873,-4.9548,0.0,-5.127,-5.302,-5.3822,-5.3822,-5.3798,-5.3269,-5.2283,-5.2283,-5.2259,-5.2331,-5.3365,-5.3822,-5.3822,-5.3822,-5.3822,-5.3822,-5.3822,-5.3822,-5.3822,-5.3822,-5.4437,-5.5297,-1.9663,-2.1283,-2.2697,-2.4568,-2.4914,-2.4854,-2.4661,-2.4625,-2.4601,-2.4516,-2.4576,-2.4564,-2.4395,-2.4377,-2.4207,0.0,-2.4652,-2.513,0.0,-2.5766,-2.6228,-2.6386,-2.6386,-2.7258,-2.9193,-2.9777,-3.1631,-3.5261,0.0,0.0,0.0,-3.7118,-3.7264,-3.7649,-3.7778,-3.8199,-3.886,-3.8988,-3.9281,-3.9667,-3.996,-4.0162,-4.0308,-4.0712,-4.0877,-4.0895,-4.1024,-4.106,-4.106,-4.106,-4.106,-4.106,-4.106,-4.106,-4.106,-4.106,-4.106,-4.106,-4.106,-4.106,-4.106,-4.106,-4.106,-4.106,-4.106,-4.106,-4.1024,-4.0895,-4.0877,-4.0822,-4.0694,-4.0675,-4.1046,-4.2008,-4.208,0.0,-4.2748,0.0,-4.2617,-4.2441,-4.2168,-4.1953,0.0,-4.1426,0.0,0.0,0.0,0.0,0.0,0.0,0.0,0.0,-4.8821,0.0,-4.9562,-5.1293,-5.2717,-5.3822,-5.3485,-5.2764,-5.1778,-5.2475,-5.262,-5.2331,-5.3365,-5.3822,-5.3822,-5.3822,-5.3822,-5.3822,-5.3822,-5.3822,-5.3822,-5.3822,-5.4375,-5.5323,-1.9303,-2.1231,-2.295,-2.4854,-2.5192,-2.5132,-2.4963,-2.4927,-2.489,-2.4794,-2.4866,-2.4854,-2.4649,-2.4576,0.0,-2.4154,-2.4951,-2.5448,-2.5448,-2.6344,-2.6881,-2.6881,-2.6987,-2.8242,-3.0831,-3.1204,0.0,-3.6799,-3.6869,-3.7347,-3.8255,-3.8255,-3.8328,-3.8475,-3.8475,-3.8841,-3.9465,-3.9465,-3.9703,-4.0107,-4.0363,-4.0565,-4.0712,-4.0969,-4.106,-4.106,-4.106,-4.106,-4.106,-4.106,-4.106,-4.106,-4.106,-4.106,-4.106,-4.106,-4.106,-4.106,-4.106,-4.106,-4.106,-4.106,-4.106,-4.106,-4.106,-4.106,-4.106,-4.106,-4.106,-4.106,-4.106,-4.106,-4.1397,-4.2235,-4.2402,-4.264,-4.3195,-4.332,-4.3281,-4.3183,0.0,0.0,0.0,-4.2285,-4.209,0.0,0.0,0.0,0.0,0.0,0.0,-4.6067,-4.8366,-4.9384,-4.8776,-4.9875,-5.1139,-5.2869,-5.2372,-5.1982,-5.1826,-5.2054,-5.2149,-5.2331,-5.3365,-5.3822,-5.3822,-5.3822,-5.3822,-5.3822,-5.3822,-5.3822,-5.3846,-5.4039,-5.4664,-5.5433,-1.9525,-2.1435,-2.3354,-2.5092,-2.5433,-2.5433,-2.5433,-2.5433,-2.5349,-2.5108,-2.5289,-2.524,-2.4733,-2.4939,-2.4999,-2.4733,0.0,0.0,-2.5995,-2.7079,-2.7722,-2.7722,-2.7989,-2.9802,-3.3429,-3.3429,-3.5254,-3.8731,-3.8731,-3.8731,-3.8731,-3.8731,-3.8915,-3.9281,-3.9281,-3.9502,-3.9887,-3.9887,-4.0125,-4.051,-4.051,-4.073,-4.106,-4.106,-4.106,-4.106,-4.106,-4.106,-4.106,-4.106,-4.106,-4.106,-4.106,-4.106,-4.106,-4.106,-4.106,-4.106,-4.106,-4.106,-4.106,-4.106,-4.106,-4.106,-4.106,-4.106,-4.106,-4.106,-4.106,-4.106,-4.106,-4.106,-4.1397,-4.2235,-4.2402,-4.2735,-4.3546,-4.3711,-4.3867,-4.4297,0.0,0.0,-4.3711,-4.3652,-4.334,0.0,0.0,0.0,0.0,0.0,-4.612,-4.7766,-4.7788,-4.8161,-4.8618,-4.8618,-4.9406,-5.1139,-5.0636,-5.0932,-5.2185,-5.0955,-5.1231,-5.2379,-5.3389,-5.3822,-5.3822,-5.3822,-5.3822,-5.3822,-5.3822,-5.3822,-5.387,-5.4399,-5.4928,-5.5482,0.0,0.0,-2.3354,-2.5092,-2.5433,-2.5433,-2.5433,-2.5433,-2.5409,-2.5349,-2.5397,-2.5385,-2.5252,-2.5482,-2.5615,-2.5554,-2.6024,-2.6287,-2.6287,-2.7381,-2.8043,-2.8043,-2.811,-3.0069,-3.3778,-3.3778,-3.574,-3.9557,-3.9557,-3.9557,-3.9557,-3.9538,-3.9593,-3.9703,-3.9703,-3.9923,-4.0327,-4.0327,-4.0547,-4.0914,-4.0914,-4.0969,-4.106,-4.106,-4.106,-4.106,-4.106,-4.106,-4.106,-4.106,-4.106,-4.106,-4.106,-4.106,-4.106,-4.106,-4.106,-4.106,-4.106,-4.106,-4.106,-4.106,-4.106,-4.106,-4.106,-4.106,-4.106,-4.106,-4.106,-4.106,-4.106,-4.106,-4.1229,-4.1714,-4.2216,-4.2569,-4.3234,-4.3546,-4.375,-4.3848,-4.3867,-4.3691,-4.3262,-4.3223,-4.3281,0.0,0.0,0.0,0.0,-4.4667,-4.5046,-4.6079,-4.6552,-4.6783,-4.6888,-4.6888,-4.7666,-4.9406,-4.8919,-4.94,-5.0851,-5.0641,-5.1418,-5.2908,-5.3558,-5.3822,-5.3822,-5.3822,-5.3822,-5.3822,-5.3822,-5.3822,-5.387,-5.4399,-5.4928,-5.5482,-1.97,-2.2136,-2.4224,-2.5263,-2.5433,-2.5433,-2.5433,-2.5433,-2.5433,-2.5433,-2.5542,-2.5615,-2.5615,-2.5856,-2.6013,-2.6013,-2.6438,-2.6778,-2.6948,-2.7891,-2.8579,-2.8751,-2.8885,-3.0377,-3.3258,-3.3291,-3.4566,-3.7308,-3.7308,-3.7805,-3.8665,-3.8647,-3.9102,-4.0125,-4.0125,-4.0363,-4.073,-4.073,-4.0859,-4.106,-4.106,-4.106,-4.106,-4.106,-4.106,-4.106,-4.106,-4.106,-4.106,-4.106,-4.106,-4.106,-4.106,-4.106,-4.1097,-4.1299,-4.1207,-4.106,-4.106,-4.106,-4.106,-4.106,-4.106,-4.106,-4.106,-4.106,-4.106,-4.106,-4.106,-4.106,-4.106,-4.106,-4.121,-4.1695,-4.2049,-4.2569,-4.3068,-4.338,-4.3711,-4.3711,-4.3711,-4.3613,-4.3379,-4.3359,-4.3457,-4.3691,-4.3711,0.0,-4.4062,-4.4082,-4.4344,-4.4643,-4.5027,-4.5148,-4.5148,-4.5941,-4.6727,-4.7666,-4.7197,-4.7744,-4.9314,-4.9445,-5.0384,-5.1986,-5.3282,-5.3822,-5.3822,-5.3822,-5.3822,-5.3822,-5.3822,-5.3822,-5.3918,-5.4688,-5.5145,-5.5506,-2.0221,-2.2998,-2.5433,-2.5433,-2.5433,-2.5433,-2.5433,-2.547,-2.5494,-2.5494,-2.5723,-2.5892,-2.5892,-2.6122,-2.6278,-2.6278,-2.668,-2.7209,-2.7686,-2.8294,-2.8994,-2.9553,-2.978,-3.0781,-3.269,-3.2602,-3.3188,-3.4419,-3.4758,-3.5787,-3.733,-3.7497,-3.8689,-4.0565,-4.0565,-4.0749,-4.106,-4.106,-4.106,-4.106,-4.106,-4.106,-4.106,-4.106,-4.106,-4.106,-4.106,-4.106,-4.106,-4.106,-4.106,-4.1079,-4.1134,-4.1152,-4.1244,-4.1647,-4.1519,-4.1225,-4.117,-4.1115,-4.1079,-4.1134,-4.1097,-4.106,-4.106,-4.106,-4.106,-4.106,-4.106,-4.106,-4.106,-4.106,-4.1247,-4.1621,-4.2086,-4.2421,-4.2978,-4.3419,-4.3711,-4.3711,-4.3711,-4.3711,-4.3711,-4.3711,-4.3711,-4.3711,-4.3711,-4.3711,-4.3711,-4.3711,-4.3711,-4.3711,-4.3711,-4.3711,-4.3711,-4.5148,-4.59,-4.5838,-4.5448,-4.6037,-4.7588,-4.79,-4.9029,-5.0673,-5.283,-5.3822,-5.3822,-5.3822,-5.3822,-5.3822,-5.3822,-5.387,-5.4063,-5.5025,-5.5458,-5.5674,-2.1953,-2.3869,-2.5433,-2.5433,-2.5433,-2.5433,-2.5433,-2.5627,-2.5771,-2.5771,-2.5989,-2.6158,-2.6158,-2.6411,-2.658,-2.658,-2.6773,-2.7349,-2.8017,-2.8782,-2.9296,-2.9847,-2.9887,-3.0781,-3.269,-3.4211,-3.5036,-3.5319,-3.6887,-3.7759,-3.8118,-3.9663,-4.0727,-4.0969,-4.0969,-4.1005,-4.106,-4.106,-4.106,-4.106,-4.106,-4.106,-4.106,-4.106,-4.106,-4.106,-4.106,-4.106,-4.106,-4.106,-4.106,-4.1115,-4.1482,-4.1592,-4.1666,-4.2069,-4.2142,-4.2014,-4.1684,-4.1335,-4.1152,-4.15,-4.1317,-4.106,-4.106,-4.106,-4.106,-4.106,-4.106,-4.106,-4.106,-4.106,-4.117,-4.1707,-4.1788,-4.2162,-4.2856,-4.3112,-4.338,-4.3711,-4.3711,-4.3711,-4.3711,-4.3711,-4.3711,-4.3711,-4.3711,-4.3711,-4.3711,-4.3711,-4.3711,-4.3711,-4.3711,-4.3711,-4.3711,-4.4021,-4.4008,-4.3652,-4.3573,-4.4321,-4.6037,-4.7432,-4.9207,-5.1332,-5.2996,-5.3822,-5.3822,-5.3822,-5.3822,-5.3822,-5.3822,-5.4087,-5.4568,-5.5169,-5.5698,-5.6179,-2.2309,-2.4212,-2.5433,-2.5433,-2.5433,-2.5482,-2.5627,-2.5747,-2.588,-2.6025,-2.6278,-2.6447,-2.6447,-2.6689,-2.6846,-2.6846,-2.6966,-2.7341,-2.8296,-2.8578,-2.9195,-2.9913,-2.9913,-3.0258,-3.1123,-3.2012,-3.2528,-3.2528,-3.341,-3.4272,-3.5304,-3.6172,-3.7036,-3.81,-3.9143,-3.9671,-3.9671,-4.0705,-4.106,-4.106,-4.106,-4.106,-4.106,-4.106,-4.106,-4.106,-4.106,-4.106,-4.1097,-4.1317,-4.139,-4.1464,-4.1886,-4.1996,-4.2087,-4.2472,-4.2436,-4.2234,-4.2051,-4.1702,-4.15,-4.1904,-4.1537,-4.1115,-4.1354,-4.1225,-4.106,-4.106,-4.106,-4.106,-4.106,-4.106,-4.1115,-4.1317,-4.1508,-4.1938,-4.2648,-4.285,-4.3234,-4.3711,-4.3711,-4.3711,-4.3711,-4.3711,-4.3711,-4.3711,-4.3711,-4.3711,-4.3711,-4.3711,-4.3711,-4.3711,-4.3711,-4.3711,-4.3711,-4.3711,-4.3496,-4.3086,-4.3086,-4.3554,-4.4321,-4.6962,-4.8785,-5.0031,-5.2717,-5.3822,-5.3822,-5.3822,-5.3822,-5.3822,-5.3822,-5.4135,-5.4664,-5.5193,-5.5746,-5.6323,-2.2826,-2.4395,-2.5458,-2.5518,-2.553,-2.5615,-2.588,-2.5977,-2.6085,-2.6291,-2.6556,-2.6725,-2.6725,-2.6906,-2.7027,-2.7027,-2.7027,-2.739,-2.8294,-2.8474,-2.8835,-2.9913,-2.9913,-2.9913,-2.9913,-2.9913,-2.9913,-2.9913,-3.0258,-3.1301,-3.269,-3.3219,-3.4082,-3.5478,-3.7052,-3.7586,-3.7757,-3.9143,-4.001,-4.0367,-4.0367,-4.0705,-4.106,-4.106,-4.1115,-4.1207,-4.1207,-4.1262,-4.139,-4.1721,-4.1831,-4.1886,-4.2289,-4.2417,-4.2491,-4.2894,-4.2803,-4.2564,-4.2564,-4.2124,-4.1812,-4.2289,-4.1739,-4.117,-4.1592,-4.1372,-4.106,-4.106,-4.106,-4.106,-4.106,-4.106,-4.1097,-4.1189,-4.1452,-4.1751,-4.2367,-4.2626,-4.3068,-4.3546,-4.3711,-4.3711,-4.3711,-4.3711,-4.3711,-4.3711,-4.3711,-4.3711,-4.3711,-4.3711,-4.3711,-4.3711,-4.3711,-4.3711,-4.3711,-4.3711,-4.3496,-4.3086,-4.3086,-4.3229,-4.3696,-4.6805,-4.863,-4.9562,-5.2541,-5.3822,-5.3822,-5.3822,-5.3822,-5.3822,-5.3822,-5.4207,-5.4832,-5.5241,-5.5842,-5.6468,-2.4566,-2.5263,-2.5518,-2.5759,-2.5796,-2.5892,-2.6146,-2.6411,-2.6592,-2.6604,-2.6834,-2.7003,-2.7003,-2.7015,-2.7027,-2.7027,-2.7027,-2.7208,-2.7739,-2.8294,-2.8835,-2.9913,-2.9913,-2.9913,-2.9913,-2.9913,-2.9913,-2.9913,-3.1642,-3.2514,-3.269,-3.4432,-3.532,-3.5494,-3.5668,-3.5668,-3.5668,-3.5826,-3.688,-3.846,-3.846,-3.9501,-4.106,-4.106,-4.1299,-4.1647,-4.1647,-4.1886,-4.2197,-4.2216,-4.2234,-4.2307,-4.2692,-4.2821,-4.2913,-4.3334,-4.3426,-4.3408,-4.3408,-4.2564,-4.1867,-4.2637,-4.1941,-4.117,-4.1592,-4.1372,-4.106,-4.106,-4.106,-4.106,-4.106,-4.106,-4.1189,-4.1574,-4.1317,-4.1358,-4.2236,-4.2312,-4.2569,-4.3068,-4.3546,-4.3711,-4.3711,-4.3711,-4.3711,-4.3711,-4.3711,-4.3711,-4.3711,-4.3711,-4.3711,-4.3711,-4.3711,-4.3711,-4.3711,-4.3711,-4.3496,-4.3086,-4.3086,-4.3858,-4.5401,-4.7276,-4.9251,-5.1293,-5.302,-5.3822,-5.3822,-5.3822,-5.3822,-5.3822,-5.3822,-5.4447,-5.5337,-5.5385,-5.6059,-5.6973,-2.3369,-2.48,-2.5759,-2.6025,-2.6073,-2.6158,-2.6435,-2.6568,-2.6701,-2.6858,-2.6966,-2.7027,-2.7027,-2.7027,-2.7027,-2.7027,-2.7027,-2.7208,-2.7739,-2.8294,-2.8835,-2.9913,-2.9913,-2.9913,-2.9913,-2.9913,-2.9913,-2.9913,-3.0616,-3.0959,-3.0959,-3.1657,-3.2012,-3.2012,-3.3219,-3.3731,-3.3907,-3.4956,-3.5842,-3.6707,-3.7757,-3.8802,-3.9519,-4.0996,-4.1555,-4.1721,-4.1959,-4.2142,-4.2307,-4.2564,-4.2637,-4.2711,-4.3133,-4.3261,-4.3279,-4.3444,-4.3499,-4.3499,-4.3499,-4.2968,-4.2546,-4.3114,-4.2527,-4.1849,-4.2014,-4.1739,-4.1372,-4.1115,-4.106,-4.106,-4.106,-4.106,-4.1115,-4.128,-4.117,-4.1266,-4.1919,-4.1975,-4.2216,-4.3068,-4.3234,-4.338,-4.3711,-4.3711,-4.3711,-4.3711,-4.3711,-4.3711,-4.3711,-4.3984,-4.4258,-4.4512,-4.4531,-4.4394,-4.4141,-4.4141,-4.4062,-4.3906,-4.3906,-4.4698,-4.6156,-4.7727,-4.9541,-5.1447,-5.302,-5.3822,-5.3822,-5.3822,-5.3822,-5.3846,-5.4183,-5.476,-5.5433,-5.5794,-5.6371,-5.7021,-2.3414,-2.4532,-2.5325,-2.6126,-2.6351,-2.6447,-2.6725,-2.6761,-2.6822,-2.7003,-2.7027,-2.7027,-2.7027,-2.7027,-2.7027,-2.7027,-2.7027,-2.7208,-2.7377,-2.8113,-2.8835,-2.9913,-2.9913,-2.9913,-2.9913,-2.9913,-2.9913,-2.9913,-2.9913,-2.9913,-2.9913,-2.9913,-2.9913,-2.9913,-3.1301,-3.182,-3.182,-3.3219,-3.4097,-3.4781,-3.6015,-3.6946,-3.7787,-3.9978,-4.0589,-4.049,-4.1996,-4.1828,-4.1055,-4.2596,-4.2333,-4.1461,-4.3033,-4.3499,-4.3499,-4.3499,-4.3499,-4.3499,-4.3499,-4.3279,-4.3133,-4.3426,-4.2876,-4.2271,-4.2271,-4.1977,-4.1574,-4.1152,-4.106,-4.106,-4.106,-4.106,-4.106,-4.106,-4.106,-4.1229,-4.1546,-4.1714,-4.2216,-4.2735,-4.3068,-4.338,-4.3711,-4.3828,-4.3926,-4.3926,-4.4043,-4.4121,-4.4121,-4.4414,-4.4726,-4.5019,-4.5019,-4.4961,-4.4805,-4.4668,-4.4531,-4.4394,-4.4394,-4.5283,-4.7048,-4.8302,-5.0031,-5.2084,-5.3346,-5.3822,-5.3822,-5.3822,-5.3918,-5.4111,-5.4471,-5.5049,-5.5698,-5.6083,-5.6564,-5.7021,-2.4914,-2.4617,-2.3985,-2.6235,-2.6641,-2.6725,-2.6991,-2.7027,-2.7027,-2.7027,-2.7027,-2.7027,-2.7027,-2.7027,-2.7027,-2.7027,-2.7027,-2.7027,-2.7027,-2.7933,-2.8835,-2.9913,-2.9913,-2.9913,-2.9913,-2.9913,-2.9913,-2.9913,-2.9913,-2.9913,-2.9913,-2.9913,-2.9913,-2.9913,-2.9913,-2.9913,-2.9913,-2.9913,-3.0959,-3.269,-3.269,-3.3943,-3.6179,-3.8141,-3.8064,-3.743,-4.1409,-4.0566,-3.8143,-4.2192,-4.0912,-3.8327,-4.2209,-4.3499,-4.3499,-4.3499,-4.3499,-4.3499,-4.3499,-4.3499,-4.3499,-4.3499,-4.2894,-4.2289,-4.2289,-4.1977,-4.1574,-4.1152,-4.106,-4.106,-4.106,-4.106,-4.106,-4.106,-4.106,-4.106,-4.106,-4.19,-4.2402,-4.2402,-4.3214,-4.3711,-4.3711,-4.4121,-4.4394,-4.4394,-4.4785,-4.5019,-4.5039,-4.5039,-4.5039,-4.5039,-4.5039,-4.5234,-4.5683,-4.5254,-4.4824,-4.4414,-4.4414,-4.5922,-4.8776,-4.8776,-5.0675,-5.3822,-5.3822,-5.3822,-5.3822,-5.3822,-5.4135,-5.4616,-5.4616,-5.5265,-5.6227,-5.6227,-5.6564,-5.7021,-1.9934,-2.2151,-2.3868,-2.4652,-2.599,-2.6942,-2.7015,-2.7027,-2.7027,-2.7027,-2.7027,-2.7027,-2.7027,-2.7027,-2.7027,-2.7027,-2.7027,-2.7208,-2.7558,-2.7739,-2.8462,-2.9362,-2.9734,-2.9913,-2.9913,-2.9913,-2.9913,-2.9913,-2.9913,-2.9913,-2.9913,-2.9913,-2.9913,-2.9913,-2.9913,-2.9913,-2.9913,-2.9913,-3.0258,-3.0794,-3.2405,-3.3427,-3.4275,-3.6559,-3.7253,-3.7099,-3.8613,-3.8595,-3.7759,-3.8876,-3.851,-3.7759,-3.9059,-3.9424,-3.9424,-3.9424,-4.0351,-4.1093,-3.9789,-4.1454,-4.3499,-4.3499,-4.3316,-4.3059,-4.2766,-4.2381,-4.2069,-4.1941,-4.1464,-4.1152,-4.1445,-4.1262,-4.106,-4.106,-4.106,-4.106,-4.106,-4.1397,-4.1565,-4.1882,-4.2197,-4.2664,-4.362,-4.3794,-4.4155,-4.4805,-4.4961,-4.5156,-4.5469,-4.5488,-4.5625,-4.5918,-4.5918,-4.5976,-4.6113,-4.5703,-4.541,-4.5293,-4.498,-4.6369,-4.9257,-4.8929,-5.0675,-5.3822,-5.3822,-5.3822,-5.3822,-5.3822,-5.4135,-5.464,-5.5025,-5.5602,-5.6275,-5.666,-5.6876,-5.7021,-1.8869,-2.1105,-2.2982,-2.3849,-2.573,-2.7027,-2.7027,-2.7027,-2.7027,-2.7027,-2.7027,-2.7027,-2.7027,-2.7027,-2.7027,-2.7027,-2.7027,-2.7208,-2.7377,-2.7558,-2.8101,-2.8822,-2.9362,-2.9734,-2.9913,-2.9913,-2.9913,-2.9913,-2.9913,-2.9913,-2.9913,-2.9913,-2.9913,-2.9913,-2.9913,-2.9913,-2.9913,-2.9913,-2.998,-3.0281,-3.1513,-3.2084,-3.2703,-3.4908,-3.5516,-3.5099,-3.696,-3.6653,-3.5554,-3.7022,-3.7575,-3.7391,-3.6653,-3.7022,-3.7575,-3.7575,-3.8494,-3.9059,-3.7943,-3.9424,-4.1273,-4.2192,-4.2945,-4.3389,-4.2968,-4.2674,-4.2417,-4.2106,-4.1647,-4.1335,-4.1427,-4.1225,-4.106,-4.106,-4.106,-4.106,-4.106,-4.1229,-4.1434,-4.1938,-4.2125,-4.2612,-4.3556,-4.3747,-4.4205,-4.5144,-4.5183,-4.5472,-4.5918,-4.5918,-4.6035,-4.6289,-4.6152,-4.6055,-4.6055,-4.5625,-4.541,-4.541,-4.498,-4.6308,-4.9191,-4.8907,-5.0675,-5.3822,-5.3822,-5.3822,-5.3846,-5.4039,-5.4447,-5.4977,-5.5506,-5.6059,-5.6588,-5.69,-5.7021,-5.7021,-1.9789,-2.0742,-2.1481,-2.3504,-2.5366,-2.6845,-2.7027,-2.7027,-2.7027,-2.7027,-2.7027,-2.7027,-2.7027,-2.7027,-2.7027,-2.7027,-2.7027,-2.7027,-2.7027,-2.7377,-2.7933,-2.8513,-2.8861,-2.9414,-2.9993,-2.994,-2.9913,-2.9913,-2.9913,-2.9913,-2.9913,-2.9913,-2.9913,-2.9913,-2.9913,-2.9913,-2.9913,-2.994,-3.0114,-3.0368,-3.0421,-3.0755,-3.141,-3.3272,-3.3098,-3.2232,-3.574,-3.4809,-3.2232,-3.5926,-3.7022,-3.6837,-3.4995,-3.5554,-3.7022,-3.7022,-3.7207,-3.7207,-3.7207,-3.7391,-3.7943,-3.9606,-4.1454,-4.3015,-4.3004,-4.2894,-4.2674,-4.1996,-4.1794,-4.1629,-4.128,-4.117,-4.1115,-4.1115,-4.1115,-4.1115,-4.1115,-4.1471,-4.1956,-4.2177,-4.2725,-4.3065,-4.3633,-4.4068,-4.466,-4.5568,-4.5607,-4.5783,-4.6308,-4.6308,-4.6308,-4.6308,-4.5937,-4.5723,-4.5683,-4.5234,-4.5,-4.4961,-4.459,-4.5922,-4.8776,-4.8776,-5.0675,-5.3822,-5.3822,-5.3846,-5.3918,-5.4399,-5.4952,-5.553,-5.6035,-5.6564,-5.7021,-5.7021,-5.7021,-5.7021,-1.6292,-1.7779,-1.9445,-2.1481,-2.3321,-2.5172,-2.6845,-2.7027,-2.7027,-2.7027,-2.7027,-2.7027,-2.7027,-2.7027,-2.7027,-2.7027,-2.7027,-2.7027,-2.7027,-2.7027,-2.7669,-2.8792,-2.8988,-2.9443,-3.0595,-3.0154,-2.9913,-2.9913,-2.9913,-2.9913,-2.9913,-2.9913,-2.9913,-2.9913,-2.9913,-2.9913,-2.9927,-3.0167,-3.0301,-3.0394,-3.0849,-3.1116,-3.1249,-3.2042,-3.1989,-3.1853,-3.2597,-3.2408,-3.1853,-3.2786,-3.296,-3.296,-3.2408,-3.2597,-3.296,-3.296,-3.4075,-3.4995,-3.3337,-3.5182,-3.7391,-3.6097,-3.7391,-3.959,-4.264,-4.3096,-4.2913,-4.3078,-4.2601,-4.2216,-4.2436,-4.1977,-4.1555,-4.1555,-4.1555,-4.1555,-4.1555,-4.1984,-4.2205,-4.2297,-4.2315,-4.2809,-4.3566,-4.4329,-4.4983,-4.5588,-4.5607,-4.5783,-4.6308,-4.6308,-4.6308,-4.6308,-4.6211,-4.6016,-4.5683,-4.5234,-4.4863,-4.4531,-4.4433,-4.5922,-4.8776,-4.8776,-5.0675,-5.3822,-5.3822,-5.4063,-5.4447,-5.4568,-5.5169,-5.6059,-5.6179,-5.6564,-5.7021,-5.7021,-5.7021,-5.7021,-1.5181,-1.6853,-1.8702,-2.0742,-2.277,-2.4796,-2.6664,-2.7027,-2.7027,-2.7027,-2.7135,-2.7172,-2.7039,-2.7256,-2.7353,-2.7232,-2.722,-2.722,-2.722,-2.7329,-2.783,-2.8716,-2.8901,-2.953,-3.0426,-3.0305,-3.0327,-3.0327,-3.0327,-3.0327,-3.0327,-3.0194,-3.0127,-3.0127,-2.998,-2.9993,-3.014,-3.0301,-3.0515,-3.0795,-3.1102,-3.1316,-3.145,-3.161,-3.1664,-3.1664,-3.1664,-3.1664,-3.1664,-3.1664,-3.1664,-3.1664,-3.1664,-3.1664,-3.1664,-3.1664,-3.2408,-3.296,-3.2043,-3.3149,-3.4809,-3.4622,-3.5368,-3.7207,-4.1093,-4.1852,-4.2067,-4.301,-4.2858,-4.2564,-4.2582,-4.2252,-4.1977,-4.1977,-4.1977,-4.1977,-4.1977,-4.2142,-4.2344,-4.2527,-4.2564,-4.2886,-4.3468,-4.3885,-4.4548,-4.5255,-4.5255,-4.5607,-4.6308,-4.6308,-4.6308,-4.6308,-4.6113,-4.5801,-4.5371,-4.4941,-4.4512,-4.4062,-4.4062,-4.5391,-4.7666,-4.846,-5.0187,-5.2717,-5.376,-5.4351,-5.464,-5.5169,-5.5722,-5.6251,-5.6516,-5.678,-5.7021,-5.7021,-5.7021,-5.7069,-1.5181,-1.6479,-1.8152,-2.0187,-2.2218,-2.4247,-2.6288,-2.6845,-2.7051,-2.7087,-2.7244,-2.7304,-2.7172,-2.7546,-2.7727,-2.751,-2.7486,-2.7486,-2.7486,-2.7691,-2.8022,-2.8632,-2.9005,-2.9589,-3.0199,-3.0571,-3.0889,-3.0795,-3.0795,-3.0795,-3.0795,-3.0541,-3.0408,-3.0354,-3.01,-3.0127,-3.0368,-3.0421,-3.0742,-3.1236,-3.1276,-3.145,-3.1664,-3.1664,-3.1664,-3.1664,-3.1664,-3.1664,-3.1664,-3.1664,-3.1664,-3.1664,-3.1664,-3.1664,-3.1664,-3.1664,-3.1664,-3.1664,-3.1664,-3.1664,-3.2043,-3.3699,-3.406,-3.5182,-3.9043,-4.0334,-4.0988,-4.2669,-4.2968,-4.2876,-4.2546,-4.2417,-4.2381,-4.2381,-4.2381,-4.2381,-4.2381,-4.2436,-4.2601,-4.2931,-4.2968,-4.3114,-4.3463,-4.3499,-4.3856,-4.4725,-4.4902,-4.5255,-4.6133,-4.6308,-4.6308,-4.6308,-4.5898,-4.5469,-4.5039,-4.4609,-4.416,-4.3711,-4.3711,-4.4658,-4.6426,-4.7985,-4.9763,-5.1608,-5.3613,-5.4712,-5.4952,-5.5866,-5.6275,-5.6419,-5.6852,-5.7021,-5.7021,-5.7021,-5.7069,-5.7213,-1.5181,-1.5368,-1.6299,-1.8152,-2.0187,-2.2218,-2.4247,-2.5913,-2.7111,-2.7341,-2.7208,-2.7244,-2.7667,-2.7775,-2.7799,-2.7763,-2.7763,-2.7763,-2.7763,-2.7787,-2.8108,-2.8917,-2.8917,-2.9596,-3.0799,-3.0799,-3.0927,-3.0795,-3.0795,-3.0795,-3.0795,-3.0755,-3.0595,-3.0354,-3.0314,-3.0327,-3.0381,-3.0621,-3.0929,-3.1249,-3.1503,-3.1637,-3.1664,-3.1664,-3.1664,-3.1664,-3.1664,-3.1664,-3.1664,-3.1664,-3.1664,-3.1664,-3.1664,-3.1664,-3.1664,-3.1664,-3.1664,-3.1664,-3.1664,-3.1664,-3.1664,-3.2043,-3.2043,-3.3149,-3.7022,-3.9242,-4.1058,-4.3051,-4.3408,-4.3389,-4.3334,-4.3023,-4.2784,-4.2784,-4.2784,-4.2784,-4.2784,-4.3096,-4.3353,-4.3408,-4.3408,-4.3426,-4.3481,-4.3499,-4.3659,-4.4193,-4.4725,-4.5078,-4.5607,-4.6133,-4.6308,-4.6308,-4.5898,-4.5469,-4.5039,-4.4609,-4.416,-4.3711,-4.3711,-4.4658,-4.6426,-4.7985,-4.9941,-5.2115,-5.3779,-5.5145,-5.6011,-5.6179,-5.6492,-5.6925,-5.6997,-5.7021,-5.7021,-5.7021,-5.7309,-5.7718,-1.5181,-1.5181,-1.5737,-1.7779,-1.9816,-2.1889,-2.4052,-2.5937,-2.7341,-2.7606,-2.7667,-2.7715,-2.7799,-2.7811,-2.7872,-2.8017,-2.8029,-2.8029,-2.8029,-2.8174,-2.8318,-2.8821,-2.9011,-2.9633,-3.0522,-3.0713,-3.0975,-3.1276,-3.1276,-3.1276,-3.1276,-3.1116,-3.0969,-3.0835,-3.0675,-3.0504,-3.0492,-3.0624,-3.0647,-3.0531,-3.1041,-3.1297,-3.1297,-3.1664,-3.1664,-3.1664,-3.1664,-3.1664,-3.1664,-3.1664,-3.1664,-3.1664,-3.1664,-3.1664,-3.1664,-3.1664,-3.1664,-3.1664,-3.1664,-3.1664,-3.1664,-3.1664,-3.1664,-3.2786,-3.6653,-3.831,-3.9789,-4.2927,-4.3499,-4.3499,-4.3499,-4.3334,-4.3224,-4.3224,-4.3224,-4.3224,-4.3224,-4.3371,-4.3499,-4.3499,-4.3499,-4.3499,-4.3499,-4.3499,-4.3678,-4.4193,-4.437,-4.4807,-4.5261,-4.5647,-4.5842,-4.5957,-4.5781,-4.5469,-4.5039,-4.4609,-4.4297,-4.4082,-4.4082,-4.5038,-4.6779,-4.8532,-5.0387,-5.2645,-5.4561,-5.5794,-5.6251,-5.654,-5.6804,-5.7021,-5.7021,-5.7021,-5.7069,-5.7357,-5.7622,-5.7886]}]]